[[{"header":{"parameterUnit":"m.s-1","parameterCategory":1,"la1":30.6,"la2":28.766,"lo1":-90.7593,"lo2":-88.6598,"dy":0.0162,"dx":0.0183,"nx":116,"ny":114,"refTime":"2024-06-13T18:00:00:Z","depth":0,"parameterNumber":2,"parameterNumberName":"U-component_of_WINDS"},"data":[0.0,0.0,0.0,0.0,0.0,0.0,0.0,0.0,0.0,0.0,0.0,0.0,0.0,0.0,0.0,0.0,0.0,0.0,0.0,0.0,0.0,0.0,0.0,0.0,0.0,0.0,0.0,0.0,0.0,0.0,0.0,0.0,0.0,0.0,0.0,0.0,0.0,0.0,0.0,0.0,0.0,0.0,0.0,0.0,0.0,0.0,0.0,0.0,0.0,0.0,0.0,0.0,0.0,0.0,0.0,0.0,0.0,0.0,0.0,0.0,0.0,0.0,0.0,0.0,0.0,0.0,0.0,0.0,0.0,0.0,0.0,0.0,0.0,0.0,0.0,0.0,0.0,0.0,0.0,0.0,0.0,0.0,0.0,0.0,0.0,0.0,0.0,0.0,0.0,0.0,0.0,0.0,0.0,0.0,0.0,0.0,0.0,0.0,0.0,0.0,0.0,0.0,0.0,0.0,0.0,0.0,0.0,0.0,0.0,0.0,0.0,0.0,0.0,0.0,0.0,0.0,0.0,0.0,0.0,0.0,0.0,0.0,0.0,0.0,0.0,0.0,0.0,0.0,0.0,0.0,0.0,0.0,0.0,0.0,0.0,0.0,0.0,0.0,0.0,0.0,0.0,0.0,0.0,0.0,0.0,0.0,0.0,0.0,0.0,0.0,0.0,0.0,0.0,0.0,0.0,0.0,0.0,0.0,0.0,0.0,0.0,0.0,0.0,0.0,0.0,0.0,0.0,0.0,0.0,0.0,0.0,0.0,0.0,0.0,0.0,0.0,0.0,0.0,0.0,0.0,0.0,0.0,0.0,0.0,0.0,0.0,0.0,0.0,0.0,0.0,0.0,0.0,0.0,0.0,0.0,0.0,0.0,0.0,0.0,0.0,0.0,0.0,0.0,0.0,0.0,0.0,0.0,0.0,0.0,0.0,0.0,0.0,0.0,0.0,0.0,0.0,0.0,0.0,0.0,0.0,0.0,0.0,0.0,0.0,0.0,0.0,0.0,0.0,0.0,0.0,0.0,0.0,0.0,0.0,0.0,0.0,0.0,0.0,0.0,0.0,0.0,0.0,0.0,0.0,0.0,0.0,0.0,0.0,0.0,0.0,0.0,0.0,0.0,0.0,0.0,0.0,0.0,0.0,0.0,0.0,0.0,0.0,0.0,0.0,0.0,0.0,0.0,0.0,0.0,0.0,0.0,0.0,0.0,0.0,0.0,0.0,0.0,0.0,0.0,0.0,0.0,0.0,0.0,0.0,0.0,0.0,0.0,0.0,0.0,0.0,0.0,0.0,0.0,0.0,0.0,0.0,0.0,0.0,0.0,0.0,0.0,0.0,0.0,0.0,0.0,0.0,0.0,0.0,0.0,0.0,0.0,0.0,0.0,0.0,0.0,0.0,0.0,0.0,0.0,0.0,0.0,0.0,0.0,0.0,0.0,0.0,0.0,0.0,0.0,0.0,0.0,0.0,0.0,0.0,0.0,0.0,0.0,0.0,0.0,0.0,0.0,0.0,0.0,0.0,0.0,0.0,0.0,0.0,0.0,0.0,0.0,0.0,0.0,0.0,0.0,0.0,0.0,0.0,0.0,0.0,0.0,0.0,0.0,0.0,0.0,0.0,0.0,0.0,0.0,0.0,0.0,0.0,0.0,0.0,0.0,0.0,0.0,0.0,0.0,0.0,0.0,0.0,0.0,0.0,0.0,0.0,0.0,0.0,0.0,0.0,0.0,0.0,0.0,0.0,0.0,0.0,0.0,0.0,0.0,0.0,0.0,0.0,0.0,0.0,0.0,0.0,0.0,0.0,0.0,0.0,0.0,0.0,0.0,0.0,0.0,0.0,0.0,0.0,0.0,0.0,0.0,0.0,0.0,0.0,0.0,0.0,0.0,0.0,0.0,0.0,0.0,0.0,0.0,0.0,0.0,0.0,0.0,0.0,0.0,0.0,0.0,0.0,0.0,0.0,0.0,0.0,0.0,0.0,0.0,0.0,0.0,0.0,0.0,0.0,0.0,0.0,0.0,0.0,0.0,0.0,0.0,0.0,0.0,0.0,0.0,0.0,0.0,0.0,0.0,0.0,0.0,0.0,0.0,0.0,0.0,0.0,0.0,0.0,0.0,0.0,0.0,0.0,0.0,0.0,0.0,0.0,0.0,0.0,0.0,0.0,0.0,0.0,0.0,0.0,0.0,0.0,0.0,0.0,0.0,0.0,0.0,0.0,0.0,0.0,0.0,0.0,0.0,0.0,0.0,0.0,0.0,0.0,0.0,0.0,0.0,0.0,0.0,0.0,0.0,0.0,0.0,0.0,0.0,0.0,0.0,0.0,0.0,0.0,0.0,0.0,0.0,0.0,0.0,0.0,0.0,0.0,0.0,0.0,0.0,0.0,0.0,0.0,0.0,0.0,0.0,0.0,0.0,0.0,0.0,0.0,0.0,0.0,0.0,0.0,0.0,0.0,0.0,0.0,0.0,0.0,0.0,0.0,0.0,0.0,0.0,0.0,0.0,0.0,0.0,0.0,0.0,0.0,0.0,0.0,0.0,0.0,0.0,0.0,0.0,0.0,0.0,0.0,0.0,0.0,0.0,0.0,0.0,0.0,0.0,0.0,0.0,0.0,0.0,0.0,0.0,0.0,0.0,0.0,0.0,0.0,0.0,0.0,0.0,0.0,0.0,0.0,0.0,0.0,0.0,0.0,0.0,0.0,0.0,0.0,0.0,0.0,0.0,0.0,0.0,0.0,0.0,0.0,0.0,0.0,0.0,0.0,0.0,0.0,0.0,0.0,0.0,0.0,0.0,0.0,0.0,0.0,0.0,0.0,0.0,0.0,0.0,0.0,0.0,0.0,0.0,0.0,0.0,0.0,0.0,0.0,0.0,0.0,0.0,0.0,0.0,0.0,0.0,0.0,0.0,0.0,0.0,0.0,0.0,0.0,0.0,0.0,0.0,0.0,0.0,0.0,0.0,0.0,0.0,0.0,0.0,0.0,0.0,0.0,0.0,0.0,0.0,0.0,0.0,0.0,0.0,0.0,0.0,0.0,0.0,0.0,0.0,0.0,0.0,0.0,0.0,0.0,0.0,0.0,0.0,0.0,0.0,0.0,0.0,0.0,0.0,0.0,0.0,0.0,0.0,0.0,0.0,0.0,0.0,0.0,0.0,0.0,0.0,0.0,0.0,0.0,0.0,0.0,0.0,0.0,0.0,0.0,0.0,0.0,0.0,0.0,0.0,0.0,0.0,0.0,0.0,0.0,0.0,0.0,0.0,0.0,0.0,0.0,0.0,0.0,0.0,0.0,0.0,0.0,0.0,0.0,0.0,0.0,0.0,0.0,0.0,0.0,0.0,0.0,0.0,0.0,0.0,0.0,0.0,0.0,0.0,0.0,0.0,0.0,0.0,0.0,0.0,0.0,0.0,0.0,0.0,0.0,0.0,0.0,0.0,0.0,0.0,0.0,0.0,0.0,0.0,0.0,0.0,0.0,0.0,0.0,0.0,0.0,0.0,0.0,0.0,0.0,0.0,0.0,0.0,0.0,0.0,0.0,0.0,0.0,0.0,0.0,0.0,0.0,0.0,0.0,0.0,0.0,0.0,0.0,0.0,0.0,0.0,0.0,0.0,0.0,0.0,0.0,0.0,0.0,0.0,0.0,0.0,0.0,0.0,0.0,0.0,0.0,0.0,0.0,0.0,0.0,0.0,0.0,0.0,0.0,0.0,0.0,0.0,0.0,0.0,0.0,0.0,0.0,0.0,0.0,0.0,0.0,0.0,0.0,0.0,0.0,0.0,0.0,0.0,0.0,0.0,0.0,0.0,0.0,0.0,0.0,0.0,0.0,0.0,0.0,0.0,0.0,0.0,0.0,0.0,0.0,0.0,0.0,0.0,0.0,0.0,0.0,0.0,0.0,0.0,0.0,0.0,0.0,0.0,0.0,0.0,0.0,0.0,0.0,0.0,0.0,0.0,0.0,0.0,0.0,0.0,0.0,0.0,0.0,0.0,0.0,0.0,0.0,0.0,0.0,0.0,0.0,0.0,0.0,0.0,0.0,0.0,0.0,0.0,0.0,0.0,0.0,0.0,0.0,0.0,0.0,0.0,0.0,0.0,0.0,0.0,0.0,0.0,0.0,0.0,0.0,0.0,0.0,0.0,0.0,0.0,0.0,0.0,0.0,0.0,0.0,0.0,0.0,0.0,0.0,0.0,0.0,0.0,0.0,0.0,0.0,0.0,0.0,0.0,0.0,0.0,0.0,0.0,0.0,0.0,0.0,0.0,0.0,0.0,0.0,0.0,0.0,0.0,0.0,0.0,0.0,0.0,0.0,0.0,0.0,0.0,0.0,0.0,0.0,0.0,0.0,0.0,0.0,0.0,0.0,0.0,0.0,0.0,0.0,0.0,0.0,0.0,0.0,0.0,0.0,0.0,0.0,0.0,0.0,0.0,0.0,0.0,0.0,0.0,0.0,0.0,0.0,0.0,0.0,0.0,0.0,0.0,0.0,0.0,0.0,0.0,0.0,0.0,0.0,0.0,0.0,0.0,0.0,0.0,0.0,0.0,0.0,0.0,0.0,0.0,0.0,0.0,0.0,0.0,0.0,0.0,0.0,0.0,0.0,0.0,0.0,0.0,0.0,0.0,0.0,0.0,0.0,0.0,0.0,0.0,0.0,0.0,0.0,0.0,0.0,0.0,0.0,0.0,0.0,0.0,0.0,0.0,0.0,0.0,0.0,0.0,0.0,0.0,0.0,0.0,0.0,0.0,0.0,0.0,0.0,0.0,0.0,0.0,0.0,0.0,0.0,0.0,0.0,0.0,0.0,0.0,0.0,0.0,0.0,0.0,0.0,0.0,0.0,0.0,0.0,0.0,0.0,0.0,0.0,0.0,0.0,0.0,0.0,0.0,0.0,0.0,0.0,0.0,0.0,0.0,0.0,0.0,0.0,0.0,0.0,0.0,0.0,0.0,0.0,0.0,0.0,0.0,0.0,0.0,0.0,0.0,0.0,0.0,0.0,0.0,0.0,0.0,0.0,0.0,0.0,0.0,0.0,0.0,0.0,0.0,0.0,0.0,0.0,0.0,0.0,0.0,0.0,0.0,0.0,0.0,0.0,0.0,0.0,0.0,0.0,0.0,0.0,0.0,0.0,0.0,0.0,0.0,0.0,0.0,0.0,0.0,0.0,0.0,0.0,0.0,0.0,0.0,0.0,0.0,0.0,0.0,0.0,0.0,0.0,0.0,0.0,0.0,0.0,0.0,0.0,0.0,0.0,0.0,0.0,0.0,0.0,0.0,0.0,0.0,0.0,0.0,0.0,0.0,0.0,0.0,0.0,0.0,0.0,0.0,0.0,0.0,0.0,0.0,0.0,0.0,0.0,0.0,0.0,0.0,0.0,0.0,0.0,0.0,0.0,0.0,0.0,0.0,0.0,0.0,0.0,0.0,0.0,0.0,0.0,0.0,0.0,0.0,0.0,0.0,0.0,0.0,0.0,0.0,0.0,0.0,0.0,0.0,0.0,0.0,0.0,0.0,0.0,0.0,0.0,0.0,0.0,0.0,0.0,0.0,0.0,0.0,0.0,0.0,0.0,0.0,0.0,0.0,0.0,0.0,0.0,0.0,0.0,0.0,0.0,0.0,0.0,0.0,0.0,0.0,0.0,0.0,0.0,0.0,0.0,0.0,0.0,0.0,0.0,0.0,0.0,0.0,0.0,0.0,0.0,0.0,0.0,0.0,0.0,0.0,0.0,0.0,0.0,0.0,0.0,0.0,0.0,0.0,0.0,0.0,0.0,0.0,0.0,0.0,0.0,0.0,0.0,0.0,0.0,0.0,0.0,0.0,0.0,0.0,0.0,0.0,0.0,0.0,0.0,0.0,0.0,0.0,0.0,0.0,0.0,0.0,0.0,0.0,0.0,0.0,0.0,0.0,0.0,0.0,0.0,0.0,0.0,0.0,0.0,0.0,0.0,0.0,0.0,0.0,0.0,0.0,0.0,0.0,0.0,0.0,0.0,0.0,0.0,0.0,0.0,0.0,0.0,0.0,0.0,0.0,0.0,0.0,0.0,0.0,0.0,0.0,0.0,0.0,0.0,0.0,0.0,-0.3302,-0.2687,0.0,0.0,0.0,0.0,0.0,0.0,0.0,0.0,0.0,0.0,0.0,0.0,0.0,0.0,0.0,0.0,0.0,0.0,0.0,0.0,0.0,0.0,0.0,-0.1283,-0.1206,-0.1364,-0.1266,-0.1182,-0.1193,0.0,0.0,0.0,0.0,0.0,-0.0897,-0.0897,-0.0939,-0.0998,-0.0998,-0.0864,-0.0627,-0.0724,-0.0237,0.0752,0.0,0.0,0.0,0.0,0.0,0.0,0.0,0.0,0.0,0.0,0.0,0.0,0.0,0.0,0.0,0.0,0.0,0.0,0.0,0.0,0.0,0.0,0.0,0.0,0.0,0.0,0.0,0.0,0.0,0.0,0.0,0.0,0.0,0.0,0.0,0.0,0.0,0.0,0.0,0.0,0.0,0.0,0.0,0.0,0.0,0.0,0.0,0.0,0.0,0.0,0.0,0.0,0.0,0.0,0.0,0.0,0.0,0.0,0.0,0.0,0.0,0.0,0.0,0.0,0.0,0.0,0.0,0.0,0.0,0.0,-0.5161,-0.4408,0.0,0.0,0.0,0.0,0.0,0.0,0.0,0.0,0.0,0.0,0.0,0.0,0.0,0.0,0.0,0.0,0.0,0.0,0.0,0.0,0.0,-0.186,-0.1823,-0.1626,-0.1615,-0.1941,-0.174,-0.1592,-0.1557,-0.1525,0.0,0.0,0.0,-0.0999,-0.0999,-0.1095,-0.1158,-0.1193,-0.1043,-0.1028,-0.1147,-0.1173,-0.0582,0.0487,0.0116,0.0,0.0,0.0,0.0,0.0,0.0,0.0,0.0,0.0,0.0,0.0,0.0,0.0,0.0,0.0,0.0,0.0,0.0,0.0,0.0,0.0,0.0,0.0,0.0,0.0,0.0,0.0,0.0,0.0,0.0,0.0,0.0,0.0,0.0,0.0,0.0,0.0,0.0,0.0,0.0,0.0,0.0,0.0,0.0,0.0,0.0,0.0,0.0,0.0,0.0,0.0,0.0,0.0,0.0,0.0,0.0,0.0,0.0,0.0,0.0,0.0,0.0,0.0,-0.713,-0.7209,-0.7331,-0.7331,-0.7903,-0.8826,-0.7402,-0.6596,-0.6224,-0.512,0.0,0.0,0.0,0.0,0.0,0.0,0.0,0.0,0.0,0.0,0.0,0.0,0.0,0.0,0.0,0.0,0.0,0.0,0.0,-0.219,-0.229,-0.2021,-0.1946,-0.2218,-0.2109,-0.1951,-0.1766,-0.1592,0.0,0.0,-0.1264,-0.1414,-0.1414,-0.1883,-0.1929,-0.1529,-0.083,-0.0511,-0.0524,-0.0628,-0.0535,-0.0273,-0.0845,-0.1089,-0.1038,0.0,0.0,0.0,0.0,0.0,0.0,0.0,0.0,0.0,0.0,0.0,0.0,0.0,0.0,0.0,0.0,0.0,0.0,0.0,0.0,0.0,0.0,0.0,0.0,0.0,0.0,0.0,0.0,0.0,0.0,0.0,0.0,0.0,0.0,0.0,0.0,0.0,0.0,0.0,0.0,0.0,-0.4439,-0.4645,0.0,0.0,0.0,0.0,0.0,0.0,0.0,0.0,0.0,0.0,0.0,0.0,0.0,-0.914,-0.9695,-0.9953,-1.0136,-1.0313,-1.0457,-1.057,-1.0583,-1.0583,-1.0743,-1.0999,-1.0763,0.0,-0.792,-0.8329,0.0,0.0,0.0,0.0,0.0,0.0,0.0,0.0,0.0,0.0,0.0,0.0,0.0,0.0,0.0,0.0,0.0,0.0,0.0,0.0,0.0,-0.2623,-0.2656,-0.301,-0.2935,-0.2762,-0.2434,-0.2373,-0.2131,-0.1639,-0.1757,-0.1753,-0.1554,-0.1815,-0.1841,-0.1609,-0.1313,-0.1175,-0.1192,-0.1253,-0.1232,-0.1203,-0.1458,-0.1468,-0.1279,-0.1019,0.0,0.0,0.0,0.0,0.0,0.0,0.0,0.0,0.0,0.0,0.0,0.0,0.0,0.0,0.0,0.0,0.0,0.0,0.0,0.0,0.0,0.0,0.0,0.0,0.0,0.0,0.0,0.0,0.0,0.0,0.0,0.0,0.0,0.0,0.0,0.0,0.0,0.0,0.0,-0.5609,-0.6429,-0.6371,-0.6893,-0.7074,0.0,0.0,0.0,0.0,0.0,0.0,0.0,0.0,0.0,-1.0141,-1.0392,-1.0717,-1.1145,-1.1369,-1.1552,-1.1701,-1.1769,-1.1873,-1.1918,-1.1918,-1.1952,-1.2013,-1.2013,-1.1404,-1.0346,-0.9507,-0.8971,-0.8616,0.0,0.0,0.0,0.0,-0.8838,-0.8879,0.0,0.0,0.0,0.0,0.0,0.0,0.0,0.0,0.0,0.0,0.0,0.0,-0.3173,-0.3205,-0.3362,-0.3746,-0.3676,-0.346,-0.3148,-0.3055,-0.277,-0.2259,-0.2266,-0.218,-0.1993,-0.2169,-0.2273,-0.2283,-0.2297,-0.2303,-0.2314,-0.2155,-0.2073,-0.2073,-0.1894,-0.1662,-0.1434,-0.1373,-0.1257,-0.1126,0.0,0.0,0.0,0.0,0.0,0.0,0.0,0.0,0.0,0.0,0.0,0.0,0.0,0.0,0.0,0.0,0.0,0.0,0.0,0.0,0.0,0.0,0.0,0.0,0.0,0.0,0.0,0.0,0.0,0.0,0.0,0.0,0.0,0.0,0.0,0.0,0.0,-0.7165,-0.8033,-0.7957,-0.8404,-0.8512,0.0,0.0,0.0,0.0,0.0,0.0,-1.0032,-1.0312,-1.0732,-1.1293,-1.1558,-1.1816,-1.2115,-1.2343,-1.2536,-1.2615,-1.2769,-1.2863,-1.2968,-1.2968,-1.289,-1.2773,-1.2929,-1.2726,-1.2216,-1.0547,-1.0139,-1.0427,-0.9255,-0.9206,-0.9754,-0.9981,-1.0035,-1.0073,0.0,0.0,0.0,0.0,0.0,0.0,0.0,0.0,0.0,0.0,0.0,-0.3181,-0.345,-0.3642,-0.3887,-0.4234,-0.4025,-0.3839,-0.3758,-0.3287,-0.2865,-0.2582,-0.2699,-0.2853,-0.3025,-0.3525,-0.3919,-0.4163,-0.385,-0.37,-0.3676,-0.3119,-0.2846,-0.2817,-0.211,-0.1797,-0.1771,-0.1573,-0.1491,-0.1458,-0.1198,0.0,0.0,0.0,0.0,0.0,0.0,0.0,0.0,0.0,0.0,0.0,0.0,0.0,0.0,0.0,0.0,0.0,0.0,0.0,0.0,0.0,0.0,0.0,0.0,0.0,0.0,0.0,0.0,0.0,0.0,0.0,0.0,0.0,0.0,0.0,0.0,0.0,0.0,-0.8845,-0.9487,0.0,0.0,0.0,0.0,-0.9893,-1.0333,-1.0819,-1.1274,-1.1543,-1.1915,-1.2406,-1.244,-1.2596,-1.2941,-1.334,-1.3547,-1.3554,-1.3992,-1.4199,-1.4206,-1.4206,-1.3967,-1.3561,-1.4007,-1.372,-1.2907,-1.2244,-1.164,-1.1152,-1.1084,-1.0867,-1.0637,-1.0799,-1.0975,-1.1125,0.0,0.0,0.0,0.0,0.0,-0.245,-0.2663,-0.2705,-0.2703,-0.2736,-0.2981,-0.3266,-0.3534,-0.3895,-0.4227,-0.4478,-0.4491,-0.4373,-0.4129,-0.3826,-0.3598,-0.3504,-0.3374,-0.3404,-0.3614,-0.3676,-0.3832,-0.4098,-0.4085,-0.406,-0.4029,-0.3364,-0.3028,-0.3028,-0.2764,-0.2377,-0.1913,-0.1714,-0.1579,-0.1495,-0.1397,-0.1238,0.0,0.0,0.0,0.0,0.0,0.0,0.0,0.0,0.0,0.0,0.0,0.0,0.0,0.0,0.0,0.0,0.0,0.0,0.0,0.0,0.0,0.0,0.0,0.0,0.0,0.0,0.0,0.0,0.0,0.0,0.0,0.0,0.0,0.0,0.0,0.0,0.0,-0.9917,-1.0514,0.0,-1.0319,-1.0582,-1.0974,-1.1446,-1.1558,-1.188,-1.2499,-1.2635,-1.2813,-1.3071,-1.3596,-1.3915,-1.4034,-1.4452,-1.4703,-1.4703,-1.487,-1.4953,-1.4946,-1.4799,-1.4664,-1.4492,-1.4545,-1.4157,-1.3496,-1.3417,-1.2904,-1.2155,-1.1965,-1.1877,-1.1864,-1.1823,-1.1904,-1.2013,0.0,0.0,0.0,0.0,-0.2523,-0.245,-0.2663,-0.2705,-0.275,-0.2854,-0.314,-0.3469,-0.3798,-0.4202,-0.4496,-0.4647,-0.4716,-0.4679,-0.4491,-0.4233,-0.4115,-0.4126,-0.4034,-0.4066,-0.426,-0.4263,-0.4392,-0.4607,-0.4728,-0.4781,-0.4763,-0.4031,-0.3712,-0.368,-0.327,-0.2805,-0.2323,-0.1967,-0.172,-0.1596,-0.156,-0.1437,-0.1269,0.0,0.0,0.0,0.0,0.0,0.0,0.0,0.0,0.0,0.0,0.0,0.0,0.0,0.0,0.0,0.0,0.0,0.0,0.0,0.0,0.0,0.0,0.0,0.0,0.0,0.0,0.0,0.0,0.0,0.0,0.0,0.0,0.0,0.0,0.0,-1.0446,-1.0889,-1.1587,-1.1921,-1.1699,-1.2072,-1.2514,-1.302,-1.3015,-1.3269,-1.3862,-1.3895,-1.395,-1.4055,-1.4557,-1.4835,-1.4835,-1.5263,-1.5519,-1.5519,-1.5647,-1.5732,-1.5732,-1.5609,-1.5428,-1.5294,-1.5348,-1.4912,-1.4242,-1.4517,-1.4136,-1.3328,-1.2802,-1.2617,-1.2644,-1.2549,-1.2576,-1.2644,0.0,0.0,0.0,-0.2701,-0.2701,-0.2705,-0.2701,-0.2701,-0.2817,-0.316,-0.344,-0.3778,-0.4246,-0.4545,-0.4716,-0.4801,-0.4736,-0.4724,-0.4805,-0.4476,-0.434,-0.4411,-0.4598,-0.481,-0.5015,-0.5394,-0.5666,-0.5824,-0.5884,-0.5902,-0.5902,-0.5221,-0.4909,-0.4844,-0.3614,-0.3053,-0.2994,-0.2332,-0.1986,-0.1829,-0.1678,-0.1602,-0.1578,0.0,0.0,0.0,0.0,0.0,0.0,0.0,0.0,0.0,0.0,0.0,0.0,0.0,0.0,0.0,0.0,0.0,0.0,0.0,0.0,0.0,0.0,0.0,0.0,0.0,0.0,0.0,0.0,0.0,0.0,0.0,0.0,0.0,-0.9813,-1.0432,-1.1221,-1.1822,-1.2697,-1.3237,-1.3265,-1.3793,-1.4226,-1.4523,-1.4728,-1.4961,-1.5298,-1.532,-1.5328,-1.5328,-1.5335,-1.5335,-1.5335,-1.5755,-1.5961,-1.5961,-1.6395,-1.6609,-1.6609,-1.6592,-1.6371,-1.5937,-1.6406,-1.6013,-1.5058,-1.5528,-1.5302,-1.4631,-1.3643,-1.3172,-1.3056,-1.305,-1.305,-1.305,0.0,0.0,-0.2684,-0.2632,-0.2673,-0.2684,-0.2628,-0.2673,-0.2797,-0.3091,-0.34,-0.3753,-0.4186,-0.4508,-0.4716,-0.4801,-0.4789,-0.4785,-0.4809,-0.4476,-0.4369,-0.4528,-0.487,-0.5183,-0.5427,-0.5647,-0.5851,-0.6103,-0.6161,-0.6239,-0.6304,-0.5584,-0.5226,-0.5107,-0.4755,-0.4261,-0.3718,-0.358,-0.3187,-0.2622,-0.2037,-0.172,-0.1596,0.0,0.0,0.0,0.0,0.0,0.0,0.0,0.0,0.0,0.0,0.0,0.0,0.0,0.0,0.0,0.0,0.0,0.0,0.0,0.0,0.0,0.0,0.0,0.0,0.0,0.0,0.0,0.0,0.0,0.0,0.0,-1.1376,-1.206,-1.163,-1.2301,-1.3052,-1.3571,-1.3924,-1.4238,-1.4463,-1.4676,-1.4946,-1.5493,-1.5309,-1.5388,-1.5902,-1.5728,-1.5666,-1.5786,-1.6224,-1.6464,-1.6464,-1.6902,-1.7125,-1.7125,-1.7182,-1.7169,-1.7153,-1.6901,-1.6693,-1.6556,-1.659,-1.6254,-1.5655,-1.5782,-1.5547,-1.5083,-1.4392,-1.4193,-1.4203,-1.4135,-1.4091,-1.4091,0.0,-0.2575,-0.2657,-0.264,-0.2653,-0.2657,-0.264,-0.2672,-0.2844,-0.3213,-0.3507,-0.385,-0.4314,-0.4594,-0.4744,-0.4757,-0.4789,-0.4777,-0.4728,-0.4634,-0.4663,-0.4847,-0.5183,-0.5671,-0.6341,-0.6487,-0.6881,-0.7549,-0.7582,-0.7647,-0.7711,-0.7285,-0.7024,-0.6969,-0.6749,-0.6349,-0.583,-0.5575,-0.521,-0.4724,-0.4215,-0.3081,-0.1716,-0.17,-0.195,-0.2337,-0.2229,-0.2531,-0.3047,-0.3531,0.0,0.0,0.0,0.0,0.0,0.0,0.0,0.0,0.0,0.0,0.0,0.0,0.0,0.0,0.0,0.0,0.0,0.0,0.0,0.0,0.0,0.0,0.0,0.0,-1.2774,-1.3664,-1.3604,-1.3784,-1.4117,-1.4708,-1.4914,-1.5161,-1.5639,-1.5662,-1.5891,-1.6391,-1.6199,-1.6265,-1.6772,-1.6609,-1.6532,-1.6669,-1.7004,-1.7195,-1.7195,-1.7459,-1.7595,-1.7595,-1.7543,-1.7494,-1.7486,-1.723,-1.7101,-1.7071,-1.6966,-1.6655,-1.6261,-1.6261,-1.6093,-1.5779,0.0,0.0,0.0,0.0,-1.4579,-1.4579,0.0,-0.2441,-0.2629,-0.2664,-0.2636,-0.2633,-0.268,-0.2697,-0.2902,-0.343,-0.3661,-0.3973,-0.4523,-0.4704,-0.4752,-0.4712,-0.4761,-0.4752,-0.4667,-0.4888,-0.5136,-0.54,-0.5672,-0.6364,-0.757,-0.7732,-0.8343,-0.9423,-0.9423,-0.943,-0.941,-0.941,-0.9404,-0.9391,-0.8966,-0.8687,-0.8486,-0.7835,-0.7478,-0.7302,-0.7062,-0.5139,-0.2434,-0.2394,-0.311,-0.4098,-0.389,-0.4511,-0.5433,-0.5246,0.0,0.0,0.0,0.0,0.0,0.0,0.0,0.0,0.0,0.0,0.0,0.0,0.0,0.0,0.0,0.0,0.0,0.0,0.0,0.0,0.0,0.0,0.0,0.0,-1.4274,-1.5278,-1.5729,-1.5244,-1.5012,-1.5487,-1.5701,-1.6042,-1.6625,-1.6641,-1.6787,-1.7145,-1.7169,-1.7315,-1.7611,-1.7643,0.0,0.0,0.0,-1.7676,-1.7651,-1.7651,-1.7651,-1.7651,-1.7635,-1.7627,-1.7627,-1.7603,-1.7559,-1.7421,-1.7421,-1.7234,-1.6898,-1.6882,-1.6752,-1.6507,-1.5547,-1.5134,-1.5112,-1.4905,-1.4837,-1.4837,0.0,-0.2612,-0.2639,-0.2482,-0.2576,-0.2673,-0.2629,-0.2669,-0.2902,-0.343,-0.3589,-0.3839,-0.4379,-0.4557,-0.4647,-0.4704,-0.4761,-0.4858,-0.4998,-0.5094,-0.5599,-0.6604,-0.6956,-0.7637,-0.8748,-0.896,-0.92,-0.9469,-0.9469,-0.9525,-0.9563,-0.9563,-0.9541,-0.9469,-0.9396,-0.9343,-0.9343,-0.8719,-0.8355,-0.8119,-0.7545,-0.671,-0.5877,-0.5954,-0.6067,-0.6167,-0.6252,-0.6371,-0.6556,-0.7344,-0.7353,-0.716,-0.7876,-0.7838,0.0,0.0,0.0,0.0,0.0,0.0,0.0,0.0,0.0,0.0,0.0,0.0,0.0,0.0,0.0,0.0,0.0,0.0,0.0,-1.6067,-1.6056,-1.6376,-1.8018,-1.8293,-1.784,-1.6505,-1.6376,-1.6572,-1.6974,-1.7006,-1.7153,-1.7465,-1.7489,-1.7587,-1.7851,-1.7997,-1.807,-1.807,-1.8217,-1.8271,-1.807,-1.807,-1.807,-1.807,-1.7932,0.0,-1.7859,-1.766,-1.7578,-1.7546,-1.7546,-1.7506,-1.7433,-1.7339,-1.7096,-1.6728,-1.6227,-1.6057,-1.6033,-1.5816,-1.5752,-1.5752,-0.2528,-0.2587,-0.2636,-0.2564,-0.2606,-0.2649,-0.2649,-0.2676,-0.2885,-0.3386,-0.3507,-0.3749,-0.4285,-0.441,-0.4455,-0.45,-0.4562,-0.4744,-0.5088,-0.5665,-0.6383,-0.7225,-0.792,-0.8882,-1.0072,-1.021,-1.0543,-1.1152,-1.1152,-1.1162,-1.1207,-1.1207,-1.1165,-1.1159,-1.1263,-1.1256,-1.1192,-1.1,-1.078,-1.057,-1.0038,-0.974,-0.9351,-0.7622,-0.728,-0.7749,-0.7781,-0.8165,-0.872,-0.9068,-0.9037,-0.8913,-0.925,-0.9147,-0.8783,0.0,0.0,0.0,0.0,0.0,0.0,0.0,0.0,0.0,0.0,0.0,0.0,0.0,0.0,-1.3692,0.0,0.0,-1.6498,-1.8967,-1.8385,-1.8356,-2.0355,-2.078,-2.0174,-1.8322,-1.9044,-1.9392,-1.8655,-1.877,-1.8552,-1.7799,-1.7859,-1.7989,-1.8176,-1.8355,-1.8452,-1.8452,-1.8541,-1.8541,-1.8452,-1.8452,-1.8452,-1.8452,-1.8363,-1.8273,-1.8184,-1.8087,-1.7949,-1.7732,-1.7732,-1.7684,-1.7578,-1.7461,-1.7283,-1.7044,-1.6679,-1.6519,-1.6422,-1.6243,-1.6137,-1.612,-0.2474,-0.2532,-0.2624,-0.2668,-0.2644,-0.2632,-0.2692,-0.2705,-0.2861,-0.3296,-0.3401,-0.3638,-0.414,-0.4302,-0.4375,-0.4447,-0.4603,-0.4901,-0.5394,-0.6459,-0.7394,-0.8061,-0.8945,-1.0051,-1.1361,-1.1431,-1.1871,-1.2807,-1.2807,-1.2823,-1.2856,-1.2856,-1.2872,-1.2913,-1.3051,-1.3035,-1.2921,-1.3092,-1.3043,-1.2823,-1.2507,-1.2369,-1.1964,-0.8982,-0.8485,-0.9364,-0.928,-0.9907,-1.0753,-1.0509,-1.0379,-1.0288,-1.0107,-1.0035,-0.9878,-0.9028,-0.8995,0.0,0.0,0.0,0.0,0.0,0.0,0.0,0.0,0.0,-1.3194,-1.3972,-1.564,-1.7131,-1.7771,-1.8268,-1.9352,-2.1713,-2.0869,-2.0609,-2.2702,-2.2989,-2.2437,-2.0903,-2.1999,-2.2317,-2.0842,-2.1012,-2.0667,-1.928,-1.9343,-1.9517,-1.9707,-1.9906,-1.9945,-1.9911,-1.9937,-1.9945,-1.9902,-1.9902,-1.9902,-1.9902,-1.948,-1.926,-1.9109,-1.8705,-1.8345,-1.8022,-1.7981,-1.7822,-1.7635,-1.751,-1.7421,-1.7356,-1.6987,-1.6768,-1.6657,-1.6438,-1.6332,-1.6284,0.0,-0.264,-0.2668,-0.2621,-0.2657,-0.2692,-0.2705,-0.2705,-0.2821,-0.3176,-0.3233,-0.3384,-0.3801,-0.4278,-0.4685,-0.4979,-0.5447,-0.599,-0.6568,-0.7573,-0.8771,-1.0194,-1.0468,-1.1178,-1.2395,-1.2555,-1.2684,-1.2807,-1.2807,-1.288,-1.3068,-1.3068,-1.3157,-1.3337,-1.3157,-1.3173,-1.3311,-1.337,-1.3238,-1.3051,-1.2823,-1.2556,-1.2209,-1.1524,-1.133,-1.1482,-1.1578,-1.1526,-1.1428,-1.1557,-1.1379,-1.1101,-1.125,-1.1094,-1.0774,-1.0324,-0.988,-0.9599,-0.9884,-1.0363,-1.1276,-1.3348,-1.4012,-1.4945,0.0,0.0,-1.8532,-1.9494,-2.0032,-2.0505,-2.1007,-2.1222,-2.208,-2.4312,-2.3182,-2.2755,-2.4791,-2.5082,-2.4996,-2.4783,-2.3746,-2.3031,-2.2968,-2.3247,-2.3521,-2.3746,-2.3799,-2.3914,-2.4193,-2.4367,-2.4398,-2.4198,-2.4388,-2.4388,-2.4198,-2.4188,-2.4188,-2.4198,-2.2353,-2.145,-2.1374,-1.9419,-1.8475,-1.8434,-1.8217,-1.8046,-1.7875,-1.7643,-1.7526,-1.7364,-1.7161,-1.7071,-1.7015,-1.6674,-1.6446,-1.63,0.0,-0.2657,-0.2692,-0.2669,-0.268,-0.2705,-0.2705,-0.2705,-0.2795,-0.305,-0.3115,-0.3381,-0.4013,-0.4596,-0.5098,-0.5481,-0.6003,-0.6591,-0.722,-0.851,-0.9643,-1.0569,-1.1289,-1.1964,-1.2588,-1.2743,-1.2807,-1.2807,-1.2807,-1.2888,-1.3092,-1.3092,-1.3197,-1.3394,-1.3173,-1.3133,-1.3214,-1.3362,-1.3362,-1.3264,-1.2921,-1.2718,-1.2524,-1.1987,-1.1638,-1.1459,-1.1503,-1.1533,0.0,-1.1375,-1.1273,-1.1203,-1.1313,-1.1492,-1.1524,-1.0671,-1.1389,-1.2673,-1.3471,-1.4045,-1.475,-1.6066,-1.6825,-1.7725,-1.942,-1.9915,-2.0168,-2.09,-2.2151,-2.315,-2.3371,-2.369,-2.4585,0.0,-2.5665,-2.5287,-2.7025,-2.7281,-2.7153,-2.6764,-2.6484,-2.5936,-2.5002,-2.5211,-2.5116,-2.4562,-2.4621,-2.4804,-2.5042,-2.528,-2.5318,-2.5269,-2.5308,-2.5318,-2.5269,-2.5269,-2.5269,-2.5221,-2.4358,-2.3279,-2.1963,-2.1026,-1.9824,-1.8491,-1.8304,-1.8778,-1.9655,-1.8326,-1.8428,-1.9221,-1.7817,-1.7274,-1.7226,-1.6868,-1.6647,-1.655,0.0,-0.2605,-0.2705,-0.2705,-0.2705,-0.2705,-0.2705,-0.2705,-0.2828,-0.3175,-0.3259,-0.3649,-0.4565,-0.4913,-0.5309,-0.5865,-0.6433,-0.7074,-0.784,-0.9299,-1.0368,-1.0911,-1.1799,-1.2385,-1.2588,-1.2743,-1.2807,-1.2807,-1.2807,-1.2888,-1.3092,-1.3092,-1.3197,-1.3394,-1.3173,-1.3092,-1.3108,-1.3329,-1.3345,-1.3197,-1.2904,-1.2742,-1.2588,-1.1955,-1.1476,-1.1151,-1.1151,-1.1143,-1.1094,-1.0862,-1.1081,-1.1484,-1.1507,-1.2162,-1.2743,-1.1973,-1.3345,-1.5261,-1.6071,-1.6777,-1.7587,-1.8675,-1.9655,-2.056,-2.1487,-2.203,-2.2467,-2.3034,-2.433,-2.5462,-2.5496,-2.582,-2.6525,-2.8074,-2.7543,-2.7327,-2.8522,-2.8577,-2.8283,-2.7762,-2.8083,-2.7902,-2.6766,-2.7045,-2.7014,-2.6283,-2.6398,-2.6582,-2.6951,-2.7147,-2.7203,-2.7203,-2.7203,-2.7203,-2.7203,-2.7203,-2.7203,-2.7214,-2.6624,-2.5464,-2.386,-2.3222,-2.1916,-2.0173,-2.0022,-2.0658,-2.1748,-1.9575,-1.9541,-2.0571,-1.8273,-1.7388,-1.7348,-1.6995,-1.6849,-1.6768,0.0,0.0,-0.2705,-0.2705,-0.2705,-0.2705,-0.2705,-0.2705,-0.2952,-0.3676,-0.3783,-0.4232,-0.543,-0.5116,-0.5181,-0.6108,-0.679,-0.7577,-0.8516,-0.9883,-1.1001,-1.1722,-1.2117,-1.2385,-1.2588,-1.2743,-1.2807,-1.2807,-1.2807,-1.2888,-1.3092,-1.3092,-1.3197,-1.3394,-1.3173,-1.3092,-1.3108,-1.3329,-1.3173,-1.2815,-1.2807,-1.2597,-1.2264,-1.1719,-1.1289,-1.1008,-1.1008,-1.0675,-1.0253,-1.0245,-1.1089,-1.2181,-1.2325,-1.3384,0.0,-1.5038,-1.5655,-1.6284,-1.6442,-1.738,-1.8935,-2.1268,-2.2534,-2.3711,-2.5741,-2.6387,-2.6773,-2.737,-2.7359,-2.7307,-2.7546,-2.7613,-2.7826,-2.8497,-2.8561,-2.8625,-2.8948,-2.8524,-2.8085,-2.7736,-2.7709,-2.7843,0.0,-2.8921,-2.9744,-3.0577,-3.0597,-3.0896,-3.1481,-3.1521,-3.1521,-3.1521,-3.1521,-3.1521,-3.1521,-3.1521,-3.1521,-3.1474,-2.9482,-2.8464,-2.8344,-2.6115,-2.4803,-2.4316,-2.4305,-2.4177,-2.3758,-2.1605,-2.0754,-2.0571,-1.8273,-1.7388,-1.7364,-1.7169,-1.6955,-1.6809,0.0,0.0,0.0,-0.2366,-0.2551,-0.2802,-0.3123,-0.3165,-0.3284,-0.3627,-0.4516,0.0,0.0,0.0,0.0,0.0,-0.7602,-0.8219,-0.8894,-0.9925,-1.0737,-1.1253,-1.1733,-1.2036,-1.2207,-1.2393,-1.254,-1.2653,-1.2653,-1.2808,-1.3092,-1.3092,-1.3197,-1.3394,-1.3173,-1.3092,-1.3092,-1.3035,-1.3084,-1.3149,-1.2678,-1.2524,-1.2556,-1.1931,-1.174,-1.1763,0.0,-1.1176,-1.0882,-1.0616,-1.1321,-1.2359,-1.2598,-1.3412,-1.4679,-1.656,-1.7404,-1.8106,-1.97,-2.1196,-2.2584,-2.3974,-2.4841,-2.5636,-2.676,-2.7081,-2.7175,-2.7375,-2.7175,-2.7001,-2.7094,-2.7281,-2.7643,-2.8245,-2.8631,-2.8948,-2.9285,-2.9325,-2.8991,-2.8138,-2.835,0.0,0.0,0.0,0.0,-3.0467,-3.0547,-3.0895,-3.1671,-3.1711,-3.1711,-3.1711,-3.1711,-3.1711,-3.1711,-3.1711,-3.1711,-3.1664,-2.9577,-2.8608,-2.85,-2.6211,-2.5021,-2.4671,-2.4567,-2.5053,-2.5821,-2.3774,-2.2922,-2.2708,-2.0524,-1.877,-1.7489,-1.7356,-1.7177,-1.6963,0.0,0.0,0.0,0.0,0.0,0.0,0.0,0.0,0.0,0.0,0.0,0.0,0.0,0.0,0.0,0.0,0.0,-0.8281,-0.8891,-0.9567,-1.0176,-1.0683,-1.1078,-1.1378,-1.1519,-1.1671,-1.1882,-1.2214,-1.2214,-1.2433,-1.2816,-1.2816,-1.2881,-1.2986,-1.2865,-1.2816,-1.2808,-1.2759,-1.28,-1.2848,-1.2393,-1.219,-1.2101,-1.1524,-1.1454,0.0,-1.1281,-1.1424,-1.1725,-1.1245,-1.194,-1.3058,-1.3554,-1.4759,-1.639,-1.8387,-1.9252,-2.01,-2.2323,-2.3714,-2.4756,-2.5732,-2.6346,-2.68,-2.7215,-2.7309,-2.7242,-2.7041,-2.6627,-2.6319,-2.6213,-2.6266,-2.6653,-2.771,-2.8337,-2.8938,-2.9553,-2.9713,-2.9432,-2.8607,-2.8804,-2.8841,0.0,0.0,0.0,-3.0333,-3.06,-3.0955,-3.1684,-3.1711,-3.1711,-3.1711,-3.1711,-3.1711,-3.1711,-3.1711,-3.1711,-3.1664,-3.0353,-2.9733,-2.9673,-2.8188,-2.7345,-2.7087,-2.6841,-2.7319,-2.8032,-2.5958,-2.5058,-2.4854,-2.2697,-2.1032,-1.9726,-1.8794,-1.8354,-1.8137,0.0,0.0,0.0,0.0,0.0,0.0,0.0,0.0,0.0,0.0,0.0,0.0,0.0,0.0,0.0,0.0,0.0,0.0,-0.8522,-0.89,-0.9413,-1.0105,-1.0298,-1.0458,-1.0664,-1.0664,-1.0923,-1.1459,-1.1459,-1.1727,-1.2247,-1.2247,-1.2247,-1.2247,-1.2247,-1.2247,-1.2264,-1.2458,-1.2296,-1.1957,-1.194,-1.1587,-1.0999,-1.0612,-1.0638,-1.0849,-1.0697,-1.159,-1.2719,-1.2125,-1.2928,-1.4361,-1.5208,-1.728,-1.9615,-2.0498,-2.1208,-2.2158,-2.4115,-2.4917,-2.5464,-2.6587,-2.7068,-2.7309,-2.7322,-2.7282,-2.7068,-2.644,-2.5825,-2.5304,0.0,0.0,-2.517,-2.6934,-2.7777,-2.862,-2.9766,-2.9726,-2.9459,0.0,0.0,0.0,0.0,0.0,0.0,-3.0386,-3.0875,-3.1316,-3.1698,-3.1711,-3.1711,-3.1711,-3.1711,-3.1711,-3.1711,-3.1711,-3.1711,-3.1711,-3.1711,-3.1711,-3.1711,-3.1711,-3.1503,-3.1209,-3.0929,-3.0635,-3.0237,-2.8065,-2.7127,-2.6807,-2.4744,-2.3889,-2.3544,-2.1289,-2.046,-2.0157,0.0,0.0,0.0,0.0,0.0,0.0,0.0,0.0,0.0,0.0,0.0,0.0,0.0,0.0,0.0,0.0,0.0,0.0,-0.7992,-0.8544,-0.9031,-0.9356,-0.9795,-1.0111,-1.0316,-1.0325,-1.052,-1.0899,-1.0899,-1.1102,-1.1471,-1.1471,-1.1471,-1.1471,-1.1471,-1.1471,-1.1471,-1.1549,-1.1508,-1.1373,-1.1143,-1.1335,-1.1782,-1.1362,-1.2012,-1.3039,-1.2818,-1.3454,-1.431,-1.3672,-1.5021,-1.7056,-1.7527,-1.8746,-2.0187,-2.11,-2.2412,-2.3741,-2.4703,-2.5864,-2.6867,-2.7348,-2.7375,-2.7362,-2.7535,-2.6961,-2.6158,-2.5569,-2.4596,-2.3661,0.0,0.0,0.0,-2.5785,-2.7388,0.0,-3.0132,-3.0555,0.0,-3.0087,0.0,-3.0181,-2.9695,-3.0154,0.0,-3.0675,-3.0621,-3.0902,-3.1671,-3.1711,-3.1711,-3.1711,-3.1711,-3.1711,-3.1711,-3.1711,-3.1711,-3.1711,-3.1711,-3.1711,-3.1711,-3.1711,-3.1503,-3.1223,-3.1142,-3.0822,-3.0354,-2.9761,-2.8536,-2.6966,-2.6397,-2.5207,-2.3722,-2.3155,-2.2713,-2.2091,0.0,0.0,0.0,0.0,0.0,0.0,0.0,0.0,0.0,0.0,0.0,0.0,0.0,0.0,0.0,0.0,0.0,0.0,0.0,-0.8203,-0.8584,-0.8875,-0.9176,-0.9413,-0.9567,-0.9527,-0.9698,-1.0129,-1.0129,-1.0357,-1.0761,-1.0761,-1.0761,-1.0761,-1.0761,-1.0761,-1.0761,-1.0761,-1.0974,0.0,0.0,-1.1412,-1.2083,-1.1776,-1.2379,-1.334,-1.3208,-1.445,-1.6131,-1.602,0.0,-1.9036,-1.9506,-2.0441,-2.159,-2.2605,0.0,-2.477,-2.5611,-2.6627,-2.7495,-2.7655,-2.7575,-2.7335,-2.6854,-2.6132,-2.5222,-2.3857,-2.2899,-2.2091,-2.1363,-2.2325,-2.3647,0.0,0.0,0.0,-3.0199,-3.0755,-3.0969,0.0,-3.0889,0.0,-3.0482,-3.0795,-3.1036,-3.1169,-3.1069,-3.1189,-3.1684,-3.1711,-3.1711,-3.1711,-3.1711,-3.1711,-3.1711,-3.1711,-3.1711,-3.1711,-3.1711,-3.1711,-3.1711,-3.1711,-3.1583,-3.141,-3.1276,-3.1036,-3.0715,-3.0507,-2.9657,-2.8478,-2.8307,-2.7525,-2.6378,-2.5407,-2.4375,-2.3223,0.0,0.0,0.0,0.0,0.0,0.0,0.0,0.0,0.0,0.0,0.0,0.0,0.0,0.0,0.0,0.0,0.0,0.0,0.0,0.0,-0.817,-0.8541,-0.8574,-0.8655,-0.8765,-0.8663,-0.8826,-0.9331,-0.9331,-0.9559,-1.0048,-1.0048,-1.0048,-1.0048,-1.0227,-1.0287,-1.0312,-1.0466,-1.0921,-1.1563,-1.1419,-1.1696,-1.2163,0.0,0.0,-1.2894,-1.3025,-1.4897,-1.7461,-1.8357,-1.9519,-2.065,-2.1283,-2.2278,-2.3415,-2.4492,-2.5077,-2.5558,-2.6694,-2.7375,-2.7762,-2.7762,-2.7642,-2.7161,-2.5772,-2.505,-2.4084,-2.1863,-2.1082,-2.061,-2.0024,-2.0962,-2.2405,-2.4186,0.0,-2.819,-3.0145,-3.0608,-3.0915,-3.1249,-3.1289,-3.1289,-3.1289,-3.1289,-3.1396,-3.1698,-3.1711,-3.1711,-3.1711,-3.1711,-3.1711,-3.1711,-3.1711,-3.1711,-3.1711,-3.1711,-3.1711,-3.1711,-3.1711,-3.1711,-3.1711,-3.1711,-3.1711,-3.1698,-3.1396,-3.1263,-3.1183,-3.0635,-3.044,-3.0373,-3.0034,-2.9913,-2.9649,-2.7812,-2.6023,-2.4442,0.0,0.0,0.0,0.0,0.0,0.0,0.0,0.0,0.0,0.0,-0.7228,-0.7161,0.0,0.0,0.0,0.0,0.0,0.0,0.0,0.0,0.0,-0.8346,-0.8509,-0.8606,-0.8631,-0.8606,-0.8704,-0.8909,-0.8909,-0.9039,-0.9283,-0.9283,-0.9283,-0.9339,-1.0337,-1.0772,-1.0829,-1.1771,-1.209,-1.1913,-1.1835,-1.2111,-1.26,-1.2575,0.0,0.0,-1.4673,-1.5315,-1.6166,-1.8718,-2.0842,-2.2546,-2.3148,-2.3991,-2.4914,-2.5812,-2.6293,-2.672,-2.7697,-2.8031,-2.8112,-2.8112,-2.7376,-2.636,-2.5384,-2.3794,0.0,0.0,-1.981,-1.909,-1.8475,-1.9786,-2.1596,-2.3629,-2.5438,-2.7495,-3.0052,-3.0608,-3.0996,0.0,-3.1597,-3.1597,-3.1597,-3.1597,0.0,-3.1711,-3.1711,-3.1711,-3.1711,-3.1711,-3.1711,-3.1711,-3.1711,-3.1711,-3.1711,-3.1711,-3.1711,-3.1711,-3.1711,-3.1711,-3.1711,-3.1711,-3.1711,-3.1711,-3.1657,-3.145,-3.1196,-3.0862,-3.0627,-3.0373,-3.0034,-2.9913,-2.9869,-2.9488,-2.9005,-2.8257,0.0,0.0,0.0,0.0,0.0,0.0,0.0,0.0,-0.7031,-0.7636,-0.7837,-0.7813,-0.7537,-0.7507,0.0,0.0,0.0,0.0,0.0,0.0,0.0,0.0,-0.8492,-0.859,-0.859,-0.859,0.0,0.0,0.0,-0.8731,0.0,0.0,0.0,0.0,0.0,-1.0535,-1.0473,-1.1666,-1.2246,-1.2369,-1.2325,-1.2754,0.0,0.0,0.0,0.0,0.0,0.0,-1.6551,-1.797,-2.0231,-2.2626,-2.3661,-2.474,-2.5663,-2.6078,-2.6587,-2.7148,-2.7617,-2.7951,-2.8152,-2.7991,-2.7068,-2.581,-2.4312,0.0,0.0,0.0,-1.8397,-1.7943,-1.7635,-1.9025,-2.0695,-2.2151,-2.391,-2.6038,-2.8848,-2.9369,-3.0025,-3.1537,-3.1711,-3.1711,-3.1711,-3.1711,-3.1711,-3.1711,-3.1711,-3.1711,-3.1711,-3.1711,-3.1711,-3.1711,-3.1711,-3.1711,-3.1711,-3.1711,-3.1711,-3.1711,-3.1711,-3.1711,-3.1711,-3.1711,-3.1711,-3.1711,-3.1711,-3.1583,-3.1423,-3.0969,-3.0715,-3.0541,-3.0087,-2.9913,-2.9913,-2.9913,-2.918,-2.8137,0.0,0.0,0.0,0.0,0.0,0.0,0.0,-0.6718,-0.7397,-0.7947,-0.8382,-0.8484,-0.8053,-0.7809,-0.7646,0.0,0.0,0.0,0.0,0.0,0.0,0.0,0.0,-0.859,-0.859,0.0,0.0,0.0,0.0,0.0,0.0,0.0,0.0,0.0,0.0,0.0,0.0,-1.1861,-1.2649,0.0,0.0,0.0,0.0,0.0,0.0,0.0,0.0,0.0,0.0,-1.7341,-1.912,-2.1355,-2.2939,-2.4476,-2.5743,-2.5864,-2.6519,-2.7255,-2.7443,-2.7831,-2.8112,-2.7776,-2.6774,-2.5355,-2.3268,-2.1569,0.0,-1.7916,-1.7234,-1.7045,-1.7179,-1.8371,-1.972,-2.0922,-2.2445,-2.4566,-2.7576,-2.8219,-2.9182,0.0,-3.1684,0.0,-3.1711,-3.1711,-3.1711,-3.1711,-3.1711,-3.1711,-3.1711,-3.1711,-3.1711,-3.1711,-3.1711,-3.1711,-3.1711,-3.1711,-3.1711,-3.1711,-3.1711,-3.1711,-3.1711,-3.1711,-3.1711,-3.1711,-3.1711,-3.1711,-3.1671,-3.1036,-3.0795,-3.0728,-3.014,-2.9913,-2.9913,-2.9913,-2.8944,-2.7775,0.0,0.0,0.0,0.0,0.0,0.0,0.0,-0.6641,-0.7491,-0.8333,-0.863,-0.8757,-0.8708,-0.8422,-0.811,0.0,0.0,0.0,0.0,0.0,0.0,0.0,0.0,0.0,0.0,0.0,0.0,0.0,0.0,0.0,0.0,0.0,0.0,0.0,0.0,0.0,0.0,0.0,0.0,0.0,0.0,0.0,0.0,0.0,0.0,0.0,0.0,0.0,0.0,0.0,0.0,-1.8371,-2.0391,-2.2726,-2.4826,-2.5398,0.0,0.0,-2.7884,-2.8138,-2.8112,-2.7776,-2.6613,-2.501,-2.2926,0.0,-1.908,-1.7554,-1.6765,-1.6538,-1.7099,-1.7528,-1.8517,-2.0748,-2.1911,-2.3674,-2.6934,-2.827,-2.9482,-3.1042,0.0,0.0,-3.1711,-3.1711,-3.1711,-3.1711,-3.1711,-3.1711,-3.1711,-3.1711,-3.1711,-3.1711,-3.1711,-3.1711,-3.1711,-3.1711,-3.1711,-3.1711,-3.1711,-3.1711,-3.1711,-3.1711,-3.1711,-3.1711,-3.1711,-3.1711,-3.1671,-3.1036,-3.0795,-3.0728,-3.014,-2.9913,-2.9913,-2.9913,-2.9779,-2.9636,0.0,0.0,0.0,0.0,0.0,0.0,0.0,-0.6492,-0.7254,-0.8246,-0.8636,-0.8844,-0.8959,-0.8716,-0.8382,0.0,0.0,0.0,0.0,0.0,0.0,0.0,0.0,0.0,0.0,0.0,0.0,0.0,0.0,0.0,0.0,0.0,0.0,0.0,0.0,0.0,0.0,0.0,0.0,0.0,0.0,0.0,0.0,0.0,0.0,0.0,0.0,0.0,0.0,0.0,0.0,0.0,-1.8611,-2.0267,0.0,0.0,-2.4943,-2.5972,-2.6894,-2.7389,-2.759,-2.7241,-2.6066,-2.4452,-2.2592,-2.0575,-1.8677,-1.7194,-1.642,-1.6179,-1.6805,-1.7153,-1.7889,-1.949,-2.005,-2.1358,-2.4462,-2.5611,-2.7068,-2.9562,-3.0488,-3.1136,-3.1671,-3.1711,-3.1711,-3.1711,-3.1711,-3.1711,-3.1711,-3.1711,-3.1711,-3.1711,-3.1711,-3.1711,-3.1711,-3.1711,-3.1711,-3.1711,-3.1711,-3.1711,-3.1711,-3.1711,-3.1711,-3.1711,-3.1711,-3.1711,-3.1684,-3.1223,-3.0955,-3.0755,-3.0341,-3.0074,-2.9913,-2.9913,-2.9913,-2.9873,0.0,0.0,0.0,0.0,0.0,-0.4227,-0.5656,-0.6385,-0.7069,-0.7951,-0.8398,-0.8706,-0.8948,-0.8598,-0.8297,-0.8164,0.0,0.0,0.0,0.0,0.0,0.0,0.0,0.0,0.0,0.0,0.0,0.0,0.0,0.0,0.0,0.0,0.0,0.0,0.0,0.0,0.0,0.0,0.0,0.0,0.0,0.0,0.0,0.0,0.0,0.0,0.0,0.0,0.0,0.0,0.0,0.0,0.0,0.0,0.0,0.0,-2.3701,-2.4903,-2.5865,-2.6627,-2.7068,-2.6774,-2.556,-2.4048,-2.2291,-2.0267,-1.8424,-1.7114,-1.6366,-1.6139,-1.6727,-1.7033,-1.7541,-1.8611,-1.905,-2.025,-2.3073,-2.4182,-2.5758,-2.8534,-2.9539,-3.036,-3.1243,-3.1564,-3.1711,-3.1711,-3.1711,-3.1711,-3.1711,-3.1711,-3.1711,-3.1711,-3.1711,-3.1711,-3.1711,-3.1711,-3.1711,-3.1711,-3.1711,-3.1711,-3.1711,-3.1711,-3.1711,-3.1711,-3.1711,-3.1711,-3.1684,-3.1249,-3.0982,-3.0755,-3.0426,-3.01,-2.9913,-2.9913,-2.9913,-2.9887,0.0,0.0,0.0,0.0,0.0,0.0,0.0,-0.6343,-0.7058,-0.7446,-0.7908,-0.8337,-0.8668,-0.7982,-0.7767,-0.8442,0.0,0.0,0.0,0.0,0.0,0.0,0.0,0.0,0.0,0.0,-0.8797,-0.8797,-0.9007,0.0,0.0,0.0,0.0,0.0,0.0,0.0,0.0,0.0,0.0,0.0,0.0,0.0,0.0,0.0,0.0,0.0,0.0,0.0,0.0,0.0,0.0,0.0,0.0,0.0,0.0,0.0,-2.2653,-2.4071,-2.5211,-2.6159,-2.676,-2.6466,-2.5291,-2.3741,-2.1997,-2.0003,-1.8264,-1.738,-1.6698,-1.6471,-1.7085,-1.7192,-1.7501,-1.8343,-1.9466,-2.1024,-2.3469,-2.5061,-2.664,-2.8404,-2.8828,-2.9362,-3.0333,-3.1203,-3.1711,-3.1711,-3.1711,-3.1711,-3.1711,-3.1711,-3.1711,-3.1711,-3.1711,-3.1711,-3.1711,-3.1711,-3.1711,-3.1711,-3.1711,-3.1711,-3.1711,-3.1711,-3.1711,-3.1711,-3.1711,-3.1711,-3.1671,-3.1036,-3.0795,-3.0728,-3.0154,-2.9913,-2.9913,-2.9913,-2.9913,-2.9913,0.0,0.0,0.0,0.0,0.0,0.0,0.0,-0.5855,-0.6351,-0.6941,-0.728,-0.759,-0.7972,-0.7716,-0.7657,-0.8064,0.0,0.0,0.0,0.0,0.0,0.0,0.0,0.0,0.0,0.0,-0.8942,-0.9209,-0.9372,-0.9518,-0.9632,-0.9518,0.0,0.0,0.0,0.0,0.0,0.0,0.0,0.0,0.0,0.0,0.0,0.0,0.0,0.0,0.0,0.0,0.0,0.0,0.0,0.0,0.0,0.0,0.0,-1.809,-1.991,-2.1563,-2.2572,-2.33,-2.3741,-2.3447,-2.292,-2.2064,-2.0668,-1.9386,-1.8237,-1.738,-1.6737,-1.6471,-1.7085,-1.7206,-1.7729,-1.937,-1.9957,-2.0957,-2.3166,-2.4941,-2.6506,-2.7829,-2.9673,-3.0942,-3.1269,-3.155,-3.1711,-3.1711,-3.1711,-3.1711,-3.1711,-3.1711,-3.1711,-3.1711,-3.1711,-3.1711,-3.1711,-3.1711,-3.1711,-3.1711,-3.1711,-3.1711,-3.1711,-3.1711,-3.1711,-3.1711,-3.1711,-3.1711,-3.1684,-3.1249,-3.0969,-3.0755,-3.0368,-3.01,-2.9913,-2.9913,-2.9913,-2.9913,0.0,0.0,0.0,0.0,0.0,0.0,0.0,-0.5576,-0.6004,-0.6538,-0.6718,-0.7003,-0.7488,-0.7347,-0.7353,-0.7716,0.0,0.0,0.0,0.0,0.0,0.0,0.0,0.0,0.0,-0.8731,-0.9031,-0.9478,-0.964,-0.9851,-1.0087,-0.9956,-0.9737,-0.9542,0.0,0.0,0.0,0.0,0.0,0.0,0.0,0.0,0.0,0.0,0.0,0.0,0.0,0.0,0.0,0.0,0.0,0.0,0.0,0.0,0.0,0.0,-1.7635,-1.9183,-2.0668,-2.1563,-2.2044,-2.1903,-2.1475,-2.0775,-1.9706,-1.8704,-1.7822,-1.7153,-1.6712,-1.6605,-1.7112,-1.7286,-1.7836,-1.9332,-1.976,-2.0668,-2.2846,-2.4619,-2.6305,-2.8003,-2.9967,-3.1216,-3.1216,-3.1524,-3.1711,-3.1711,-3.1711,-3.1711,-3.1711,-3.1711,-3.1711,-3.1711,-3.1711,-3.1711,-3.1711,-3.1711,-3.1711,-3.1711,-3.1711,-3.1711,-3.1711,-3.1711,-3.1711,-3.1711,-3.1711,-3.1711,0.0,-3.1223,-3.0955,-3.0755,-3.0354,-3.0074,-2.9913,-2.9913,-2.9913,-2.9913,0.0,0.0,0.0,0.0,0.0,0.0,0.0,0.0,0.0,-0.6231,-0.6279,-0.6529,-0.7183,-0.6923,-0.6901,-0.7416,0.0,0.0,0.0,0.0,0.0,0.0,0.0,0.0,0.0,-0.8747,-0.9073,-0.9599,-0.9843,-1.0128,-1.0466,-1.0474,-1.0199,-0.973,-1.0842,0.0,0.0,0.0,0.0,0.0,0.0,0.0,0.0,0.0,0.0,0.0,0.0,0.0,0.0,0.0,0.0,0.0,0.0,0.0,0.0,0.0,0.0,0.0,0.0,-2.0575,-2.132,-2.1248,-2.0601,-1.977,-1.893,-1.7916,0.0,-1.6767,-1.67,-1.682,-1.7233,-1.7474,-1.7876,-1.8584,-1.9214,-2.0391,-2.2693,-2.4392,-2.6319,-2.8868,-2.9953,-3.0493,-3.0493,-3.1229,-3.1711,-3.1711,-3.1711,-3.1711,-3.1711,-3.1711,-3.1711,-3.1711,-3.1711,-3.1711,-3.1711,-3.1711,-3.1711,-3.1711,-3.1711,-3.1711,-3.1711,-3.1711,-3.1711,-3.1711,-3.1711,-3.1711,-3.1644,-3.1022,-3.0782,-3.0702,-3.014,-2.9913,-2.9913,-2.9913,-2.9913,-2.9913,0.0,0.0,0.0,0.0,0.0,0.0,0.0,0.0,0.0,0.0,-0.601,-0.6233,-0.664,-0.6689,-0.6797,0.0,0.0,0.0,0.0,0.0,0.0,0.0,0.0,0.0,0.0,-0.8869,-0.9226,-0.9599,-1.0217,-1.0688,-1.1017,-1.1183,-1.0964,-1.0508,-1.1974,-1.3253,0.0,0.0,0.0,0.0,0.0,0.0,0.0,0.0,0.0,0.0,-1.4629,-1.4816,0.0,0.0,0.0,0.0,0.0,0.0,0.0,0.0,-1.524,-1.5615,-1.6568,0.0,-1.8438,-1.7983,-1.7889,-1.7782,0.0,-1.7007,-1.6794,-1.6727,-1.67,-1.7007,-1.8023,-1.805,-1.8543,-2.0552,-2.1167,-2.2031,-2.3955,-2.6427,-2.8845,-3.0822,-3.1283,-3.1403,-3.1403,-3.1591,-3.1711,-3.1711,-3.1711,-3.1711,-3.1711,-3.1711,-3.1711,-3.1711,-3.1711,-3.1711,-3.1711,-3.1711,-3.1711,-3.1711,-3.1711,-3.1711,-3.1711,-3.1711,-3.1711,-3.1711,-3.1711,-3.1543,-3.1303,-3.0942,-3.0662,-3.0467,-3.006,-2.9913,-2.9913,-2.9913,-2.9913,-2.9913,0.0,0.0,0.0,0.0,0.0,0.0,0.0,0.0,0.0,0.0,0.0,0.0,0.0,0.0,0.0,0.0,0.0,0.0,0.0,0.0,0.0,0.0,0.0,0.0,-0.859,-0.8828,-0.9267,-0.9876,-1.0347,-1.0883,-1.1476,-1.2072,-1.2012,-1.1401,-1.199,-1.3487,0.0,0.0,0.0,0.0,0.0,0.0,0.0,0.0,0.0,0.0,-1.4322,-1.4625,0.0,-1.5008,-1.5267,-1.5551,0.0,0.0,0.0,0.0,-1.4879,-1.5053,-1.5351,-1.6593,-1.7716,-1.7382,-1.7542,-1.7675,-1.7208,-1.6794,-1.6473,-1.6326,-1.6513,-1.6941,-1.7755,-1.8196,-1.897,-2.0668,-2.1537,-2.2939,-2.5651,-2.7883,-2.9847,-3.1524,-3.1711,-3.1711,-3.1711,-3.1711,-3.1711,-3.1711,-3.1711,-3.1711,-3.1711,-3.1711,-3.1711,-3.1711,-3.1711,-3.1711,-3.1711,-3.1711,-3.1711,-3.1711,-3.1711,-3.1711,-3.1711,-3.1711,-3.1711,-3.1711,-3.1711,-3.1503,-3.1162,-3.0915,-3.0621,-3.0373,-3.0034,-2.9913,-2.9913,-2.9913,-2.9913,-2.9913,0.0,0.0,0.0,0.0,0.0,0.0,0.0,0.0,0.0,0.0,0.0,0.0,0.0,0.0,0.0,0.0,0.0,0.0,0.0,0.0,0.0,0.0,0.0,-0.8342,-0.8672,-0.8787,-0.9275,-1.0145,-1.0412,-1.092,-1.1747,-1.2976,-1.3279,-1.2735,-1.1903,-1.3107,0.0,0.0,0.0,0.0,0.0,0.0,0.0,0.0,0.0,0.0,0.0,0.0,0.0,-1.4865,-1.5244,-1.5675,-1.5364,0.0,0.0,0.0,0.0,0.0,-1.5173,-1.6647,-1.8036,-1.7862,-1.8143,-1.833,-1.7742,-1.7033,-1.6431,-1.6128,-1.6502,-1.7048,-1.7501,-1.845,-1.9477,-2.045,-2.1737,-2.3848,-2.7468,-2.8885,-3.0074,-3.155,-3.1711,-3.1711,-3.1711,-3.1711,-3.1711,-3.1711,-3.1711,-3.1711,-3.1711,-3.1711,-3.1711,-3.1711,-3.1711,-3.1711,-3.1711,-3.1711,-3.1711,-3.1711,-3.1711,-3.1711,-3.1711,-3.1711,-3.1711,-3.1711,-3.1671,-3.1436,-3.1129,-3.0849,-3.0555,-3.0319,-3.002,-2.9913,-2.9913,-2.9913,-2.9913,-2.9913,0.0,0.0,0.0,0.0,0.0,0.0,0.0,0.0,0.0,0.0,0.0,0.0,0.0,0.0,0.0,0.0,0.0,0.0,0.0,0.0,0.0,0.0,-0.8113,-0.8452,-0.9007,-0.9039,-0.934,-0.995,-1.0712,-1.1138,-1.135,-1.337,-1.4721,-1.5335,-1.3715,-1.4023,-1.5784,0.0,0.0,0.0,0.0,0.0,0.0,0.0,0.0,0.0,0.0,0.0,0.0,-1.4309,-1.4776,-1.5364,-1.4808,0.0,0.0,0.0,0.0,0.0,-1.6032,-1.7408,-1.8183,-1.7142,-1.7702,-1.833,-1.7742,-1.7501,-1.7394,-1.7328,-1.7569,-1.8129,-1.9199,-1.9947,-2.0886,-2.2265,-2.4124,-2.6292,-2.8845,-2.9579,-3.0301,-3.1577,-3.1711,-3.1711,-3.1711,-3.1711,-3.1711,-3.1711,-3.1711,-3.1711,-3.1711,-3.1711,-3.1711,-3.1711,-3.1711,-3.1711,-3.1711,-3.1711,-3.1711,-3.1711,-3.1711,-3.1711,-3.1711,-3.1711,-3.1711,-3.1698,-3.1396,-3.1129,-3.0835,-3.0541,-3.0247,-2.998,-2.994,-2.9913,-2.9913,-2.9913,-2.9913,-2.9913,0.0,0.0,0.0,0.0,0.0,0.0,0.0,0.0,0.0,0.0,0.0,0.0,0.0,0.0,0.0,0.0,0.0,0.0,0.0,0.0,0.0,-0.8155,-0.8367,-0.8666,-0.9096,-0.9575,-1.0038,-1.0496,-1.1911,-1.2319,-1.1839,-1.3487,-1.4834,-1.5791,-1.4431,-1.4558,-1.5761,-1.5224,0.0,0.0,0.0,0.0,0.0,0.0,0.0,0.0,0.0,0.0,0.0,0.0,-1.4803,-1.5324,-1.4897,0.0,0.0,0.0,0.0,0.0,-1.5481,-1.6765,-1.7782,-1.7689,-1.8798,-1.9786,-1.9388,-1.892,-1.8532,-1.8343,-1.8677,-1.913,-1.9706,-2.0802,-2.2311,-2.4459,-2.6239,-2.7936,-2.9499,-3.01,-3.0715,-3.1617,-3.1711,-3.1711,-3.1711,-3.1711,-3.1711,-3.1711,-3.1711,-3.1711,-3.1711,-3.1711,-3.1711,-3.1711,-3.1711,-3.1711,-3.1711,-3.1711,-3.1711,-3.1711,-3.1711,-3.1711,-3.1711,-3.1711,-3.1711,-3.1698,-3.1356,-3.1062,-3.0768,-3.052,-3.0181,-2.9913,-2.9913,-2.9913,-2.9913,-2.9913,-2.9913,-2.9913,0.0,0.0,0.0,0.0,0.0,0.0,0.0,0.0,0.0,0.0,0.0,0.0,0.0,0.0,0.0,0.0,0.0,0.0,0.0,0.0,-0.7847,-0.8297,-0.8699,-0.91,-0.947,-1.0063,-1.0607,-1.1122,-1.2604,-1.3283,-1.3192,-1.3645,-1.4674,-1.6103,-1.4921,-1.4944,-1.5761,-1.4986,-1.5105,0.0,0.0,0.0,0.0,0.0,0.0,0.0,0.0,0.0,0.0,0.0,0.0,0.0,0.0,0.0,0.0,-1.471,-1.4416,-1.4397,-1.5267,-1.6348,-1.746,-1.8545,-1.976,-2.0748,-2.0967,-2.0338,-1.9736,-1.9826,-2.0201,-2.0521,-2.0521,-2.2017,-2.4022,-2.6413,-2.7989,-2.9192,-3.0007,-3.0568,-3.1089,-3.1657,-3.1711,-3.1711,-3.1711,-3.1711,-3.1711,-3.1711,-3.1711,-3.1711,-3.1711,-3.1711,-3.1711,-3.1711,-3.1711,-3.1711,-3.1711,-3.1711,-3.1711,-3.1711,-3.1711,-3.1711,-3.1711,-3.1711,-3.1684,-3.1543,-3.1249,-3.0955,-3.0675,-3.0426,-3.0127,-2.9913,-2.9913,-2.9913,-2.9913,-2.9913,-2.9913,-2.9913,0.0,0.0,0.0,0.0,0.0,0.0,0.0,0.0,0.0,0.0,0.0,0.0,0.0,0.0,0.0,0.0,0.0,0.0,0.0,0.0,-0.8079,-0.8124,-0.9036,-0.9875,-1.0566,-1.0341,-1.0626,-1.1459,-1.179,-1.3283,-1.5794,-1.3945,-1.4653,-1.7397,-1.5564,-1.5146,-1.5808,-1.5713,-1.5737,0.0,0.0,0.0,0.0,0.0,0.0,0.0,0.0,0.0,0.0,0.0,0.0,0.0,0.0,0.0,-1.5311,-1.5039,-1.4723,-1.4856,-1.6565,-1.7125,-1.7608,-1.9279,-1.9599,-1.9936,-2.1555,-2.1248,-2.0993,-2.2331,-2.2639,-2.2679,-2.2679,-2.4352,-2.6252,-2.7804,-2.9032,-3.0034,-3.0648,-3.0996,-3.1316,-3.1684,-3.1711,-3.1711,-3.1711,-3.1711,-3.1711,-3.1711,-3.1711,-3.1711,-3.1711,-3.1711,-3.1711,-3.1711,-3.1711,-3.1711,-3.1711,-3.1711,-3.1711,-3.1711,-3.1711,-3.1711,-3.1711,-3.1711,-3.1517,-3.1236,-3.0955,-3.0662,-3.0413,-3.0074,-2.994,-2.9913,-2.9913,-2.9913,-2.9913,-2.9913,-2.9913,-2.9913,0.0,0.0,0.0,0.0,0.0,0.0,0.0,0.0,0.0,0.0,0.0,0.0,0.0,0.0,0.0,0.0,0.0,0.0,0.0,0.0,-0.8155,-0.8582,-0.9171,-0.9869,-1.0672,-1.0891,-1.1216,-1.1701,-1.263,-1.4101,-1.6032,-1.5106,-1.5308,-1.6394,-1.5732,-1.5679,-1.6086,-1.5888,-1.5915,-1.6086,0.0,0.0,0.0,0.0,0.0,0.0,0.0,0.0,0.0,0.0,-1.5106,-1.5227,-1.5039,-1.5186,-1.5337,-1.5079,-1.475,-1.4727,-1.5778,-1.6752,-1.7782,-1.9201,-1.9883,-2.0579,-2.1937,-2.2712,-2.3354,-2.4124,-2.4382,-2.4516,-2.4516,-2.5598,-2.6854,-2.8005,-2.9138,-3.0127,-3.0715,-3.1036,-3.133,-3.1684,-3.1711,-3.1711,-3.1711,-3.1711,-3.1711,-3.1711,-3.1711,-3.1711,-3.1711,-3.1711,-3.1711,-3.1711,-3.1711,-3.1711,-3.1711,-3.1711,-3.1711,-3.1711,-3.1711,-3.1711,-3.1711,-3.1711,-3.1503,-3.1209,-3.0915,-3.0621,-3.0386,-3.0034,-2.9913,-2.9913,-2.9913,-2.9913,-2.9913,-2.9913,-2.9913,-2.9913,0.0,0.0,0.0,0.0,0.0,0.0,0.0,0.0,0.0,0.0,0.0,0.0,0.0,0.0,0.0,0.0,0.0,0.0,-0.7411,-0.772,-0.8161,-0.8747,-0.9123,-0.9679,-1.042,-1.1029,-1.15,-1.1857,-1.3375,-1.4901,-1.6425,-1.6144,-1.6226,-1.6576,-1.635,-1.6406,-1.6685,-1.6273,-1.6219,-1.6404,-1.6086,-1.5845,0.0,0.0,0.0,0.0,0.0,0.0,0.0,0.0,-1.5334,-1.5378,-1.5271,-1.5378,-1.5471,-1.52,-1.5106,-1.5164,-1.5565,-1.6632,-1.7903,-1.9093,-2.0204,-2.1341,-2.2672,-2.3732,-2.4706,-2.5598,-2.5852,-2.5959,-2.6052,-2.6627,-2.7321,-2.8072,-2.9262,-3.0194,-3.0595,-3.0982,-3.1303,-3.1503,-3.1657,-3.1711,-3.1711,-3.1711,-3.1711,-3.1711,-3.1711,-3.1711,-3.1711,-3.1711,-3.1711,-3.1711,-3.1711,-3.1711,-3.1711,-3.1711,-3.1711,-3.1711,-3.157,-3.153,-3.153,-3.153,-3.1316,-3.0942,-3.0742,-3.0488,-3.0207,-3.0007,-2.9913,-2.9913,-2.9913,-2.9913,-2.9913,-2.9913,-2.9913,-2.9913,0.0,0.0,0.0,0.0,0.0,0.0,0.0,0.0,0.0,0.0,0.0,0.0,0.0,0.0,0.0,0.0,0.0,0.0,-0.7495,-0.7749,-0.8088,-0.8473,-0.8956,-0.9406,-0.9876,-1.0618,-1.1342,-1.202,-1.3699,-1.5484,-1.7267,-1.6946,-1.7406,-1.8437,-1.7608,-1.7341,-1.7555,-1.6954,-1.67,-1.6687,-1.6417,-1.6297,0.0,0.0,0.0,0.0,0.0,0.0,0.0,0.0,-1.5608,-1.5444,-1.5715,-1.5808,-1.5755,-1.5484,-1.5842,-1.6297,-1.6297,-1.6939,-1.7916,-1.9107,-2.0525,-2.2077,-2.3821,-2.4222,-2.481,-2.6907,-2.7041,-2.6934,-2.7269,-2.7509,-2.7802,-2.8138,-2.9436,-3.04,-3.04,-3.0849,-3.1176,-3.1223,-3.149,-3.1711,-3.1711,-3.1711,-3.1711,-3.1711,-3.1711,-3.1711,-3.1711,-3.1711,-3.1711,-3.1711,-3.1711,-3.1711,-3.1711,-3.1711,-3.1711,-3.1711,-3.1356,-3.1223,-3.1176,-3.1223,-3.0902,-3.04,-3.04,-3.0194,-2.9913,-2.9913,-2.9913,-2.9913,-2.9913,-2.9913,-2.9913,-2.9913,-2.9913,-2.9913,0.0,0.0,0.0,0.0,0.0,0.0,0.0,0.0,0.0,0.0,0.0,0.0,0.0,0.0,0.0,0.0,0.0,0.0,-0.7441,-0.7805,-0.813,-0.8359,-0.8806,-0.9219,-0.9535,-1.0967,-1.1998,-1.2574,-1.5287,-1.6453,-1.6219,-1.7411,-1.7709,-1.7235,-1.7421,-1.7301,-1.6954,-1.678,-1.6834,-1.6993,-1.6498,-1.6417,0.0,0.0,0.0,0.0,0.0,0.0,0.0,0.0,0.0,0.0,-1.5781,-1.6088,-1.6313,-1.5605,-1.5842,-1.6297,-1.6297,-1.7382,-1.8865,-2.0254,-2.189,-2.3549,-2.5115,-2.5957,-2.6774,-2.8217,-2.8401,-2.8283,-2.7991,-2.8136,-2.843,-2.8724,-2.9325,-2.9931,-3.0346,-3.056,-3.0688,-3.0902,-3.1183,-3.1356,-3.1356,-3.1543,-3.1711,-3.1711,-3.1711,-3.1711,-3.1711,-3.1711,-3.1711,-3.1711,-3.1711,-3.1711,-3.1711,-3.1463,-3.1356,-3.1356,-3.1062,-3.1022,-3.1176,-3.1009,-3.0715,-3.04,-3.04,-3.0194,-2.9913,-2.9913,-2.9913,-2.9913,-2.9913,-2.9913,-2.9913,-2.9913,-2.9913,-2.9913,0.0,0.0,0.0,0.0,0.0,0.0,0.0,0.0,0.0,0.0,0.0,0.0,0.0,0.0,0.0,0.0,0.0,0.0,0.0,-0.7828,-0.8174,-0.845,-0.8852,-0.9543,-1.0496,-1.17,-1.2812,-1.3778,-1.5874,-1.6716,-1.6347,-1.7907,-1.8277,-1.7609,-1.8196,-1.8143,-1.7582,-1.7462,-1.7341,-1.7166,-1.6817,-1.6819,-1.6927,0.0,0.0,0.0,0.0,0.0,0.0,0.0,0.0,0.0,-1.5635,-1.5955,-1.6299,-1.6005,-1.642,-1.7073,-1.7434,-1.8624,-2.0117,-2.1617,-2.2979,-2.4459,-2.6279,-2.7282,-2.8096,-2.9121,-2.9161,-2.8881,-2.8564,-2.8657,-2.8788,-2.8961,-2.9379,-2.978,-3.014,-3.0333,-3.0467,-3.0595,-3.0875,-3.1049,-3.1049,-3.1209,-3.137,-3.149,-3.149,-3.1543,-3.1711,-3.1711,-3.1657,-3.149,-3.149,-3.1436,-3.1316,-3.1142,-3.1049,-3.1049,-3.0755,-3.0715,-3.0875,-3.0702,-3.0461,-3.0181,-3.0181,-3.0087,-2.9913,-2.9913,-2.9913,-2.9913,-2.9913,-2.9913,-2.9913,-2.9913,-2.9913,-2.9913,0.0,0.0,0.0,0.0,0.0,0.0,0.0,0.0,0.0,0.0,-0.7098,0.0,0.0,0.0,0.0,0.0,0.0,0.0,0.0,0.0,-0.8216,-0.8707,-0.9073,-1.0137,-1.1971,-1.2542,-1.3582,-1.5127,-1.574,-1.6425,-1.7152,-1.837,-1.8876,-1.8796,-1.9466,-1.9399,-1.8756,-1.849,-1.7903,-1.7166,-1.7166,-1.7287,-1.7381,-1.5992,0.0,0.0,0.0,0.0,0.0,0.0,0.0,0.0,-1.5418,-1.5595,-1.5915,-1.6473,-1.7261,-1.8156,-1.904,-2.016,-2.147,-2.2958,-2.3915,-2.501,-2.7201,-2.815,-2.8818,-2.97,-2.9428,-2.9081,-2.9081,-2.9081,-2.9081,-2.9081,-2.9522,-2.9913,-2.9913,-3.0154,-3.036,-3.036,-3.0627,-3.0755,-3.0755,-3.0782,-3.0902,-3.1169,-3.1136,-3.1303,-3.1617,-3.1631,-3.1463,-3.1196,-3.1136,-3.1062,-3.0795,-3.0768,-3.0755,-3.0755,-3.0507,-3.036,-3.036,-3.036,-3.0167,-2.9913,-2.9913,-2.9913,-2.9913,-2.9913,-2.9913,-2.9913,-2.9913,-2.9913,-2.9913,-2.9913,-2.9913,-2.9913,0.0,0.0,0.0,0.0,0.0,0.0,0.0,0.0,0.0,0.0,0.0,0.0,0.0,0.0,0.0,0.0,0.0,0.0,0.0,0.0,-0.8335,-0.8901,-0.9467,-1.0025,-1.0627,-1.2167,-1.3231,-1.3806,-1.555,-1.6424,-1.6524,-1.8424,-1.8799,-1.7943,-1.9013,-1.8893,-1.7849,-1.7582,-1.722,-1.6807,-1.6807,-1.6834,-1.6834,-1.631,-1.6019,0.0,0.0,0.0,0.0,0.0,0.0,0.0,-1.5591,-1.5755,-1.5835,-1.5955,-1.6807,-1.7769,-1.8183,-1.9663,-2.1523,-2.3247,-2.4983,-2.6507,-2.7482,-2.7976,-2.854,-2.9392,-2.9659,-2.9726,-2.9726,-2.9726,-2.9726,-2.9726,-2.9833,-2.9913,-2.9913,-2.9967,-3.0007,-3.0007,-3.0274,-3.0493,-3.0493,-3.0662,-3.0822,-3.0889,-3.0889,-3.0915,-3.0982,-3.0982,-3.0955,-3.0889,-3.0889,-3.0849,-3.0795,-3.0614,-3.0493,-3.0493,-3.0154,-3.0007,-3.0007,-3.0007,-2.998,-2.9913,-2.9913,-2.9913,-2.9913,-2.9913,-2.9913,-2.9913,-2.9913,-2.9913,-2.9913,-2.9913,-2.9913,-2.9913,0.0,0.0,0.0,0.0,0.0,0.0,0.0,0.0,0.0,0.0,0.0,0.0,0.0,0.0,0.0,0.0,0.0,0.0,0.0,-0.8169,-0.8668,-0.9251,-0.9832,-1.0355,-1.0762,-1.1351,-1.2456,-1.4132,-1.4804,-1.5657,-1.6777,-1.8411,-1.8905,-1.8505,-1.9386,-1.9118,-1.8023,-1.7702,-1.7168,-1.6513,-1.6647,-1.67,-1.666,-1.6219,-1.5941,-1.5741,-1.5337,0.0,0.0,0.0,0.0,0.0,0.0,0.0,-1.5551,-1.6259,-1.6926,-1.7689,-1.8958,-2.0388,-2.2031,-2.4088,-2.5718,-2.6867,-2.7215,-2.7615,-2.8152,-2.8754,-2.9299,-2.9713,-2.9713,-2.982,-2.9913,-2.9913,-2.9913,-2.9913,-2.9913,-2.9913,-2.9913,-2.9913,-3.0047,-3.0154,-3.0154,-3.0287,-3.0434,-3.0627,-3.0581,-3.0648,-3.0782,-3.0795,-3.0728,-3.0595,-3.0581,-3.0515,-3.0368,-3.0221,-3.0154,-3.014,-2.9993,-2.9913,-2.9913,-2.9913,-2.9913,-2.9913,-2.9913,-2.9913,-2.9913,-2.9913,-2.9913,-2.9913,-2.9913,-2.9913,-2.9913,-2.9913,-2.9913,-2.9913,0.0,0.0,0.0,0.0,0.0,0.0,0.0,0.0,0.0,0.0,0.0,0.0,0.0,0.0,0.0,0.0,0.0,0.0,0.0,-0.8443,-0.9044,-0.9567,-1.0061,-1.0586,-1.1179,-1.0832,-1.1993,-1.4736,-1.4279,-1.5306,-1.7688,-1.8557,-1.9185,-1.9562,-1.9823,-1.9439,-1.8464,-1.7929,-1.7115,-1.6244,-1.6513,-1.6607,-1.65,-1.5995,-1.5768,-1.5648,-1.512,-1.4946,-1.4946,-1.4616,0.0,0.0,0.0,0.0,-1.5173,-1.6509,-1.6913,-1.7394,-1.9455,-2.1034,-2.2619,-2.493,-2.6132,-2.672,-2.6774,-2.7201,-2.7629,-2.7978,-2.8754,-2.9366,-2.9459,-2.9673,-2.986,-2.9913,-2.9913,-2.9913,-2.9913,-2.9913,-2.9913,-2.9913,-2.9913,-2.9913,-2.9913,-2.9913,-3.002,-3.0306,-3.0333,-3.0381,-3.0635,-3.0648,-3.0528,-3.0333,-3.0333,-3.0167,-2.9913,-2.9913,-2.9913,-2.9913,-2.9913,-2.9913,-2.9913,-2.9913,-2.9913,-2.9913,-2.9913,-2.9913,-2.9913,-2.9913,-2.9913,-2.9913,-2.9913,-2.9913,-2.9913,-2.9913,-2.9913,-2.9913,0.0,0.0,0.0,0.0,0.0,0.0,0.0,0.0,0.0,0.0,0.0,-0.7098,-0.7098,-0.7098,0.0,0.0,0.0,0.0,-0.8026,0.0,0.0,-0.9599,-0.9835,-1.01,-1.0346,-1.1665,-1.2915,-1.4019,-1.532,-1.7134,-1.9439,-1.9374,-1.9599,-2.0064,-1.937,-1.8865,-1.8397,-1.71,-1.6273,-1.5888,-1.6206,-1.6179,-1.5915,-1.5835,-1.5648,-1.5378,-1.479,-1.475,-1.4946,-1.4616,-1.471,0.0,0.0,0.0,-1.4723,-1.5418,-1.5805,-1.6155,-1.7007,-1.9746,-2.2873,-2.4983,-2.5985,-2.6507,-2.676,-2.684,-2.7028,-2.7362,-2.8096,-2.8885,-2.9392,-2.9513,-2.9619,-2.9873,-2.9913,-2.9913,-2.9913,-2.9913,-2.9913,-2.9913,-2.9913,-2.9913,-2.9913,-2.9913,-2.9927,-2.9967,-2.998,-2.9993,-3.0034,-3.0034,-3.002,-2.998,-2.998,-2.9953,-2.9913,-2.9913,-2.9913,-2.9913,-2.9913,-2.9913,-2.9913,-2.9913,-2.9913,-2.9913,-2.9913,-2.9913,-2.9913,-2.9913,-2.9913,-2.9913,-2.9913,-2.9913,-2.9913,-2.9913,-2.9913,-2.9913,0.0,0.0,0.0,0.0,0.0,0.0,0.0,0.0,0.0,0.0,0.0,-0.7098,-0.7098,-0.7231,0.0,0.0,0.0,0.0,-0.8299,-0.8973,0.0,0.0,-0.9763,-0.9852,-0.9763,-1.107,-1.2274,-1.334,-1.457,-1.6691,-1.9589,-1.976,-2.0428,-2.1384,-2.0374,-1.9653,-1.9118,-1.7488,-1.6524,-1.6072,-1.6046,-1.6422,-1.6942,-1.5941,-1.6019,-1.6484,-1.524,-1.4986,-1.5186,-1.4892,-1.4986,-1.5227,-1.5186,0.0,0.0,0.0,-1.5267,-1.5792,-1.7876,-2.0147,-2.2505,-2.4716,-2.5585,-2.6012,-2.648,-2.6587,-2.6667,-2.6961,-2.7335,-2.7829,-2.8634,-2.8871,-2.9085,-2.9335,-2.9566,-2.9673,-2.9673,-2.982,-2.9913,-2.9913,-2.9913,-2.9913,-2.9913,-2.9913,-2.9913,-2.9913,-2.9913,-2.9913,-2.9913,-2.9913,-2.9913,-2.9913,-2.9913,-2.9913,-2.9913,-2.9913,-2.9913,-2.9913,-2.9913,-2.9913,-2.9913,-2.9913,-2.9913,-2.9913,-2.9913,-2.9913,-2.9913,-2.9913,-2.9913,-2.9913,-2.9913,-2.9913,-2.9913,-2.9913,-2.9913,-2.9913,0.0,0.0,0.0,0.0,0.0,0.0,0.0,0.0,0.0,0.0,0.0,0.0,-0.7187,0.0,0.0,0.0,0.0,0.0,-0.854,0.0,0.0,0.0,0.0,-0.9747,-0.9856,-1.0783,-1.1942,-1.3348,-1.4184,-1.6369,-1.9736,-2.0067,-2.1184,-2.2892,-2.1555,-2.0485,-1.9586,-1.7983,-1.7033,-1.6618,-1.6422,-1.7035,-1.7902,-1.6901,-1.7154,-1.7849,-1.615,-1.5682,-1.5789,-1.5267,-1.5294,-1.5458,-1.5186,-1.487,0.0,0.0,0.0,-1.5374,-1.817,-1.9856,-2.1355,-2.3656,-2.469,-2.5358,-2.6012,-2.6226,-2.636,-2.6653,-2.6707,-2.6934,-2.771,-2.8123,-2.8497,-2.8828,-2.9112,-2.9285,-2.9366,-2.9553,-2.9655,-2.9655,-2.9655,-2.9655,-2.9655,-2.9766,-2.978,-2.97,-2.9766,-2.9806,-2.9806,-2.9806,-2.9847,-2.9913,-2.9913,-2.9913,-2.9913,-2.9913,-2.9913,-2.9913,-2.9913,-2.9913,-2.9913,-2.9913,-2.9913,-2.9913,-2.9913,-2.9913,-2.9913,-2.9913,-2.9913,-2.9913,-2.9913,-2.9913,-2.9913,-2.9913,-2.9913,-2.9913,0.0,0.0,0.0,0.0,0.0,0.0,0.0,0.0,0.0,0.0,0.0,0.0,0.0,0.0,0.0,0.0,0.0,0.0,0.0,0.0,0.0,0.0,0.0,0.0,-1.1078,-1.1666,-1.2805,-1.4617,-1.5096,-1.7143,-2.0632,-2.0347,-2.1731,-2.4399,-2.2439,-2.0753,-1.9334,-1.8103,-1.7568,-1.7542,-1.7796,-1.7942,-1.8103,-1.9172,-1.9452,-1.9107,-1.7621,-1.7099,-1.6938,-1.5775,-1.5565,-1.5728,-1.5471,-1.52,-1.4905,0.0,0.0,0.0,-1.6056,-1.7555,-1.9145,-2.1248,-2.3041,-2.4502,-2.5358,-2.5772,-2.6105,-2.636,-2.6413,-2.6507,-2.6827,-2.7362,-2.7936,-2.8537,-2.8644,-2.8751,-2.8988,-2.9028,-2.9041,-2.9041,-2.9041,-2.9041,-2.9041,-2.9339,-2.9392,-2.9068,-2.9352,-2.9499,-2.9499,-2.9499,-2.9633,-2.9913,-2.9913,-2.9913,-2.9913,-2.9913,-2.9913,-2.9913,-2.9913,-2.9913,-2.9913,-2.9913,-2.9913,-2.9913,-2.9913,-2.9913,-2.9913,-2.9913,-2.9913,-2.9913,-2.9913,-2.9913,-2.9913,-2.9913,-2.9913,-2.9913,0.0,0.0,0.0,0.0,0.0,0.0,0.0,0.0,0.0,0.0,0.0,0.0,0.0,-0.7782,-0.7893,-0.8069,-0.8252,0.0,0.0,0.0,0.0,0.0,0.0,0.0,0.0,-1.1375,-1.2483,-1.3428,-1.4758,-1.6633,-1.897,-1.9653,-2.0521,-2.1537,-2.177,-2.1569,-2.0953,-1.8985,-1.8277,-1.845,-1.8529,-1.9279,-2.0258,-1.9749,-2.0191,-2.0802,-1.8958,0.0,0.0,0.0,-1.6755,-1.6248,-1.5605,-1.5227,-1.4892,-1.4389,-1.4295,-1.4643,-1.5949,-1.6794,-1.7889,-2.0147,-2.1617,-2.2779,-2.3861,-2.4917,-2.5705,-2.5798,-2.6132,-2.6426,-2.6533,-2.6867,-2.7268,-2.7724,-2.7909,-2.8123,-2.8417,-2.8631,-2.8831,-2.8975,-2.9001,-2.9001,-2.9001,-2.9095,-2.9108,-2.9001,-2.9095,-2.9285,-2.9472,-2.9486,-2.9619,-2.99,-2.9913,-2.9913,-2.9913,-2.9913,-2.9913,-2.9913,-2.9913,-2.9913,-2.9913,-2.9913,-2.9913,-2.9913,-2.9913,-2.9913,-2.9913,-2.9913,-2.9913,-2.9913,-2.9913,-2.9913,-2.9913,-2.9913,-2.9913,-2.9913,0.0,0.0,0.0,0.0,0.0,0.0,0.0,0.0,0.0,-0.7804,0.0,0.0,0.0,0.0,-0.8305,-0.8372,-0.8604,-0.8694,-0.8514,0.0,0.0,0.0,0.0,0.0,0.0,-1.1586,-1.2633,-1.374,-1.4848,-1.6275,-1.8009,-1.8945,-1.9626,-2.012,-2.0833,-2.1301,-2.143,-1.9773,-1.9156,-1.9356,-1.9693,-2.0539,-2.1582,-2.1502,-2.1964,-2.2539,-2.1069,0.0,0.0,0.0,0.0,-1.7261,-1.6179,-1.5364,-1.4745,-1.425,-1.4295,-1.4669,-1.5374,-1.5965,-1.6902,-1.9076,-2.0094,-2.1074,-2.302,-2.3995,-2.4676,-2.5371,-2.5825,-2.6159,-2.6346,-2.6547,-2.6774,-2.7068,-2.7281,-2.7509,-2.7844,-2.8072,-2.823,-2.8417,-2.8444,-2.8441,-2.8534,-2.8684,-2.8738,-2.8738,-2.8788,-2.8975,-2.9312,-2.9339,-2.9513,-2.99,-2.9913,-2.9913,-2.9913,-2.9913,-2.9913,-2.9913,-2.9913,-2.9913,-2.9913,-2.9913,-2.9913,-2.9913,-2.9913,-2.9913,-2.9913,-2.9913,-2.9913,-2.9913,-2.9913,-2.9913,-2.9913,-2.9913,-2.9913,-2.9913,0.0,0.0,0.0,0.0,0.0,0.0,0.0,0.0,-0.82,-0.8473,0.0,0.0,0.0,0.0,0.0,-0.8715,-0.8956,-0.9104,-0.9096,-0.9104,0.0,0.0,0.0,0.0,-1.2665,-1.2477,-1.3472,-1.5774,-1.5528,-1.6275,-1.7969,-1.8303,-1.9212,-2.0579,-1.9736,-1.9843,-2.0619,-2.025,-2.017,-2.033,-2.1221,-2.1609,-2.197,-2.4502,-2.497,-2.4235,-2.3977,-2.3108,0.0,-2.0414,0.0,0.0,-1.7194,-1.5688,-1.4461,-1.4202,-1.4322,-1.4461,0.0,0.0,0.0,-1.7969,-1.841,-1.9332,-2.284,-2.2953,-2.2905,-2.4997,-2.5438,-2.5638,-2.6239,-2.636,-2.6466,-2.6747,-2.676,-2.6907,-2.7255,-2.7296,-2.7296,-2.7309,-2.7309,-2.7416,-2.7669,-2.8005,-2.8179,-2.8179,-2.8417,-2.8724,-2.8961,-2.9001,-2.9268,-2.9887,-2.9913,-2.9913,-2.9913,-2.9913,-2.9913,-2.9913,-2.9913,-2.9913,-2.9913,-2.9913,-2.9913,-2.9913,-2.9913,-2.9913,-2.9913,-2.9913,-2.9913,-2.9913,-2.9913,-2.9913,-2.9913,-2.9913,-2.9913,-2.9913,0.0,0.0,0.0,0.0,0.0,0.0,-0.8529,-0.8413,-0.8389,0.0,0.0,0.0,-0.8987,-0.9068,-0.914,-0.9203,-0.9283,-0.9258,-0.9104,-0.9233,-0.9657,-1.0448,-1.0496,-1.1303,-1.3024,-1.3375,-1.4016,-1.4997,-1.5465,-1.6072,-1.678,-1.7314,-1.7876,-1.8478,-1.8679,-1.8865,-1.9065,-1.8544,-1.9546,-2.1443,-2.0842,-2.2004,-2.4178,-2.4449,-2.5077,-2.5745,-2.5489,-2.49,-2.4102,0.0,-2.1884,-2.0067,0.0,0.0,-1.4852,-1.4772,-1.4946,-1.5084,-1.4825,0.0,0.0,0.0,0.0,0.0,-1.9183,-2.0224,-2.1264,-2.2905,-2.3794,-2.4502,-2.5291,-2.5824,-2.6145,-2.6225,-2.6373,-2.6613,-2.6907,-2.6947,-2.7028,-2.7282,-2.7309,-2.7416,-2.7669,-2.7776,-2.7951,-2.8165,-2.8259,-2.8446,-2.8711,-2.9125,-2.9432,-2.9606,-2.9806,-2.9913,-2.9913,-2.9913,-2.9913,-2.9913,-2.9913,-2.9913,-2.9913,-2.9913,-2.9913,-2.9913,-2.9913,-2.9913,-2.9913,-2.9913,-2.9913,-2.9913,-2.9913,-2.9913,-2.9913,-2.9913,-2.9913,-2.9913,0.0,0.0,0.0,0.0,0.0,-0.9339,-0.9339,-0.9216,-0.9168,0.0,0.0,0.0,-0.9543,-0.9917,-1.004,-0.9771,-0.9739,-0.9608,-0.9332,-0.9413,-0.9753,-1.0334,-1.0891,-1.1761,-1.298,-1.3988,-1.4727,-1.5154,-1.5719,-1.6046,-1.6099,-1.6591,-1.6899,-1.7073,-1.7434,-1.7769,-1.809,-1.7367,-1.8625,-2.1109,-2.1537,-2.2846,-2.4646,-2.5237,-2.5852,-2.6413,-2.6613,-2.6265,-2.5558,-2.5128,-2.3313,0.0,-1.841,-1.6994,-1.6086,-1.524,-1.5628,0.0,0.0,0.0,0.0,0.0,0.0,0.0,-1.8489,-1.9116,-1.9837,-2.183,-2.288,-2.3629,-2.4235,-2.493,-2.5451,-2.561,-2.5838,-2.6172,-2.6587,-2.664,-2.6707,-2.6921,-2.6894,-2.7014,-2.7308,-2.7442,-2.7684,-2.7978,-2.8112,-2.8326,-2.8591,-2.9045,-2.9299,-2.9299,-2.9579,-2.974,-2.974,-2.986,-2.9913,-2.9913,-2.9913,-2.9913,-2.9913,-2.9913,-2.9913,-2.9913,-2.9913,-2.9913,-2.9913,-2.9913,-2.9913,-2.9913,-2.9913,-2.9913,-2.9913,-2.9913,-2.9913,-2.9913,0.0,0.0,-0.9917,-0.9934,-1.0097,-1.0235,-1.0268,-1.0259,-1.0202,0.0,-1.003,-1.0145,-1.0373,-1.0875,-1.0988,-1.0422,-1.0292,-1.0079,-0.9713,-0.9656,-0.9673,-0.9772,-1.0938,-1.2004,-1.2891,-1.4364,-1.5382,-1.5848,-1.6112,-1.6086,-1.5808,-1.6099,-1.6244,-1.6244,-1.6244,-1.6698,-1.7421,-1.6805,-1.7849,-2.0107,-2.2505,-2.3696,-2.4285,-2.6439,-2.7001,-2.6694,-2.7509,-2.7281,-2.652,-2.6172,-2.4191,-2.1569,-1.9773,-1.8756,-1.7876,-1.5963,-1.6524,0.0,-1.6448,-1.674,0.0,0.0,-1.7049,0.0,-1.925,-1.8863,-1.8704,-2.1149,-2.2091,-2.2586,-2.2953,-2.3719,-2.4422,-2.469,-2.509,-2.5611,-2.6293,-2.6386,-2.6386,-2.6386,-2.6386,-2.6507,-2.6747,-2.7068,-2.7376,-2.7629,-2.7965,-2.8272,-2.8537,-2.8788,-2.8948,-2.8948,-2.9312,-2.9486,-2.9486,-2.9766,-2.9913,-2.9913,-2.9913,-2.9913,-2.9913,-2.9913,-2.9913,-2.9913,-2.9913,-2.9913,-2.9913,-2.9913,-2.9913,-2.9913,-2.9913,-2.9913,-2.9913,-2.9913,-2.9913,-2.9913,0.0,0.0,-0.9958,-1.0105,-1.0257,-1.0477,-1.0797,-1.0715,-1.068,-1.0932,-1.0964,-1.1143,-1.1614,-1.1373,-1.1289,-1.1473,-1.0951,-1.0501,-1.0264,-0.9998,-1.0137,-1.087,-1.1228,-1.2349,-1.4262,-1.4579,-1.5208,-1.6217,-1.6005,-1.5861,-1.5808,-1.5861,-1.5888,-1.5888,-1.5888,-1.6139,-1.6618,-1.7648,-1.904,-2.0579,-2.11,-2.3027,-2.5677,-2.656,-2.7281,-2.7898,-2.8283,-2.8163,-2.7684,-2.668,-2.5144,-2.338,-2.1636,-2.0468,-1.9517,-1.8196,-1.8411,-1.8946,-1.8423,-1.8423,-1.8437,-1.7822,-1.7996,0.0,-1.7502,-1.7702,-1.8289,-1.929,-1.9613,-2.0,-2.1015,-2.1911,-2.2525,-2.2579,-2.3634,-2.4917,-2.6213,-2.6386,-2.6386,-2.6386,-2.6386,-2.6507,-2.6747,-2.6867,-2.7028,-2.7362,-2.7615,-2.7951,-2.8259,-2.8524,-2.8684,-2.8684,-2.9205,-2.9486,-2.9486,-2.9766,-2.9913,-2.9913,-2.9913,-2.9913,-2.9913,-2.9913,-2.9913,-2.9913,-2.9913,-2.9913,-2.9913,-2.9913,-2.9913,-2.9913,-2.9913,-2.9913,-2.9913,-2.9913,-2.9913,-2.9913,0.0,-0.9827,-1.0023,-1.039,-1.0647,-1.092,-1.1342,-1.1362,-1.143,-1.1697,-1.1996,-1.2158,-1.2135,-1.2158,-1.2052,-1.1831,-1.1362,-1.0907,-1.0442,-1.0637,-1.095,-1.129,-1.2422,-1.3565,-1.469,-1.5495,-1.6031,-1.6297,-1.6273,-1.6088,-1.5808,-1.5808,-1.6115,-1.6687,-1.6246,-1.6714,-1.7862,-1.8143,-1.9118,-2.0588,-2.2058,-2.4155,-2.648,-2.7375,-2.807,-2.8604,-2.8764,-2.8631,-2.8177,-2.6841,-2.5611,0.0,-2.276,-2.193,-2.1256,0.0,-1.9987,-2.0512,-1.9599,-1.9573,-1.9693,-1.9267,0.0,0.0,0.0,-1.8023,-1.8116,-1.9116,-1.9103,-1.9145,-1.9923,-2.0615,-2.1162,-2.1309,-2.2612,-2.383,-2.4566,-2.5398,-2.5945,-2.5945,-2.6079,-2.6265,-2.6373,-2.6653,-2.6947,-2.7282,-2.7535,-2.7762,-2.7951,-2.8259,-2.8419,-2.8419,-2.8951,-2.9259,-2.9259,-2.97,-2.9913,-2.9913,-2.9913,-2.9913,-2.9913,-2.9913,-2.9913,-2.9913,-2.9913,-2.9913,-2.9913,-2.9913,-2.9913,-2.9913,-2.9913,-2.9913,-2.9913,-2.9913,-2.9913,-2.994,0.0,0.0,-1.0136,-1.0607,-1.1013,-1.1386,-1.1727,-1.1955,-1.2182,-1.2475,-1.297,-1.3181,-1.2856,-1.3141,-1.3124,-1.2548,-1.2077,-1.1565,-1.0952,-1.1576,-1.1876,-1.1711,-1.3528,-1.4636,-1.486,-1.6126,-1.6591,-1.6217,-1.642,-1.6275,-1.5808,-1.5808,-1.642,-1.7501,-1.6846,-1.7648,-1.9441,-1.8716,-1.945,-2.1264,-2.3705,-2.5226,-2.6226,-2.7762,-2.8457,-2.8601,-2.8895,-2.8841,-2.847,-2.7041,-2.6052,-2.5144,-2.3576,-2.3148,0.0,0.0,0.0,-2.2064,-2.0668,-2.0775,-2.1208,-2.0806,0.0,-1.9703,0.0,0.0,0.0,-1.9332,-1.909,-1.881,-1.9174,-1.9533,-1.9877,-2.0201,-2.1422,-2.2331,-2.2385,-2.3741,-2.4836,-2.5064,-2.5451,-2.5743,-2.5743,-2.6079,-2.656,-2.7175,-2.7188,-2.7348,-2.7682,-2.7965,-2.8125,-2.8179,-2.8724,-2.9001,-2.9001,-2.9575,-2.9913,-2.9913,-2.9913,-2.9913,-2.9913,-2.9913,-2.9913,-2.9913,-2.9913,-2.9913,-2.9913,-2.9913,-2.9913,-2.9913,-2.9913,-2.9913,-2.9913,-2.9913,-2.9913,-2.9967,-1.0088,-1.0257,-1.0409,-1.0655,-1.1126,-1.1541,-1.1774,-1.206,-1.2507,-1.3199,-1.3752,-1.4249,-1.4656,-1.4432,-1.4497,-1.5041,-1.3758,-1.2881,-1.28,-1.283,-1.2833,-1.2817,-1.3572,-1.4446,-1.5494,-1.5337,-1.5457,-1.5861,-1.5888,-1.5875,-1.5808,-1.5808,-1.6326,-1.7259,-1.7394,-1.8317,-1.976,-1.989,-2.1558,-2.4159,-2.4796,-2.4379,-2.3643,-2.6412,-2.7268,-2.72,-2.8521,-2.8975,-2.8761,-2.7575,-2.6921,-2.6279,-2.4289,-2.4022,-2.4052,-2.2311,0.0,0.0,0.0,0.0,0.0,0.0,-2.1764,-2.2051,-1.9279,0.0,-1.9372,-1.8758,0.0,-1.8209,-1.8531,0.0,0.0,-1.8691,-1.9533,-2.0241,-2.0464,-2.1376,-2.2425,-2.3412,-2.4252,-2.4746,-2.4746,-2.4609,-2.5157,-2.6747,-2.5945,-2.6052,-2.7615,-2.7736,-2.7911,-2.8179,-2.8724,-2.9001,-2.9001,-2.9575,-2.9913,-2.9913,-2.9913,-2.9913,-2.9913,-2.9913,-2.9913,-2.9913,-2.9913,-2.9913,-2.9913,-2.9913,-2.9913,-2.9913,-2.9913,-2.9913,-2.9913,-2.9913,-2.9913,-2.9967,-1.0162,-1.0054,0.0,-1.0607,-1.0883,-1.12,-1.1733,-1.2873,-1.3734,-1.3866,-1.4616,-1.5186,-1.5268,-1.5057,-1.4986,0.0,0.0,-1.4196,-1.4537,0.0,0.0,-1.5926,-1.616,-1.6596,-1.727,-1.6613,-1.6301,-1.6315,-1.6166,-1.6005,-1.5808,-1.6005,-1.6834,-1.8196,-1.8518,-1.9813,-2.1817,-2.1416,-2.2164,-2.3647,-2.4165,-2.3848,-2.3527,-2.7215,-2.8577,-2.8698,-2.9282,-2.9432,-2.9112,-2.7923,-2.6987,-2.6226,-2.5705,-2.489,0.0,-2.3884,0.0,0.0,0.0,0.0,0.0,-2.2031,-2.2245,-2.2271,-2.0258,-1.9519,-1.9279,-1.9252,0.0,0.0,0.0,0.0,0.0,0.0,-1.8971,-1.9412,-1.8996,-1.9867,-2.1042,-2.2392,-2.2873,-2.3367,-2.4062,-2.4022,-2.4396,-2.544,-2.5264,-2.5583,-2.6667,-2.7335,-2.7749,-2.7924,-2.847,-2.8828,-2.9001,-2.9459,-2.9753,-2.9913,-2.9913,-2.9913,-2.9913,-2.9913,-2.9913,-2.9913,-2.9913,-2.9913,-2.9913,-2.9913,-2.9913,-2.994,-3.01,-3.0074,-2.994,-3.0114,-3.0181,-3.0234,-1.0308,0.0,0.0,-1.059,-1.0769,-1.1151,-1.21,-1.3506,-1.4497,-1.4538,-1.5772,-1.6456,-1.6057,-1.631,-1.6407,0.0,-1.5545,-1.562,-1.6492,-1.6658,-1.7434,-1.9076,-1.88,-1.8771,-1.9107,-1.809,-1.7314,-1.6834,-1.6565,-1.6326,-1.6192,-1.6326,-1.7248,-1.8824,-1.9481,-2.1047,-2.318,-2.2939,-2.3388,-2.4258,-2.47,-2.4957,-2.5373,-2.8003,-2.9379,-2.9913,-2.9913,-2.978,-2.9419,-2.823,-2.7296,-2.66,-2.6573,-2.5678,-2.47,0.0,0.0,0.0,-2.3033,-2.35,-2.3901,-2.2432,-2.2211,-2.2044,-2.0672,-1.9907,-1.957,-1.9867,-1.9463,0.0,0.0,0.0,0.0,0.0,0.0,-1.8971,-1.8129,-1.8676,-1.9679,-2.0989,-2.1496,-2.2151,-2.3215,-2.3094,-2.3327,-2.4329,-2.4302,-2.4767,-2.5931,-2.6841,-2.7455,-2.7696,-2.8297,-2.8751,-2.8988,-2.9339,-2.9633,-2.9913,-2.9913,-2.9913,-2.9913,-2.9913,-2.9913,-2.9913,-2.9913,-2.9913,-2.9913,-2.9913,-2.9913,-2.994,-3.0293,-3.0266,-3.006,-3.0319,-3.04,-3.048,-1.0574,-1.0534,0.0,0.0,-1.0972,-1.1687,-1.3134,-1.3669,-1.4302,-1.5333,-1.7356,-1.8347,-1.7455,-1.8893,-1.9464,-1.8215,-1.7238,-1.7375,-1.8894,-1.8388,-1.9159,-2.1663,-2.0715,-2.0307,-2.0632,-1.9185,-1.8036,-1.7192,-1.6834,-1.6859,-1.7152,-1.682,-1.7341,-1.8571,-2.003,-2.1502,-2.3,-2.4419,-2.5972,-2.7549,-2.7562,-2.843,-2.9566,-2.8257,-2.8657,-2.9913,-2.9913,-2.9913,-2.9726,-2.8567,-2.8138,-2.7871,-2.6466,-2.6319,-2.6507,-2.5398,-2.5651,-2.5919,-2.4231,-2.4569,-2.4756,-2.1871,-2.179,-2.1897,-1.9896,-2.0254,-2.0882,-2.0304,-2.1096,-2.1697,-2.1136,0.0,0.0,0.0,0.0,0.0,0.0,-1.7822,-1.7996,-1.889,-2.0281,-2.1376,-2.1991,-2.1301,-2.1649,-2.3683,-2.2739,-2.3255,-2.585,-2.6305,-2.6827,-2.7669,-2.8297,-2.8751,-2.8988,-2.9339,-2.9633,-2.9913,-2.9913,-2.9913,-2.9913,-2.9913,-2.9913,-2.9913,-2.9913,-2.9913,-2.9913,-2.9913,-2.9913,-2.994,-3.0293,-3.04,-3.0386,-3.04,-3.04,-3.0453,0.0,0.0,0.0,0.0,-1.0891,-1.1989,-1.4703,-1.6013,-1.6954,-1.7679,-1.8888,-1.9857,-2.0208,-2.0741,-2.1565,-2.2653,-2.2186,-2.2236,-2.321,-2.2402,-2.2783,-2.4789,-2.3174,-2.2291,-2.2432,-2.0788,-1.9535,-1.8652,-1.7929,-1.7716,-1.805,-1.7541,-1.7956,-1.916,-2.0401,-2.2004,-2.3821,-2.4903,-2.6039,-2.7148,-2.7535,-2.8591,-2.986,-2.9352,-2.9486,-2.9913,-2.9913,-2.9913,-2.986,-2.9446,-2.8834,-2.8165,-2.803,-2.7188,-2.6253,-2.6239,-2.6026,-2.5678,-2.509,-2.5638,-2.5812,-2.346,-2.3121,-2.28,-2.0739,-2.0873,-2.1208,-2.0357,-2.1291,-2.2031,-2.1256,0.0,0.0,0.0,0.0,0.0,0.0,-1.7194,-1.7261,-1.7956,-1.9201,0.0,-2.0258,-2.0334,-2.0922,-2.2238,-2.2285,-2.31,-2.4983,-2.5919,-2.6707,-2.7388,-2.7802,-2.8337,-2.8988,-2.9095,-2.9432,-2.9913,-2.9913,-2.9913,-2.9913,-2.9913,-2.9913,-2.9913,-2.9913,-2.9913,-2.9927,-3.0127,-3.0207,-3.0261,-3.0742,-3.0808,-3.0675,-3.0862,-3.0929,-3.0969,-1.1518,-1.1703,-1.1699,-1.1179,-1.1521,-1.3089,-1.6747,-1.8121,-1.9192,-2.046,-2.1941,-2.2983,-2.3155,-2.37,-2.4446,-2.5395,-2.5192,-2.526,-2.5938,-2.5216,-2.5467,-2.7106,-2.5504,-2.4479,-2.4422,-2.2779,-2.1381,-2.0177,-1.9359,-1.8971,-1.8945,-1.8343,-1.8531,0.0,-2.0726,-2.2245,-2.3981,-2.5491,-2.6707,-2.7627,-2.8243,-2.9005,-2.9766,-2.9873,-2.9913,-2.9913,-2.9913,-2.9913,-2.9913,-2.9913,-2.9406,-2.8848,-2.8935,-2.8123,-2.7068,-2.7121,-2.68,-2.636,-2.5932,-2.6386,-2.6507,-2.4569,-2.4155,-2.3723,-2.1649,-2.1796,-2.2158,-2.1323,-2.1971,-2.2699,-2.2552,0.0,0.0,0.0,0.0,0.0,0.0,-1.6834,-1.6847,-1.7221,0.0,0.0,0.0,-1.9519,-2.0067,-2.1194,-2.1483,-2.2398,-2.4235,-2.5344,-2.6293,-2.7081,-2.7495,-2.8136,-2.8988,-2.9001,-2.9295,-2.9913,-2.9913,-2.9913,-2.9913,-2.9913,-2.9913,-2.9913,-2.9913,-2.998,-3.0087,-3.0333,-3.0467,-3.0614,-3.1036,-3.1116,-3.0969,-3.1156,-3.1176,-3.1276,-1.2309,-1.2827,-1.3159,-1.244,-1.3044,-1.5033,-1.9264,-2.0013,-2.1003,-2.3511,-2.6149,-2.7354,-2.6168,-2.7598,-2.8041,-2.6577,-2.6441,-2.6656,-2.7205,-2.6945,-2.7334,-2.8678,-2.7575,-2.68,-2.6507,-2.5024,-2.3394,-2.1689,-2.1047,-2.0401,-1.9826,-1.9239,0.0,0.0,-2.0927,-2.2224,-2.3487,-2.6131,-2.7923,-2.9068,-2.9642,-2.9753,-2.9539,-2.9793,-2.99,-2.99,-2.9913,-2.9913,-2.9913,-2.9913,-2.9913,-2.982,-2.9202,-2.9015,-2.8841,-2.8003,-2.7991,-2.7965,-2.6787,-2.6921,-2.6894,-2.5159,-2.4943,-2.4633,-2.2592,-2.3081,-2.3736,-2.3121,-2.3233,-2.3794,-2.4823,-2.3429,0.0,0.0,0.0,0.0,0.0,0.0,-1.6767,0.0,0.0,0.0,0.0,-1.8853,-1.9134,-2.0539,-2.0401,-2.1296,-2.3683,-2.4606,-2.5585,-2.6747,-2.7388,-2.8136,-2.8988,-2.9015,-2.9308,-2.9913,-2.9913,-2.9913,-2.9913,-2.9913,-2.9913,-2.9913,-2.9913,-3.0074,-3.0386,-3.0413,-3.0587,-3.0822,-3.1129,-3.1203,-3.1203,-3.1203,-3.1203,-3.1289,-1.3933,-1.5788,-1.7804,-1.9073,-1.7882,-1.8116,-2.2212,-2.3053,-2.3927,-2.5752,-2.7317,-2.8416,-2.8802,-2.9194,-2.9922,-3.1096,-3.1065,-3.0902,-3.0799,-3.029,-3.0136,-3.0509,-2.9175,-2.8294,-2.8043,-2.5945,-2.4315,-2.3241,-2.1724,-2.0815,-2.0472,-1.9853,0.0,0.0,0.0,-2.2124,-2.3803,-2.5583,-2.7523,-2.9406,-2.9766,-2.9873,-2.9793,-2.9646,-2.9593,-2.9619,-2.9847,-2.9913,-2.9913,-2.9913,-2.9913,-2.9847,-2.9486,-2.9366,-2.9232,-2.8577,-2.843,-2.8377,-2.7884,-2.7844,-2.775,-2.6854,-2.6198,-2.5516,-2.4539,-2.49,-2.5208,-2.4342,-2.4943,-2.5291,-2.4325,-2.3487,0.0,0.0,0.0,0.0,0.0,0.0,0.0,-1.8612,0.0,0.0,-1.7822,-1.8612,-1.9321,-1.9709,-2.0441,-2.1724,-2.371,-2.4182,-2.517,-2.6734,-2.7388,-2.8136,-2.8988,-2.9259,-2.9553,-2.9913,-2.9913,-2.9913,-2.9913,-2.9913,-2.9913,-2.9913,-2.9913,-2.9967,-3.006,-3.0501,-3.0728,-3.0849,-3.1356,-3.1557,-3.1557,-3.1557,-3.1557,-3.157,-1.6421,-1.8912,-2.1489,-2.273,-2.2655,-2.3175,-2.5412,-2.5579,-2.6179,-2.8251,-2.9548,-3.0467,-3.1034,-3.1364,-3.2044,-3.3274,-3.3093,-3.2692,-3.2144,-3.2038,-3.1824,-3.1436,-3.0635,-2.9993,-2.9566,-2.7629,0.0,-2.4529,0.0,0.0,-2.0855,0.0,0.0,0.0,0.0,-2.1884,-2.334,-2.5743,-2.7831,-2.9513,-2.9806,-2.9993,0.0,-3.0074,-2.99,-2.9686,-2.986,-2.9833,-2.9726,-2.9726,-2.9806,-2.986,-2.9579,-2.9486,-2.9392,-2.8925,-2.8711,-2.8564,-2.8433,-2.8286,-2.8098,-2.7777,-2.7322,-2.6734,-2.5877,-2.5944,-2.5999,-2.5504,-2.5625,-2.5743,-2.5396,-2.4102,-2.2458,0.0,0.0,0.0,0.0,0.0,0.0,0.0,-1.8637,-1.8277,-1.73,-1.817,-1.8798,-1.8798,-1.988,-2.1149,-2.2539,-2.3741,-2.4957,-2.6173,-2.7068,-2.7936,-2.8801,-2.9138,-2.9499,-2.9913,-2.9913,-2.9913,-2.9913,-2.9913,-2.9913,-2.9913,-2.9913,-2.9993,-3.014,-3.0608,-3.0862,-3.1022,-3.149,-3.1711,-3.1711,-3.1711,-3.1711,-3.1711,-1.9666,-2.2192,-2.4489,-2.4686,-2.683,-2.8513,-2.8634,-2.7914,-2.8239,-3.077,-3.2112,-3.2822,-3.2822,-3.348,-3.3948,-3.3948,-3.3654,-3.3146,-3.2385,-3.2772,-3.2679,-3.1925,-3.1858,-3.155,-3.0915,-2.9392,-2.7615,0.0,0.0,0.0,-2.0922,0.0,0.0,0.0,0.0,0.0,-2.2979,-2.6293,-2.839,-2.9513,-2.9806,-3.0114,-3.048,-3.0662,-3.0421,-2.9967,-2.9887,-2.9673,-2.9432,-2.9472,-2.9646,-2.982,-2.9606,-2.9539,-2.9486,-2.9135,-2.8925,-2.8711,-2.8671,-2.8444,-2.8245,-2.8245,-2.8219,-2.7924,-2.6854,-2.6653,-2.6653,-2.6653,-2.5985,-2.581,-2.6974,-2.49,-2.2278,0.0,0.0,0.0,0.0,0.0,0.0,0.0,0.0,0.0,-1.7487,-1.7862,-1.8115,-1.7995,-1.9036,-2.012,-2.1109,-2.3118,-2.4626,-2.5491,-2.6653,-2.7737,-2.8604,-2.8895,-2.9335,-2.9913,-2.9913,-2.9913,-2.9913,-2.9913,-2.9913,-2.9913,-2.9913,-3.0087,-3.0426,-3.0675,-3.0982,-3.1316,-3.157,-3.1711,-3.1711,-3.1711,-3.1711,-3.1711,-2.4018,-2.5793,-2.7032,-2.7084,-2.8728,-3.0266,-3.0988,-3.0949,-3.1265,-3.2478,-3.3414,-3.4002,-3.4002,-3.4148,-3.4242,-3.4242,-3.3975,-3.3734,-3.3587,-3.3427,-3.316,-3.2772,-3.2567,-3.2166,-3.1577,-2.9606,-2.7709,0.0,-2.395,-2.197,-2.0027,-2.009,0.0,0.0,0.0,0.0,-2.4743,-2.6827,-2.839,-2.9513,-2.9806,-3.0234,-3.0702,-3.056,-3.0413,-3.0266,-2.974,-2.9366,-2.9108,-2.9406,-2.9513,-2.9593,-2.978,-2.9847,-2.978,-2.9486,-2.9366,-2.9272,-2.9032,-2.8751,-2.8524,-2.8524,-2.8379,-2.8125,-2.7924,-2.7871,-2.7871,-2.7871,-2.7563,-2.7094,-2.6627,-2.4967,-2.3108,-2.1462,0.0,0.0,0.0,0.0,0.0,0.0,0.0,-1.9279,-1.8371,-1.8812,-1.8838,-1.8049,-1.8663,-1.9773,-2.1422,-2.2098,-2.3394,-2.5451,-2.6653,-2.7737,-2.8604,-2.9138,-2.9579,-2.9913,-2.9913,-2.9913,-2.9913,-2.9913,-2.9913,-2.9913,-2.9913,-3.0087,-3.0426,-3.0675,-3.1116,-3.1644,-3.1698,-3.1711,-3.1711,-3.1711,-3.1711,-3.1711,-2.7025,-2.815,-2.8951,-2.9245,-3.056,-3.1791,-3.2465,-3.3106,-3.3374,-3.3026,-3.348,-3.3841,-3.3841,-3.4269,-3.4549,-3.4549,-3.4282,-3.4108,-3.4108,-3.3828,-3.3601,-3.3454,-3.3062,-3.2621,-3.2179,-3.0453,-2.8644,-2.6854,-2.4649,-2.2612,-2.0739,-2.0374,-1.992,-1.9468,0.0,-2.3362,-2.5677,-2.7282,-2.8754,-3.0012,-3.0247,-3.0728,-3.1236,-3.1136,-3.0895,-3.0541,-3.0261,-2.9873,-2.9455,-2.9486,-2.9486,-2.9539,-2.982,-2.9913,-2.9887,-2.9753,-2.9606,-2.9459,-2.9312,-2.9058,-2.8748,-2.8644,-2.8497,-2.8379,-2.8219,-2.8179,-2.8179,-2.8179,-2.8072,-2.7603,-2.6426,-2.5007,-2.3661,-2.2645,-2.2117,0.0,0.0,0.0,0.0,0.0,0.0,0.0,0.0,-1.8798,-1.8637,-1.7422,-1.8303,-1.9426,-2.0619,-2.1643,-2.3086,-2.4959,-2.6199,-2.7349,-2.8393,-2.8951,-2.9472,-2.9913,-2.9913,-2.9913,-2.9913,-2.9913,-2.9913,-2.9913,-2.9913,-3.0087,-3.044,-3.0835,-3.1276,-3.1711,-3.1711,-3.1711,-3.1711,-3.1711,-3.1711,-3.1711,-2.9202,-2.9887,-3.0448,-3.0982,-3.2051,-3.3036,-3.344,-3.4469,-3.4776,-3.3601,-3.3654,-3.3788,-3.3788,-3.4429,-3.4909,-3.4909,-3.4589,-3.4416,-3.4416,-3.4135,-3.3948,-3.3895,-3.3427,-3.3049,-3.2701,-3.1376,-2.9784,-2.7896,-2.5665,-2.3603,-2.1662,-2.0869,-2.0374,-2.0231,-2.2398,-2.4446,-2.6359,-2.771,-2.9142,-3.052,-3.0702,-3.1142,-3.1711,-3.1711,-3.1383,-3.0969,-3.0902,-3.0541,-3.006,-2.9833,-2.9633,-2.9513,-2.9673,-2.978,-2.982,-2.982,-2.9713,-2.9579,-2.9579,-2.9366,-2.9085,-2.8845,-2.8698,-2.8537,-2.8339,-2.8232,-2.8179,-2.8179,-2.8179,-2.7737,-2.6265,-2.5358,-2.4543,-2.3581,-2.2979,-2.2552,0.0,0.0,0.0,0.0,0.0,0.0,-1.8503,-1.8476,-1.8143,-1.7154,-1.8089,-1.9076,-1.9947,-2.1363,-2.2852,-2.4452,-2.5692,-2.6867,-2.7991,-2.8671,-2.9295,-2.9913,-2.9913,-2.9913,-2.9913,-2.9913,-2.9913,-2.9913,-2.998,-3.0207,-3.0627,-3.1102,-3.1463,-3.1711,-3.1711,-3.1711,-3.1711,-3.1711,-3.1711,-3.1711,-3.0515,-3.1102,-3.161,-3.1931,-3.2973,-3.3774,-3.3841,-3.4616,-3.5151,-3.5004,-3.5017,-3.503,-3.503,-3.511,-3.5151,-3.5151,-3.4883,-3.4775,-3.4775,-3.4442,-3.4162,-3.3895,-3.3828,-3.3534,-3.2995,-3.2072,-3.0555,-2.8524,-2.6734,-2.4512,-2.197,-2.1622,-2.1863,-2.2639,-2.4205,-2.5757,-2.7242,-2.8163,-2.9406,-3.0755,-3.0782,-3.1142,-3.1711,-3.1711,-3.1684,-3.1604,-3.1276,-3.0982,-3.0702,-3.0675,-3.014,-2.9446,-2.9148,-2.9312,-2.9526,-2.9526,-2.9686,-2.9873,-2.9873,-2.9659,-2.9432,-2.9406,-2.9005,-2.8604,-2.8577,-2.8393,-2.8179,-2.8179,-2.8179,-2.7737,-2.6265,-2.656,-2.6305,-2.4124,-2.4365,-2.4422,-2.3319,0.0,-2.2439,-2.1529,0.0,0.0,-1.9653,-1.8251,-1.7622,-1.8277,-1.8169,-1.8823,-2.0539,-2.1002,-2.2151,-2.4182,-2.5422,-2.6466,-2.7376,-2.847,-2.9295,-2.9913,-2.9913,-2.9913,-2.9913,-2.9913,-2.9913,-2.9927,-3.0207,-3.0635,-3.1169,-3.149,-3.1684,-3.1711,-3.1711,-3.1711,-3.1711,-3.1711,-3.1711,-3.1711,-3.2278,-3.2326,-3.25,-3.3293,-3.3534,-3.3841,-3.4563,-3.4977,-3.5191,-3.5191,-3.5191,-3.5191,-3.5191,-3.5191,-3.5191,-3.5191,-3.5097,-3.5017,-3.5017,-3.475,-3.4536,-3.4416,-3.4242,-3.3948,-3.3534,-3.2826,-3.1623,-2.9913,-2.8179,-2.6319,-2.4392,-2.3701,-2.3875,-2.482,-2.6079,-2.7281,-2.8404,-2.9472,-3.0354,-3.1062,-3.1249,-3.1463,-3.1711,-3.1711,-3.1711,-3.1698,-3.153,-3.141,-3.1263,-3.0915,-3.0327,-2.9726,-2.9562,-2.9526,-2.9486,-2.9486,-2.9566,-2.97,-2.9873,-2.9833,-2.97,-2.9526,-2.9312,-2.9045,-2.8684,-2.8511,-2.8406,-2.8219,-2.8179,-2.7951,-2.7188,-2.676,-2.6332,-2.5692,-2.5157,-2.4716,-2.4422,0.0,0.0,-2.1957,0.0,0.0,0.0,-1.8838,-1.8437,-1.9,-1.8103,-1.8237,-1.9843,-2.0539,-2.1662,-2.3375,-2.5262,-2.66,-2.7296,-2.8617,-2.9513,-2.9913,-2.9913,-2.9913,-2.9913,-2.9913,-3.0007,-3.0207,-3.0675,-3.1009,-3.1249,-3.1543,-3.1711,-3.1711,-3.1711,-3.1711,-3.1711,-3.1711,-3.1711,-3.1711,-3.3601,-3.3347,-3.3387,-3.4402,-3.4295,-3.4349,-3.5191,-3.5391,-3.5458,-3.5458,-3.5378,-3.5284,-3.5204,-3.5191,-3.5191,-3.5191,-3.5191,-3.5191,-3.5191,-3.5004,-3.4909,-3.4815,-3.4563,-3.4282,-3.3895,-3.3387,-3.2478,-3.1183,-2.9704,-2.8219,-2.676,-2.5825,-2.5879,-2.6827,-2.7776,-2.8764,-2.9695,-3.0662,-3.1276,-3.1637,-3.1885,-3.1979,-3.1979,-3.1979,-3.1925,-3.1845,-3.1845,-3.1791,-3.161,-3.1196,-3.0715,-3.0261,-2.9993,-2.9833,-2.9757,-2.9539,-2.9606,-2.9753,-2.978,-2.9847,-2.986,-2.9659,-2.9553,-2.9352,-2.8845,-2.8671,-2.8524,-2.8245,-2.8179,-2.8098,-2.7749,-2.7028,-2.6533,-2.656,-2.5772,-2.5077,-2.485,-2.4035,0.0,-2.2372,-2.1243,-2.0481,-2.0334,-1.9399,-1.9092,-1.9856,-1.8772,-1.8652,-1.9963,-2.0712,-2.1777,-2.334,-2.5424,-2.68,-2.7429,-2.8778,-2.9633,-2.9913,-2.9913,-2.9913,-2.9913,-3.0007,-3.0247,-3.0635,-3.1049,-3.1276,-3.137,-3.1583,-3.1711,-3.1711,-3.1711,-3.1711,-3.1711,-3.1711,-3.1711,-3.1711,-3.4189,-3.4295,-3.4482,-3.5084,-3.5418,-3.5551,-3.5565,-3.5872,-3.6113,-3.6113,-3.5805,-3.5511,-3.5231,-3.5191,-3.5191,-3.5191,-3.5191,-3.5191,-3.5191,-3.5191,-3.5057,-3.4829,-3.4815,-3.4482,-3.3895,-3.3587,-3.295,-3.2091,-3.1196,-3.0007,-2.8551,-2.7697,-2.7709,-2.8604,-2.9192,-3.0114,-3.1223,-3.153,-3.2045,-3.2581,-3.2581,-3.2581,-3.2581,-3.2581,-3.2407,-3.2104,-3.2104,-3.1904,-3.1711,-3.1711,-3.1463,-3.1016,-3.0194,-3.0114,-3.0279,-2.9659,-2.9945,-3.0266,-2.9691,-2.97,-2.9913,-2.9913,-2.97,-2.9406,-2.9055,-2.8775,-2.8524,-2.8245,-2.8179,-2.8098,-2.7749,-2.7682,-2.7308,-2.6198,-2.6238,-2.5865,-2.4422,-2.3955,0.0,-2.296,-2.1309,-2.0575,-2.1475,-1.9722,-1.9212,-2.0962,-2.0504,-2.0588,-2.1515,-2.1836,-2.2779,-2.4519,-2.6013,-2.7094,-2.7682,-2.8885,-2.9633,-2.9913,-2.9913,-2.9913,-2.9927,-3.0221,-3.0675,-3.1162,-3.1223,-3.1396,-3.1711,-3.1711,-3.1711,-3.1711,-3.1711,-3.1711,-3.1711,-3.1711,-3.1711,-3.1711,-3.4883,-3.4923,-3.5044,-3.5418,-3.5511,-3.5698,-3.5899,-3.6019,-3.6072,-3.6072,-3.5992,-3.5819,-3.5525,-3.5311,-3.5191,-3.5191,-3.5191,-3.5191,-3.5191,-3.5191,-3.5151,-3.5057,-3.5057,-3.4883,-3.4548,-3.4189,-3.3694,-3.3,-3.2118,-3.1142,-3.01,-3.0007,-3.0221,-3.0715,-3.1102,-3.1583,-3.2179,-3.2273,-3.242,-3.2594,-3.2594,-3.2594,-3.2594,-3.2594,-3.2541,-3.2433,-3.2171,-3.2051,-3.1931,-3.1778,-3.161,-3.1476,-3.1196,-3.0814,-3.0373,-3.0186,-3.0074,-3.002,-2.9833,-2.9847,-2.9873,-2.9673,-2.97,-2.97,-2.9406,-2.8965,-2.8524,-2.8245,-2.8179,-2.8152,-2.8058,-2.7829,-2.7509,-2.6988,-2.6587,-2.6012,-2.4957,-2.4245,-2.3576,-2.2974,-2.2017,-2.1537,-2.185,-2.1114,-2.0753,-2.1082,-2.0904,-2.1042,-2.1555,-2.2639,-2.3554,-2.4315,-2.6346,-2.7602,-2.8045,-2.9179,-2.982,-2.9913,-2.9913,-3.002,-3.0279,-3.0728,-3.1049,-3.1189,-3.1436,-3.1583,-3.1711,-3.1711,-3.1711,-3.1711,-3.1711,-3.1711,-3.1711,-3.1711,-3.1711,-3.1711,-3.5364,-3.5444,-3.5578,-3.5765,-3.5885,-3.6019,-3.6206,-3.6326,-3.6393,-3.6393,-3.6299,-3.6166,-3.5979,-3.5698,-3.5431,-3.5217,-3.5191,-3.5191,-3.5191,-3.5191,-3.5191,-3.5191,-3.5191,-3.5057,-3.4829,-3.4576,-3.4242,-3.3748,-3.2986,-3.2265,-3.161,-3.169,-3.1824,-3.2059,-3.2185,-3.2487,-3.2755,-3.2755,-3.2822,-3.2915,-3.2915,-3.2915,-3.2915,-3.2915,-3.2848,-3.2728,-3.2492,-3.2358,-3.2225,-3.1931,-3.1837,-3.181,-3.1751,-3.1336,-3.0855,-3.0641,-3.0474,-3.0354,-3.014,-3.0087,-3.002,-2.9713,-2.978,-2.9847,-2.9553,-2.9032,-2.8551,-2.8393,-2.8272,-2.8179,-2.8179,-2.8031,-2.7777,-2.7376,-2.6774,-2.6079,-2.5197,-2.4222,-2.346,-2.3121,-2.2639,-2.2345,-2.2345,-2.2492,-2.2505,-2.2285,-2.2579,-2.2899,-2.3228,-2.371,-2.4315,-2.5157,-2.7041,-2.823,-2.8687,-2.9486,-2.9913,-2.9913,-3.0034,-3.0234,-3.0541,-3.1009,-3.1289,-3.1396,-3.1583,-3.1711,-3.1711,-3.1711,-3.1711,-3.1711,-3.1711,-3.1711,-3.1711,-3.1711,-3.1711,-3.1711,-3.5605,-3.5885,-3.614,-3.6099,-3.6326,-3.6513,-3.654,-3.6754,-3.6885,-3.6885,-3.6687,-3.654,-3.65,-3.6259,-3.5872,-3.5311,-3.5244,-3.5231,-3.5231,-3.5204,-3.5191,-3.5191,-3.5191,-3.507,-3.4855,-3.4829,-3.4616,-3.4322,-3.3697,-3.332,-3.304,-3.2795,-3.2661,-3.2661,-3.2661,-3.2808,-3.3013,-3.3013,-3.316,-3.3414,-3.3414,-3.3414,-3.3414,-3.3414,-3.324,-3.3013,-3.2986,-3.2848,-3.2581,-3.2238,-3.2131,-3.2091,-3.1858,-3.1764,-3.1583,-3.1022,-3.1036,-3.1102,-3.0587,-3.044,-3.036,-2.9993,-2.9913,-2.9847,-2.9553,-2.9058,-2.8657,-2.8617,-2.8419,-2.8205,-2.8192,-2.8165,-2.7965,-2.7376,-2.672,-2.6026,-2.5144,-2.4075,-2.3345,-2.3332,-2.3153,-2.3054,-2.3054,-2.3794,-2.4275,-2.4235,-2.5024,-2.5638,-2.5957,-2.497,-2.5184,-2.6854,-2.803,-2.8925,-2.9513,-2.978,-2.9927,-2.9953,-3.0247,-3.0587,-3.0835,-3.1129,-3.141,-3.1711,-3.1711,-3.1711,-3.1711,-3.1711,-3.1711,-3.1711,-3.1711,-3.1711,-3.1711,-3.1711,-3.1711,-3.1711,-3.5965,-3.6019,-3.6139,-3.6366,-3.6473,-3.658,-3.6794,-3.6845,-3.6885,-3.6885,-3.6861,-3.6754,-3.654,-3.6433,-3.6259,-3.5899,-3.5658,-3.5525,-3.5525,-3.5324,-3.5191,-3.5191,-3.5191,-3.5164,-3.5097,-3.487,-3.4616,-3.4322,-3.3961,-3.3748,-3.3668,-3.3347,-3.32,-3.32,-3.32,-3.324,-3.3307,-3.3307,-3.3347,-3.3414,-3.3414,-3.3414,-3.3414,-3.3414,-3.3374,-3.328,-3.3053,-3.2982,-3.2875,-3.2594,-3.2487,-3.2474,-3.2407,-3.2233,-3.1931,-3.157,-3.1343,-3.1142,-3.0795,-3.0688,-3.0568,-3.0047,-2.9913,-2.9847,-2.9553,-2.9379,-2.9152,-2.8698,-2.8551,-2.843,-2.8232,-2.8005,-2.7615,-2.7028,-2.6253,-2.5411,-2.4529,-2.4168,-2.3915,-2.3688,-2.4231,-2.4593,-2.4593,-2.4943,-2.5024,-2.4532,-2.5106,-2.5545,-2.5611,-2.6199,-2.6974,-2.7844,-2.8551,-2.9219,-2.9806,-2.9887,-3.0034,-3.0306,-3.0555,-3.0849,-3.1129,-3.1436,-3.1597,-3.1711,-3.1711,-3.1711,-3.1711,-3.1711,-3.1711,-3.1711,-3.1711,-3.1711,-3.1711,-3.1711,-3.1711,-3.1711,-3.6273,-3.638,-3.6513,-3.6687,-3.6687,-3.6754,-3.6901,-3.6885,-3.6885,-3.6885,-3.6885,-3.6861,-3.6727,-3.6687,-3.6592,-3.6473,-3.5952,-3.5685,-3.5819,-3.5431,-3.5257,-3.5391,-3.5271,-3.5191,-3.5191,-3.5044,-3.4817,-3.4523,-3.4362,-3.4148,-3.3881,-3.3708,-3.3547,-3.3414,-3.3414,-3.3414,-3.3414,-3.3414,-3.3414,-3.3414,-3.3414,-3.3414,-3.3414,-3.3414,-3.3414,-3.3387,-3.324,-3.3173,-3.3133,-3.2888,-3.2795,-3.2768,-3.2634,-3.2487,-3.2326,-3.2166,-3.177,-3.1396,-3.1236,-3.1089,-3.0875,-3.0434,-3.0114,-2.9913,-2.9887,-2.9717,-2.9392,-2.9072,-2.8898,-2.8711,-2.8417,-2.8152,-2.7615,-2.676,-2.6226,-2.5558,-2.4543,-2.4516,-2.4596,-2.4569,-2.5141,-2.5569,-2.5665,-2.6186,-2.6266,-2.564,-2.6172,-2.6573,-2.6747,-2.7455,-2.803,-2.8393,-2.8938,-2.9459,-2.9913,-3.0047,-3.0207,-3.0413,-3.0795,-3.1076,-3.1189,-3.153,-3.1711,-3.1711,-3.1711,-3.1711,-3.1711,-3.1711,-3.1711,-3.1711,-3.1711,-3.1711,-3.1711,-3.1711,-3.1711,-3.1711,-3.658,-3.6754,-3.6885,-3.6885,-3.6885,-3.6885,-3.6885,-3.6885,-3.6885,-3.6885,-3.6885,-3.6885,-3.6885,-3.6885,-3.6885,-3.6885,-3.6165,-3.5872,-3.6126,-3.5591,-3.5378,-3.5565,-3.5351,-3.5191,-3.5191,-3.5191,-3.5084,-3.4882,-3.4842,-3.4561,-3.4015,-3.3975,-3.3788,-3.348,-3.348,-3.3454,-3.3414,-3.3414,-3.3414,-3.3414,-3.3414,-3.3414,-3.3414,-3.3414,-3.3414,-3.3414,-3.3414,-3.3414,-3.3374,-3.3133,-3.304,-3.3,-3.2808,-3.2701,-3.2661,-3.2661,-3.2273,-3.1845,-3.1791,-3.149,-3.1169,-3.0915,-3.0448,-3.01,-3.036,-3.0012,-2.9593,-2.9499,-2.9285,-2.8975,-2.8724,-2.8419,-2.7817,-2.664,-2.6386,-2.5932,-2.4759,-2.497,-2.5355,-2.5611,-2.6065,-2.6439,-2.6694,-2.7402,-2.7642,-2.7188,-2.7575,-2.7963,-2.8299,-2.8564,-2.8738,-2.8738,-2.9272,-2.9686,-2.998,-3.0279,-3.0453,-3.0547,-3.0996,-3.1249,-3.1303,-3.1557,-3.1711,-3.1711,-3.1711,-3.1711,-3.1711,-3.1711,-3.1711,-3.1711,-3.1711,-3.1711,-3.1724,-3.1764,-3.1751,-3.1724,-3.6861,-3.6845,-3.6885,-3.6885,-3.6885,-3.6885,-3.6885,-3.6885,-3.6885,-3.6885,-3.6885,-3.6885,-3.6885,-3.6885,-3.6885,-3.6885,-3.658,-3.6393,-3.6433,-3.5885,-3.5578,-3.5631,-3.5351,-3.5191,-3.5191,-3.5191,-3.5177,-3.5124,-3.4936,-3.4762,-3.4668,-3.4376,-3.4095,-3.3814,-3.3814,-3.3668,-3.3414,-3.3414,-3.3414,-3.3414,-3.3414,-3.3414,-3.3414,-3.3414,-3.3414,-3.3414,-3.3414,-3.3414,-3.34,-3.336,-3.3347,-3.3334,-3.3293,-3.3106,-3.2955,-3.2955,-3.2728,-3.2407,-3.2104,-3.1637,-3.1162,-3.1169,-3.0902,-3.0608,-3.0453,-3.0333,-3.0132,-2.9637,-2.9446,-2.9325,-2.8988,-2.8524,-2.7884,-2.6907,-2.6346,-2.5743,-2.4733,-2.5317,-2.5971,-2.6213,-2.7215,-2.7965,-2.823,-2.839,-2.8524,-2.8641,-2.8551,-2.8591,-2.8841,-2.9179,-2.9352,-2.9352,-2.9673,-2.9993,-3.0333,-3.0386,-3.0654,-3.1089,-3.1183,-3.1356,-3.1597,-3.1698,-3.1711,-3.1711,-3.1711,-3.1711,-3.1711,-3.1711,-3.1711,-3.1711,-3.1711,-3.1711,-3.1751,-3.1944,-3.1877,-3.1791,-3.6885,-3.6885,-3.6885,-3.6885,-3.6885,-3.6885,-3.6885,-3.6885,-3.6885,-3.6885,-3.6885,-3.6885,-3.6885,-3.6885,-3.6885,-3.6885,-3.6779,-3.6727,-3.6727,-3.6046,-3.5698,-3.5859,-3.5431,-3.5191,-3.5191,-3.5191,-3.5191,-3.5191,-3.5057,-3.491,-3.4815,-3.4629,-3.4402,-3.4108,-3.3961,-3.3801,-3.3654,-3.348,-3.3414,-3.3414,-3.3414,-3.3414,-3.3414,-3.3414,-3.3414,-3.3414,-3.3414,-3.3414,-3.3414,-3.3414,-3.3414,-3.3414,-3.3414,-3.332,-3.3213,-3.3213,-3.2942,-3.2527,-3.2185,-3.1904,-3.1664,-3.1503,-3.1249,-3.0996,-3.0862,-3.0702,-3.052,-3.0092,-2.9998,-2.9864,-2.9366,-2.8791,-2.815,-2.7415,-2.68,-2.6279,-2.5826,-2.6306,-2.6867,-2.7322,-2.8005,-2.8511,-2.8775,-2.8801,-2.8855,-2.8988,-2.8868,-2.8965,-2.9259,-2.9406,-2.9633,-2.9998,-3.0087,-3.0221,-3.04,-3.0675,-3.0969,-3.1176,-3.1383,-3.153,-3.1711,-3.1711,-3.1711,-3.1711,-3.1711,-3.1711,-3.1711,-3.1711,-3.1805,-3.1904,-3.1904,-3.2045,-3.2206,-3.234,-3.23,-3.2233,-3.6885,-3.6885,-3.6885,-3.6885,-3.6885,-3.6885,-3.6885,-3.6885,-3.6885,-3.6885,-3.6885,-3.6885,-3.6885,-3.6885,-3.6885,-3.6885,-3.6885,-3.6885,-3.6885,-3.6246,-3.5939,-3.6166,-3.5672,-3.5404,-3.5404,-3.5404,-3.5364,-3.5297,-3.5297,-3.5151,-3.487,-3.487,-3.471,-3.4416,-3.4189,-3.4015,-3.3868,-3.3627,-3.348,-3.3414,-3.3414,-3.3414,-3.3414,-3.3414,-3.3414,-3.3414,-3.3414,-3.3414,-3.3414,-3.3414,-3.3414,-3.3414,-3.3414,-3.3414,-3.3414,-3.3414,-3.3093,-3.2728,-3.2385,-3.2251,-3.2131,-3.1837,-3.1597,-3.1396,-3.1216,-3.1049,-3.0808,-3.056,-3.0507,-3.0346,-2.9824,-2.9259,-2.8671,-2.7923,-2.7482,-2.7161,-2.6947,-2.7308,-2.7791,-2.8245,-2.8577,-2.8898,-2.9081,-2.9161,-2.9202,-2.9202,-2.9202,-2.9295,-2.9579,-2.9646,-2.9972,-3.0493,-3.0507,-3.0533,-3.0614,-3.0996,-3.1263,-3.133,-3.1557,-3.1711,-3.1711,-3.1711,-3.1751,-3.177,-3.177,-3.1858,-3.1925,-3.1925,-3.2045,-3.2211,-3.2211,-3.2393,-3.2607,-3.2674,-3.2648,-3.2607,-3.6885,-3.6885,-3.6885,-3.6885,-3.6885,-3.6885,-3.6885,-3.6885,-3.6885,-3.6885,-3.6885,-3.6885,-3.6885,-3.6885,-3.6885,-3.6885,-3.6885,-3.6885,-3.6885,-3.662,-3.6433,-3.6473,-3.6179,-3.6006,-3.6006,-3.6006,-3.5872,-3.5591,-3.5591,-3.5444,-3.5164,-3.5164,-3.5004,-3.4788,-3.4762,-3.4402,-3.3881,-3.3855,-3.3681,-3.3414,-3.3414,-3.3414,-3.3414,-3.3414,-3.3414,-3.3414,-3.3414,-3.3414,-3.3414,-3.3414,-3.3414,-3.3414,-3.3414,-3.3414,-3.3414,-3.3414,-3.3387,-3.328,-3.2986,-3.2768,-3.2487,-3.2144,-3.2051,-3.1891,-3.1356,-3.1162,-3.1116,-3.0822,-3.0755,-3.0662,-3.04,-3.0034,-2.9446,-2.8339,-2.831,-2.819,-2.7389,-2.7963,-2.8524,-2.8564,-2.9072,-2.9432,-2.9446,-2.97,-2.9847,-2.9847,-2.9847,-2.986,-2.9887,-3.014,-3.048,-3.0755,-3.0755,-3.0889,-3.1156,-3.1162,-3.1356,-3.1684,-3.1711,-3.1711,-3.1711,-3.1711,-3.1824,-3.2064,-3.2064,-3.2273,-3.2527,-3.2527,-3.2541,-3.2567,-3.2567,-3.2581,-3.2621,-3.2902,-3.2822,-3.2674,-3.6885,-3.6885,-3.6885,-3.6885,-3.6885,-3.6885,-3.6885,-3.6885,-3.6885,-3.6885,-3.6885,-3.6885,-3.6885,-3.6885,-3.6885,-3.6885,-3.6885,-3.6885,-3.6885,-3.6779,-3.662,-3.6259,-3.6126,-3.6072,-3.6072,-3.6072,-3.5925,-3.5578,-3.5578,-3.5485,-3.5191,-3.5191,-3.5137,-3.5017,-3.4895,-3.4695,-3.4416,-3.4242,-3.3988,-3.3708,-3.3708,-3.3587,-3.3414,-3.3414,-3.3414,-3.3414,-3.3414,-3.3414,-3.3414,-3.3414,-3.3414,-3.3414,-3.3414,-3.3414,-3.3414,-3.3414,-3.3414,-3.3387,-3.328,-3.304,-3.2795,-3.25,-3.242,-3.2367,-3.2139,-3.1904,-3.169,-3.1396,-3.1183,-3.0969,-3.0675,-3.0394,-3.0092,-2.9637,-2.9152,-2.8818,-2.8671,-2.8778,-2.8938,-2.9125,-2.9513,-2.9753,-2.9753,-3.002,-3.0194,-3.0194,-3.0354,-3.0461,-3.0461,-3.0742,-3.0942,-3.1049,-3.1236,-3.1303,-3.1176,-3.141,-3.1557,-3.1724,-3.1851,-3.1931,-3.1944,-3.2179,-3.2326,-3.242,-3.242,-3.2487,-3.2594,-3.2594,-3.2701,-3.2862,-3.2862,-3.2969,-3.3093,-3.32,-3.3173,-3.312,-3.6885,-3.6885,-3.6885,-3.6885,-3.6885,-3.6885,-3.6885,-3.6885,-3.6885,-3.6885,-3.6885,-3.6885,-3.6885,-3.6885,-3.6885,-3.6885,-3.6885,-3.6885,-3.6885,-3.6885,-3.6754,-3.6366,-3.634,-3.634,-3.634,-3.634,-3.6206,-3.5899,-3.5819,-3.5618,-3.5324,-3.5244,-3.5191,-3.5191,-3.499,-3.4909,-3.4802,-3.4549,-3.4295,-3.4028,-3.4028,-3.3841,-3.3561,-3.3561,-3.3494,-3.3414,-3.3414,-3.3414,-3.3414,-3.3414,-3.3414,-3.3414,-3.3414,-3.3414,-3.3414,-3.3414,-3.3414,-3.3414,-3.3414,-3.3267,-3.304,-3.2808,-3.2728,-3.2701,-3.2621,-3.2433,-3.2185,-3.2032,-3.1704,-3.141,-3.1116,-3.0835,-3.0614,-3.044,-2.9927,-2.9633,-2.974,-2.9659,-2.9633,-2.9798,-3.002,-3.0154,-3.006,-3.0327,-3.0547,-3.0547,-3.0675,-3.0835,-3.0929,-3.1116,-3.1316,-3.149,-3.1704,-3.1757,-3.1637,-3.1744,-3.181,-3.181,-3.2104,-3.2238,-3.2251,-3.25,-3.2648,-3.2728,-3.2728,-3.2781,-3.2862,-3.2862,-3.2982,-3.312,-3.312,-3.324,-3.3414,-3.3414,-3.3414,-3.3414,-3.6885,-3.6885,-3.6885,-3.6885,-3.6885,-3.6885,-3.6885,-3.6885,-3.6885,-3.6885,-3.6885,-3.6885,-3.6885,-3.6885,-3.6885,-3.6885,-3.6885,-3.6885,-3.6885,-3.6885,-3.6885,-3.6885,-3.6885,-3.6885,-3.6885,-3.6885,-3.6794,-3.65,-3.6219,-3.5925,-3.5565,-3.5338,-3.5204,-3.5191,-3.5191,-3.5044,-3.4815,-3.4815,-3.4603,-3.4322,-3.4322,-3.4148,-3.3895,-3.3895,-3.3694,-3.3414,-3.3414,-3.3414,-3.3414,-3.3414,-3.3414,-3.3414,-3.3414,-3.3414,-3.3414,-3.3414,-3.3414,-3.3414,-3.3414,-3.3414,-3.3347,-3.3053,-3.2986,-3.2906,-3.2661,-3.2594,-3.2594,-3.2594,-3.2367,-3.2024,-3.1778,-3.1436,-3.1049,-3.0507,-3.0608,-3.0702,-3.0453,-3.0608,-3.0688,-3.044,-3.0667,-3.0675,-3.044,-3.0621,-3.0795,-3.0795,-3.0795,-3.0929,-3.1176,-3.1236,-3.1503,-3.2091,-3.2104,-3.2251,-3.2594,-3.2251,-3.2104,-3.2104,-3.246,-3.2594,-3.2594,-3.2607,-3.2755,-3.2986,-3.2986,-3.3146,-3.3414,-3.3414,-3.3414,-3.3414,-3.3414,-3.3414,-3.3414,-3.3414,-3.3414,-3.3414,-3.6885,-3.6885,-3.6885,-3.6885,-3.6885,-3.6885,-3.6885,-3.6885,-3.6885,-3.6885,-3.6885,-3.6885,-3.6885,-3.6885,-3.6885,-3.6885,-3.6885,-3.6885,-3.6885,-3.6885,-3.6885,-3.6885,-3.6885,-3.6885,-3.6885,-3.6885,-3.6794,-3.65,-3.6433,-3.6112,-3.5631,-3.5538,-3.5391,-3.5191,-3.5191,-3.5151,-3.507,-3.507,-3.4897,-3.4629,-3.4629,-3.4456,-3.4189,-3.4189,-3.4135,-3.4042,-3.4042,-3.4042,-3.4015,-3.3814,-3.3748,-3.3708,-3.348,-3.3414,-3.3414,-3.3414,-3.3414,-3.3414,-3.3414,-3.3414,-3.3387,-3.3307,-3.328,-3.3253,-3.3173,-3.3,-3.2902,-3.2902,-3.2661,-3.2433,-3.2353,-3.226,-3.2005,-3.1417,-3.1403,-3.1283,-3.0728,-3.0742,-3.0755,-3.0675,-3.0742,-3.0755,-3.0675,-3.0929,-3.1089,-3.1089,-3.1476,-3.1744,-3.1837,-3.2038,-3.2286,-3.246,-3.246,-3.25,-3.2594,-3.25,-3.246,-3.246,-3.2755,-3.2902,-3.2902,-3.3066,-3.32,-3.328,-3.328,-3.3334,-3.34,-3.3187,-3.3227,-3.3387,-3.3187,-3.3227,-3.3414,-3.3414,-3.3414,-3.3414,-3.6885,-3.6885,-3.6885,-3.6885,-3.6885,-3.6885,-3.6885,-3.6885,-3.6885,-3.6885,-3.6885,-3.6885,-3.6885,-3.6885,-3.6885,-3.6885,-3.6885,-3.6885,-3.6885,-3.6885,-3.6885,-3.6885,-3.6885,-3.6885,-3.6885,-3.6885,-3.6805,-3.6687,-3.658,-3.6259,-3.5805,-3.5685,-3.5471,-3.5191,-3.5191,-3.5191,-3.5191,-3.5191,-3.5097,-3.4989,-3.4989,-3.4763,-3.4496,-3.4496,-3.4429,-3.4322,-3.4322,-3.4322,-3.4295,-3.4122,-3.4055,-3.4028,-3.3828,-3.3694,-3.3601,-3.3601,-3.3507,-3.3414,-3.3414,-3.3414,-3.3414,-3.3414,-3.3414,-3.3414,-3.3414,-3.328,-3.3146,-3.3146,-3.2919,-3.2768,-3.2768,-3.2674,-3.2474,-3.2126,-3.2059,-3.1938,-3.1543,-3.149,-3.149,-3.149,-3.149,-3.149,-3.149,-3.165,-3.1744,-3.1744,-3.2078,-3.2278,-3.2278,-3.25,-3.2648,-3.2755,-3.2768,-3.2822,-3.2942,-3.2942,-3.2875,-3.2768,-3.3013,-3.3146,-3.316,-3.3334,-3.3414,-3.3414,-3.3414,-3.3414,-3.3387,-3.3093,-3.308,-3.3227,-3.3053,-3.3093,-3.3253,-3.3374,-3.3414,-3.3414,-3.6885,-3.6885,-3.6885,-3.6885,-3.6885,-3.6885,-3.6885,-3.6885,-3.6885,-3.6885,-3.6885,-3.6885,-3.6885,-3.6885,-3.6885,-3.6885,-3.6885,-3.6885,-3.6885,-3.6885,-3.6885,-3.6885,-3.6885,-3.6885,-3.6885,-3.6885,-3.6885,-3.6885,-3.6687,-3.6393,-3.6099,-3.5805,-3.5511,-3.5231,-3.5204,-3.5191,-3.5191,-3.5191,-3.5191,-3.5191,-3.5191,-3.5044,-3.4855,-3.4855,-3.4629,-3.4402,-3.4402,-3.4402,-3.4389,-3.4362,-3.4336,-3.4322,-3.4322,-3.4135,-3.3921,-3.3921,-3.3721,-3.3494,-3.3467,-3.3454,-3.3454,-3.3414,-3.3414,-3.3414,-3.3414,-3.3414,-3.3414,-3.3414,-3.32,-3.3013,-3.3013,-3.2848,-3.2661,-3.2634,-3.2634,-3.2621,-3.2594,-3.2594,-3.2594,-3.2594,-3.2594,-3.2594,-3.2594,-3.2594,-3.2594,-3.2594,-3.2621,-3.2634,-3.2634,-3.2661,-3.2795,-3.3013,-3.3013,-3.3146,-3.3414,-3.3414,-3.3267,-3.2986,-3.324,-3.336,-3.3334,-3.3334,-3.3334,-3.3334,-3.336,-3.336,-3.332,-3.3053,-3.2933,-3.2933,-3.2906,-3.2919,-3.2973,-3.3267,-3.3374,-3.3374,-3.6885,-3.6885,-3.6885,-3.6885,-3.6885,-3.6885,-3.6885,-3.6885,-3.6885,-3.6885,-3.6885,-3.6885,-3.6885,-3.6885,-3.6885,-3.6885,-3.6885,-3.6885,-3.6885,-3.6885,-3.6885,-3.6885,-3.6885,-3.6885,-3.6885,-3.6885,-3.6885,-3.6885,-3.6861,-3.6687,-3.6393,-3.6112,-3.5819,-3.5525,-3.5297,-3.5191,-3.5191,-3.5191,-3.5191,-3.5191,-3.5191,-3.5164,-3.5097,-3.5097,-3.5057,-3.5004,-3.5004,-3.5004,-3.4977,-3.475,-3.4509,-3.4322,-3.4322,-3.4282,-3.4229,-3.4229,-3.4175,-3.4068,-3.3841,-3.3788,-3.3721,-3.3467,-3.3414,-3.3414,-3.3414,-3.3414,-3.3414,-3.3414,-3.336,-3.332,-3.332,-3.3267,-3.3146,-3.2969,-3.2929,-3.2848,-3.2621,-3.2594,-3.2594,-3.2594,-3.2594,-3.2594,-3.2594,-3.2594,-3.2594,-3.2594,-3.2808,-3.2929,-3.2929,-3.3106,-3.3253,-3.332,-3.332,-3.3347,-3.3414,-3.3414,-3.3267,-3.2973,-3.304,-3.3009,-3.2781,-3.2781,-3.2781,-3.2795,-3.2973,-3.2995,-3.2781,-3.2714,-3.2688,-3.2661,-3.2385,-3.2438,-3.2728,-3.3009,-3.3066,-3.3106,-3.6885,-3.6885,-3.6885,-3.6885,-3.6885,-3.6885,-3.6885,-3.6885,-3.6885,-3.6885,-3.6885,-3.6885,-3.6885,-3.6885,-3.6885,-3.6885,-3.6885,-3.6885,-3.6885,-3.6885,-3.6885,-3.6885,-3.6885,-3.6885,-3.6885,-3.6885,-3.6885,-3.6885,-3.6885,-3.6739,-3.65,-3.6353,-3.6126,-3.5832,-3.5538,-3.5404,-3.5391,-3.5257,-3.5191,-3.5191,-3.5191,-3.5191,-3.5191,-3.5191,-3.5191,-3.5191,-3.5191,-3.5191,-3.5177,-3.5017,-3.487,-3.4736,-3.4736,-3.4643,-3.4536,-3.4536,-3.4429,-3.4282,-3.4135,-3.4095,-3.4055,-3.3881,-3.3841,-3.3761,-3.348,-3.3414,-3.3414,-3.3414,-3.3414,-3.3414,-3.3414,-3.3414,-3.336,-3.3213,-3.3187,-3.3133,-3.2973,-3.2959,-3.2959,-3.2959,-3.2959,-3.2959,-3.2959,-3.2959,-3.2959,-3.2959,-3.3093,-3.3187,-3.3187,-3.3334,-3.3414,-3.3414,-3.3414,-3.348,-3.3641,-3.3641,-3.3561,-3.3414,-3.3414,-3.34,-3.3387,-3.3387,-3.3387,-3.3387,-3.34,-3.337,-3.3196,-3.2768,-3.2674,-3.2755,-3.2265,-3.2372,-3.2808,-3.2808,-3.2915,-3.3026,-3.6885,-3.6885,-3.6885,-3.6885,-3.6885,-3.6885,-3.6885,-3.6885,-3.6885,-3.6885,-3.6885,-3.6885,-3.6885,-3.6885,-3.6885,-3.6885,-3.6885,-3.6885,-3.6885,-3.6885,-3.6885,-3.6885,-3.6885,-3.6885,-3.6885,-3.6885,-3.6885,-3.6885,-3.6885,-3.6779,-3.658,-3.654,-3.638,-3.6139,-3.5832,-3.5712,-3.5685,-3.5444,-3.5311,-3.5271,-3.5271,-3.5244,-3.5191,-3.5191,-3.5191,-3.5191,-3.5191,-3.5191,-3.5191,-3.5191,-3.5191,-3.5191,-3.5191,-3.503,-3.4895,-3.4895,-3.4656,-3.4456,-3.4402,-3.4402,-3.4389,-3.4336,-3.4322,-3.4189,-3.3681,-3.3534,-3.348,-3.3427,-3.3414,-3.3414,-3.3414,-3.3414,-3.3414,-3.3414,-3.3414,-3.3414,-3.3414,-3.3414,-3.3414,-3.3414,-3.3414,-3.3414,-3.3414,-3.3414,-3.3414,-3.3414,-3.3414,-3.3414,-3.3414,-3.3414,-3.344,-3.3494,-3.3494,-3.3641,-3.3961,-3.3961,-3.3988,-3.4042,-3.4042,-3.4082,-3.4162,-3.4162,-3.4162,-3.4148,-3.3961,-3.3855,-3.3748,-3.3116,-3.2902,-3.2933,-3.2438,-3.2519,-3.2929,-3.2741,-3.2848,-3.3093,-3.6885,-3.6885,-3.6885,-3.6885,-3.6885,-3.6885,-3.6885,-3.6885,-3.6885,-3.6885,-3.6885,-3.6885,-3.6885,-3.6885,-3.6885,-3.6885,-3.6885,-3.6885,-3.6885,-3.6885,-3.6885,-3.6885,-3.6885,-3.6885,-3.6885,-3.6885,-3.6885,-3.6885,-3.6885,-3.6901,-3.6861,-3.662,-3.6473,-3.6433,-3.6139,-3.6019,-3.6006,-3.5965,-3.5805,-3.5578,-3.5578,-3.5418,-3.5191,-3.5191,-3.5191,-3.5191,-3.5191,-3.5191,-3.5191,-3.5191,-3.5191,-3.5191,-3.5191,-3.5177,-3.5137,-3.5137,-3.511,-3.5017,-3.4829,-3.471,-3.4643,-3.4389,-3.4322,-3.4295,-3.4215,-3.4002,-3.3748,-3.3467,-3.3414,-3.3414,-3.3414,-3.3414,-3.3414,-3.3414,-3.3414,-3.3414,-3.3414,-3.3414,-3.3414,-3.3414,-3.3414,-3.3414,-3.3414,-3.3414,-3.3414,-3.3414,-3.3414,-3.3414,-3.3414,-3.3414,-3.3534,-3.3814,-3.3828,-3.3961,-3.4255,-3.4269,-3.4389,-3.4695,-3.4695,-3.4255,-3.3534,-3.3497,-3.3497,-3.3547,-3.3788,-3.3734,-3.3494,-3.3641,-3.3414,-3.2973,-3.2893,-3.2808,-3.2674,-3.2888,-3.3106,-3.336,-3.6885,-3.6885,-3.6885,-3.6885,-3.6885,-3.6885,-3.6885,-3.6885,-3.6885,-3.6885,-3.6885,-3.6885,-3.6885,-3.6885,-3.6885,-3.6885,-3.6885,-3.6885,-3.6885,-3.6885,-3.6885,-3.6885,-3.6885,-3.6885,-3.6885,-3.6885,-3.6885,-3.6885,-3.6885,-3.6885,-3.6885,-3.6794,-3.6699,-3.6727,-3.6433,-3.6313,-3.6299,-3.6139,-3.5992,-3.5872,-3.5872,-3.5805,-3.5685,-3.5685,-3.5685,-3.5685,-3.5685,-3.5685,-3.5658,-3.5498,-3.5431,-3.5404,-3.5244,-3.5191,-3.5191,-3.5191,-3.5191,-3.5164,-3.5044,-3.5004,-3.4977,-3.4843,-3.4803,-3.4763,-3.4603,-3.4469,-3.4282,-3.3988,-3.3921,-3.3868,-3.3708,-3.3681,-3.3614,-3.344,-3.3414,-3.3414,-3.3414,-3.3414,-3.3414,-3.3414,-3.3414,-3.3414,-3.3414,-3.3414,-3.3414,-3.3414,-3.3414,-3.3494,-3.3668,-3.3681,-3.3814,-3.4122,-3.4122,-3.4269,-3.4563,-3.4563,-3.471,-3.5004,-3.5004,-3.4803,-3.4416,-3.4416,-3.4416,-3.4402,-3.4389,-3.4295,-3.4148,-3.3961,-3.3828,-3.3694,-3.336,-3.3146,-3.3066,-3.3374,-3.3561,-3.3681]},{"header":{"parameterUnit":"m.s-1","parameterCategory":1,"la1":30.6,"la2":28.766,"lo1":-90.7593,"lo2":-88.6598,"dy":0.0162,"dx":0.0183,"nx":116,"ny":114,"refTime":"2024-06-13T18:00:00:Z","depth":0,"parameterNumber":3,"parameterNumberName":"V-component_of_WINDS"},"data":[0.0,0.0,0.0,0.0,0.0,0.0,0.0,0.0,0.0,0.0,0.0,0.0,0.0,0.0,0.0,0.0,0.0,0.0,0.0,0.0,0.0,0.0,0.0,0.0,0.0,0.0,0.0,0.0,0.0,0.0,0.0,0.0,0.0,0.0,0.0,0.0,0.0,0.0,0.0,0.0,0.0,0.0,0.0,0.0,0.0,0.0,0.0,0.0,0.0,0.0,0.0,0.0,0.0,0.0,0.0,0.0,0.0,0.0,0.0,0.0,0.0,0.0,0.0,0.0,0.0,0.0,0.0,0.0,0.0,0.0,0.0,0.0,0.0,0.0,0.0,0.0,0.0,0.0,0.0,0.0,0.0,0.0,0.0,0.0,0.0,0.0,0.0,0.0,0.0,0.0,0.0,0.0,0.0,0.0,0.0,0.0,0.0,0.0,0.0,0.0,0.0,0.0,0.0,0.0,0.0,0.0,0.0,0.0,0.0,0.0,0.0,0.0,0.0,0.0,0.0,0.0,0.0,0.0,0.0,0.0,0.0,0.0,0.0,0.0,0.0,0.0,0.0,0.0,0.0,0.0,0.0,0.0,0.0,0.0,0.0,0.0,0.0,0.0,0.0,0.0,0.0,0.0,0.0,0.0,0.0,0.0,0.0,0.0,0.0,0.0,0.0,0.0,0.0,0.0,0.0,0.0,0.0,0.0,0.0,0.0,0.0,0.0,0.0,0.0,0.0,0.0,0.0,0.0,0.0,0.0,0.0,0.0,0.0,0.0,0.0,0.0,0.0,0.0,0.0,0.0,0.0,0.0,0.0,0.0,0.0,0.0,0.0,0.0,0.0,0.0,0.0,0.0,0.0,0.0,0.0,0.0,0.0,0.0,0.0,0.0,0.0,0.0,0.0,0.0,0.0,0.0,0.0,0.0,0.0,0.0,0.0,0.0,0.0,0.0,0.0,0.0,0.0,0.0,0.0,0.0,0.0,0.0,0.0,0.0,0.0,0.0,0.0,0.0,0.0,0.0,0.0,0.0,0.0,0.0,0.0,0.0,0.0,0.0,0.0,0.0,0.0,0.0,0.0,0.0,0.0,0.0,0.0,0.0,0.0,0.0,0.0,0.0,0.0,0.0,0.0,0.0,0.0,0.0,0.0,0.0,0.0,0.0,0.0,0.0,0.0,0.0,0.0,0.0,0.0,0.0,0.0,0.0,0.0,0.0,0.0,0.0,0.0,0.0,0.0,0.0,0.0,0.0,0.0,0.0,0.0,0.0,0.0,0.0,0.0,0.0,0.0,0.0,0.0,0.0,0.0,0.0,0.0,0.0,0.0,0.0,0.0,0.0,0.0,0.0,0.0,0.0,0.0,0.0,0.0,0.0,0.0,0.0,0.0,0.0,0.0,0.0,0.0,0.0,0.0,0.0,0.0,0.0,0.0,0.0,0.0,0.0,0.0,0.0,0.0,0.0,0.0,0.0,0.0,0.0,0.0,0.0,0.0,0.0,0.0,0.0,0.0,0.0,0.0,0.0,0.0,0.0,0.0,0.0,0.0,0.0,0.0,0.0,0.0,0.0,0.0,0.0,0.0,0.0,0.0,0.0,0.0,0.0,0.0,0.0,0.0,0.0,0.0,0.0,0.0,0.0,0.0,0.0,0.0,0.0,0.0,0.0,0.0,0.0,0.0,0.0,0.0,0.0,0.0,0.0,0.0,0.0,0.0,0.0,0.0,0.0,0.0,0.0,0.0,0.0,0.0,0.0,0.0,0.0,0.0,0.0,0.0,0.0,0.0,0.0,0.0,0.0,0.0,0.0,0.0,0.0,0.0,0.0,0.0,0.0,0.0,0.0,0.0,0.0,0.0,0.0,0.0,0.0,0.0,0.0,0.0,0.0,0.0,0.0,0.0,0.0,0.0,0.0,0.0,0.0,0.0,0.0,0.0,0.0,0.0,0.0,0.0,0.0,0.0,0.0,0.0,0.0,0.0,0.0,0.0,0.0,0.0,0.0,0.0,0.0,0.0,0.0,0.0,0.0,0.0,0.0,0.0,0.0,0.0,0.0,0.0,0.0,0.0,0.0,0.0,0.0,0.0,0.0,0.0,0.0,0.0,0.0,0.0,0.0,0.0,0.0,0.0,0.0,0.0,0.0,0.0,0.0,0.0,0.0,0.0,0.0,0.0,0.0,0.0,0.0,0.0,0.0,0.0,0.0,0.0,0.0,0.0,0.0,0.0,0.0,0.0,0.0,0.0,0.0,0.0,0.0,0.0,0.0,0.0,0.0,0.0,0.0,0.0,0.0,0.0,0.0,0.0,0.0,0.0,0.0,0.0,0.0,0.0,0.0,0.0,0.0,0.0,0.0,0.0,0.0,0.0,0.0,0.0,0.0,0.0,0.0,0.0,0.0,0.0,0.0,0.0,0.0,0.0,0.0,0.0,0.0,0.0,0.0,0.0,0.0,0.0,0.0,0.0,0.0,0.0,0.0,0.0,0.0,0.0,0.0,0.0,0.0,0.0,0.0,0.0,0.0,0.0,0.0,0.0,0.0,0.0,0.0,0.0,0.0,0.0,0.0,0.0,0.0,0.0,0.0,0.0,0.0,0.0,0.0,0.0,0.0,0.0,0.0,0.0,0.0,0.0,0.0,0.0,0.0,0.0,0.0,0.0,0.0,0.0,0.0,0.0,0.0,0.0,0.0,0.0,0.0,0.0,0.0,0.0,0.0,0.0,0.0,0.0,0.0,0.0,0.0,0.0,0.0,0.0,0.0,0.0,0.0,0.0,0.0,0.0,0.0,0.0,0.0,0.0,0.0,0.0,0.0,0.0,0.0,0.0,0.0,0.0,0.0,0.0,0.0,0.0,0.0,0.0,0.0,0.0,0.0,0.0,0.0,0.0,0.0,0.0,0.0,0.0,0.0,0.0,0.0,0.0,0.0,0.0,0.0,0.0,0.0,0.0,0.0,0.0,0.0,0.0,0.0,0.0,0.0,0.0,0.0,0.0,0.0,0.0,0.0,0.0,0.0,0.0,0.0,0.0,0.0,0.0,0.0,0.0,0.0,0.0,0.0,0.0,0.0,0.0,0.0,0.0,0.0,0.0,0.0,0.0,0.0,0.0,0.0,0.0,0.0,0.0,0.0,0.0,0.0,0.0,0.0,0.0,0.0,0.0,0.0,0.0,0.0,0.0,0.0,0.0,0.0,0.0,0.0,0.0,0.0,0.0,0.0,0.0,0.0,0.0,0.0,0.0,0.0,0.0,0.0,0.0,0.0,0.0,0.0,0.0,0.0,0.0,0.0,0.0,0.0,0.0,0.0,0.0,0.0,0.0,0.0,0.0,0.0,0.0,0.0,0.0,0.0,0.0,0.0,0.0,0.0,0.0,0.0,0.0,0.0,0.0,0.0,0.0,0.0,0.0,0.0,0.0,0.0,0.0,0.0,0.0,0.0,0.0,0.0,0.0,0.0,0.0,0.0,0.0,0.0,0.0,0.0,0.0,0.0,0.0,0.0,0.0,0.0,0.0,0.0,0.0,0.0,0.0,0.0,0.0,0.0,0.0,0.0,0.0,0.0,0.0,0.0,0.0,0.0,0.0,0.0,0.0,0.0,0.0,0.0,0.0,0.0,0.0,0.0,0.0,0.0,0.0,0.0,0.0,0.0,0.0,0.0,0.0,0.0,0.0,0.0,0.0,0.0,0.0,0.0,0.0,0.0,0.0,0.0,0.0,0.0,0.0,0.0,0.0,0.0,0.0,0.0,0.0,0.0,0.0,0.0,0.0,0.0,0.0,0.0,0.0,0.0,0.0,0.0,0.0,0.0,0.0,0.0,0.0,0.0,0.0,0.0,0.0,0.0,0.0,0.0,0.0,0.0,0.0,0.0,0.0,0.0,0.0,0.0,0.0,0.0,0.0,0.0,0.0,0.0,0.0,0.0,0.0,0.0,0.0,0.0,0.0,0.0,0.0,0.0,0.0,0.0,0.0,0.0,0.0,0.0,0.0,0.0,0.0,0.0,0.0,0.0,0.0,0.0,0.0,0.0,0.0,0.0,0.0,0.0,0.0,0.0,0.0,0.0,0.0,0.0,0.0,0.0,0.0,0.0,0.0,0.0,0.0,0.0,0.0,0.0,0.0,0.0,0.0,0.0,0.0,0.0,0.0,0.0,0.0,0.0,0.0,0.0,0.0,0.0,0.0,0.0,0.0,0.0,0.0,0.0,0.0,0.0,0.0,0.0,0.0,0.0,0.0,0.0,0.0,0.0,0.0,0.0,0.0,0.0,0.0,0.0,0.0,0.0,0.0,0.0,0.0,0.0,0.0,0.0,0.0,0.0,0.0,0.0,0.0,0.0,0.0,0.0,0.0,0.0,0.0,0.0,0.0,0.0,0.0,0.0,0.0,0.0,0.0,0.0,0.0,0.0,0.0,0.0,0.0,0.0,0.0,0.0,0.0,0.0,0.0,0.0,0.0,0.0,0.0,0.0,0.0,0.0,0.0,0.0,0.0,0.0,0.0,0.0,0.0,0.0,0.0,0.0,0.0,0.0,0.0,0.0,0.0,0.0,0.0,0.0,0.0,0.0,0.0,0.0,0.0,0.0,0.0,0.0,0.0,0.0,0.0,0.0,0.0,0.0,0.0,0.0,0.0,0.0,0.0,0.0,0.0,0.0,0.0,0.0,0.0,0.0,0.0,0.0,0.0,0.0,0.0,0.0,0.0,0.0,0.0,0.0,0.0,0.0,0.0,0.0,0.0,0.0,0.0,0.0,0.0,0.0,0.0,0.0,0.0,0.0,0.0,0.0,0.0,0.0,0.0,0.0,0.0,0.0,0.0,0.0,0.0,0.0,0.0,0.0,0.0,0.0,0.0,0.0,0.0,0.0,0.0,0.0,0.0,0.0,0.0,0.0,0.0,0.0,0.0,0.0,0.0,0.0,0.0,0.0,0.0,0.0,0.0,0.0,0.0,0.0,0.0,0.0,0.0,0.0,0.0,0.0,0.0,0.0,0.0,0.0,0.0,0.0,0.0,0.0,0.0,0.0,0.0,0.0,0.0,0.0,0.0,0.0,0.0,0.0,0.0,0.0,0.0,0.0,0.0,0.0,0.0,0.0,0.0,0.0,0.0,0.0,0.0,0.0,0.0,0.0,0.0,0.0,0.0,0.0,0.0,0.0,0.0,0.0,0.0,0.0,0.0,0.0,0.0,0.0,0.0,0.0,0.0,0.0,0.0,0.0,0.0,0.0,0.0,0.0,0.0,0.0,0.0,0.0,0.0,0.0,0.0,0.0,0.0,0.0,0.0,0.0,0.0,0.0,0.0,0.0,0.0,0.0,0.0,0.0,0.0,0.0,0.0,0.0,0.0,0.0,0.0,0.0,0.0,0.0,0.0,0.0,0.0,0.0,0.0,0.0,0.0,0.0,0.0,0.0,0.0,0.0,0.0,0.0,0.0,0.0,0.0,0.0,0.0,0.0,0.0,0.0,0.0,0.0,0.0,0.0,0.0,0.0,0.0,0.0,0.0,0.0,0.0,0.0,0.0,0.0,0.0,0.0,0.0,0.0,0.0,0.0,0.0,0.0,0.0,0.0,0.0,0.0,0.0,0.0,0.0,0.0,0.0,0.0,0.0,0.0,0.0,0.0,0.0,0.0,0.0,0.0,0.0,0.0,0.0,0.0,0.0,0.0,0.0,0.0,0.0,0.0,0.0,0.0,0.0,0.0,0.0,0.0,0.0,0.0,0.0,0.0,0.0,0.0,0.0,0.0,0.0,0.0,0.0,0.0,0.0,0.0,0.0,0.0,0.0,0.0,0.0,0.0,0.0,0.0,0.0,0.0,0.0,0.0,0.0,0.0,0.0,0.0,0.0,0.0,0.0,0.0,0.0,0.0,0.0,0.0,0.0,0.0,0.0,0.0,0.0,0.0,0.0,0.0,0.0,0.0,0.0,0.0,0.0,0.0,0.0,0.0,0.0,0.0,0.0,0.0,0.0,0.0,0.0,0.0,0.0,0.0,0.0,0.0,0.0,0.0,0.0,0.0,0.0,0.0,0.0,0.0,0.0,0.0,0.0,0.0,0.0,0.0,0.0,0.0,0.0,0.0,0.0,0.0,3.8962,3.6424,0.0,0.0,0.0,0.0,0.0,0.0,0.0,0.0,0.0,0.0,0.0,0.0,0.0,0.0,0.0,0.0,0.0,0.0,0.0,0.0,0.0,0.0,0.0,2.5827,2.63,2.6293,2.665,2.6732,2.634,0.0,0.0,0.0,0.0,0.0,2.5687,2.5687,2.6468,2.8146,2.8576,2.987,3.1947,3.2375,3.0976,2.8115,0.0,0.0,0.0,0.0,0.0,0.0,0.0,0.0,0.0,0.0,0.0,0.0,0.0,0.0,0.0,0.0,0.0,0.0,0.0,0.0,0.0,0.0,0.0,0.0,0.0,0.0,0.0,0.0,0.0,0.0,0.0,0.0,0.0,0.0,0.0,0.0,0.0,0.0,0.0,0.0,0.0,0.0,0.0,0.0,0.0,0.0,0.0,0.0,0.0,0.0,0.0,0.0,0.0,0.0,0.0,0.0,0.0,0.0,0.0,0.0,0.0,0.0,0.0,0.0,0.0,0.0,0.0,0.0,0.0,0.0,4.486,4.2388,0.0,0.0,0.0,0.0,0.0,0.0,0.0,0.0,0.0,0.0,0.0,0.0,0.0,0.0,0.0,0.0,0.0,0.0,0.0,0.0,0.0,2.5401,2.4894,2.6121,2.7139,2.7549,2.7954,2.8041,2.7691,2.7379,0.0,0.0,0.0,2.6153,2.6153,2.7126,2.8687,3.0797,3.2405,3.4907,3.8225,3.9084,3.6792,3.191,3.0508,0.0,0.0,0.0,0.0,0.0,0.0,0.0,0.0,0.0,0.0,0.0,0.0,0.0,0.0,0.0,0.0,0.0,0.0,0.0,0.0,0.0,0.0,0.0,0.0,0.0,0.0,0.0,0.0,0.0,0.0,0.0,0.0,0.0,0.0,0.0,0.0,0.0,0.0,0.0,0.0,0.0,0.0,0.0,0.0,0.0,0.0,0.0,0.0,0.0,0.0,0.0,0.0,0.0,0.0,0.0,0.0,0.0,0.0,0.0,0.0,0.0,0.0,0.0,5.3708,5.4525,5.5218,5.5218,5.6008,5.7135,5.2252,5.0312,5.0241,4.6516,0.0,0.0,0.0,0.0,0.0,0.0,0.0,0.0,0.0,0.0,0.0,0.0,0.0,0.0,0.0,0.0,0.0,0.0,0.0,2.5845,2.6503,2.6799,2.7823,3.0074,2.9025,2.8801,3.0222,2.8862,0.0,0.0,2.7901,2.7855,2.7855,2.9471,3.0447,3.0782,3.5381,3.9059,4.1754,4.2612,4.2614,4.1679,3.7803,3.5647,3.4594,0.0,0.0,0.0,0.0,0.0,0.0,0.0,0.0,0.0,0.0,0.0,0.0,0.0,0.0,0.0,0.0,0.0,0.0,0.0,0.0,0.0,0.0,0.0,0.0,0.0,0.0,0.0,0.0,0.0,0.0,0.0,0.0,0.0,0.0,0.0,0.0,0.0,0.0,0.0,0.0,0.0,3.7158,3.8352,0.0,0.0,0.0,0.0,0.0,0.0,0.0,0.0,0.0,0.0,0.0,0.0,0.0,5.372,5.6795,5.8495,5.9771,6.0613,6.146,6.1917,6.1994,6.1994,6.2521,6.3389,6.2637,0.0,5.3795,5.1677,0.0,0.0,0.0,0.0,0.0,0.0,0.0,0.0,0.0,0.0,0.0,0.0,0.0,0.0,0.0,0.0,0.0,0.0,0.0,0.0,0.0,2.9611,3.1137,3.2753,3.3544,3.3245,3.1586,3.1238,3.0237,2.8312,2.8227,2.8657,2.9647,3.1354,3.4404,3.8795,4.2988,4.5844,4.7485,4.7835,4.8031,4.7954,4.6071,4.2045,3.6618,3.4594,0.0,0.0,0.0,0.0,0.0,0.0,0.0,0.0,0.0,0.0,0.0,0.0,0.0,0.0,0.0,0.0,0.0,0.0,0.0,0.0,0.0,0.0,0.0,0.0,0.0,0.0,0.0,0.0,0.0,0.0,0.0,0.0,0.0,0.0,0.0,0.0,0.0,0.0,0.0,3.7671,4.1616,4.1545,4.2768,4.2699,0.0,0.0,0.0,0.0,0.0,0.0,0.0,0.0,0.0,5.7511,5.8934,6.0781,6.3205,6.4474,6.5513,6.6359,6.6744,6.7122,6.759,6.759,6.7782,6.8129,6.8129,6.5935,6.2034,5.7976,5.4897,5.254,0.0,0.0,0.0,0.0,5.0125,5.0356,0.0,0.0,0.0,0.0,0.0,0.0,0.0,0.0,0.0,0.0,0.0,0.0,3.0185,3.2538,3.4524,3.6017,3.7319,3.6987,3.4466,3.3651,3.2264,2.9954,2.9405,2.9999,3.1734,3.4541,3.927,4.5959,4.893,5.0846,5.1706,5.1947,5.2029,5.2029,5.1801,4.7588,4.0443,3.8726,3.5994,3.2754,0.0,0.0,0.0,0.0,0.0,0.0,0.0,0.0,0.0,0.0,0.0,0.0,0.0,0.0,0.0,0.0,0.0,0.0,0.0,0.0,0.0,0.0,0.0,0.0,0.0,0.0,0.0,0.0,0.0,0.0,0.0,0.0,0.0,0.0,0.0,0.0,0.0,4.2248,4.5706,4.5124,4.7663,4.812,0.0,0.0,0.0,0.0,0.0,0.0,5.6896,5.8671,6.1056,6.4249,6.5551,6.7013,6.8706,6.9339,6.998,7.064,7.0612,7.0913,7.1489,7.1489,7.1504,7.1525,7.1497,7.0819,6.9283,6.4099,6.0999,5.9325,5.6829,5.5571,5.5318,5.6786,5.7093,5.7126,0.0,0.0,0.0,0.0,0.0,0.0,0.0,0.0,0.0,0.0,0.0,3.0263,3.2827,3.4653,3.6984,4.0286,3.8501,3.8127,4.0412,3.5983,3.3589,3.4239,3.2701,3.261,3.4359,4.004,4.479,4.8493,5.0322,5.1704,5.2567,5.3385,5.3753,5.3754,5.2966,5.1453,4.9187,4.5051,4.2708,4.1107,3.3768,0.0,0.0,0.0,0.0,0.0,0.0,0.0,0.0,0.0,0.0,0.0,0.0,0.0,0.0,0.0,0.0,0.0,0.0,0.0,0.0,0.0,0.0,0.0,0.0,0.0,0.0,0.0,0.0,0.0,0.0,0.0,0.0,0.0,0.0,0.0,0.0,0.0,0.0,5.0322,5.3977,0.0,0.0,0.0,0.0,5.6285,5.8786,6.1358,6.3935,6.5673,6.7789,7.036,7.0552,7.1437,7.3161,7.3089,7.3091,7.3129,7.3047,7.3047,7.3085,7.3085,7.3131,7.3168,7.3124,7.3138,7.2969,6.9436,6.6013,6.3045,6.2858,6.1826,6.0517,6.1441,6.2243,6.2891,0.0,0.0,0.0,0.0,0.0,2.5586,2.5604,2.56,2.5718,2.6028,2.8516,3.1236,3.38,3.7061,4.0012,4.2381,4.2733,4.2274,4.1003,3.8207,3.6738,3.7022,3.4837,3.5972,4.1052,4.5437,4.9383,5.281,5.4574,5.5868,5.6732,5.7049,5.7185,5.7185,5.6886,5.5848,5.395,4.9072,4.5207,4.2161,3.9389,3.5447,0.0,0.0,0.0,0.0,0.0,0.0,0.0,0.0,0.0,0.0,0.0,0.0,0.0,0.0,0.0,0.0,0.0,0.0,0.0,0.0,0.0,0.0,0.0,0.0,0.0,0.0,0.0,0.0,0.0,0.0,0.0,0.0,0.0,0.0,0.0,0.0,0.0,5.6242,5.9627,0.0,5.8709,6.0012,6.145,6.2515,6.452,6.6526,6.8478,7.0755,7.2668,7.413,7.5187,7.6002,7.6655,7.6578,7.653,7.653,7.6498,7.6481,7.6443,7.5914,7.5662,7.5656,7.5049,7.4566,7.4173,7.3512,7.158,6.8936,6.7859,6.7359,6.7282,6.7051,6.7513,6.8129,0.0,0.0,0.0,0.0,2.5618,2.5586,2.5604,2.56,2.6027,2.7155,3.0032,3.3178,3.6325,3.9975,4.2772,4.421,4.5106,4.4756,4.2733,4.0482,3.9356,3.9669,3.8579,4.0382,4.5543,4.9347,5.2512,5.5081,5.6521,5.7536,5.8086,5.8102,5.8085,5.8087,5.815,5.7744,5.6749,5.301,4.9267,4.5714,4.3996,4.0521,3.6345,0.0,0.0,0.0,0.0,0.0,0.0,0.0,0.0,0.0,0.0,0.0,0.0,0.0,0.0,0.0,0.0,0.0,0.0,0.0,0.0,0.0,0.0,0.0,0.0,0.0,0.0,0.0,0.0,0.0,0.0,0.0,0.0,0.0,0.0,0.0,5.9242,6.0592,6.4276,6.5923,6.3899,6.5736,6.7522,6.8579,7.0011,7.1593,7.3231,7.4973,7.6194,7.6771,7.783,7.8374,7.8374,7.8292,7.8241,7.8241,7.8216,7.8199,7.8199,7.7586,7.7343,7.733,7.6722,7.6052,7.5465,7.6009,7.5127,7.325,7.1916,7.1552,7.1706,7.1168,7.1321,7.1706,0.0,0.0,0.0,2.5561,2.5561,2.56,2.5561,2.5561,2.6805,3.0226,3.2906,3.6131,4.0402,4.3238,4.5106,4.5921,4.53,4.5183,4.596,4.2813,4.1296,4.2192,4.3979,4.5763,4.747,5.1594,5.4197,5.5123,5.5981,5.645,5.645,5.6478,5.6467,5.6433,5.6564,5.7067,5.7735,5.6983,5.5159,5.239,4.7314,4.5167,4.4503,0.0,0.0,0.0,0.0,0.0,0.0,0.0,0.0,0.0,0.0,0.0,0.0,0.0,0.0,0.0,0.0,0.0,0.0,0.0,0.0,0.0,0.0,0.0,0.0,0.0,0.0,0.0,0.0,0.0,0.0,0.0,0.0,0.0,5.4951,5.9165,6.2636,6.3399,6.7885,6.993,6.7458,7.0141,7.2763,7.4496,7.5331,7.652,7.8245,7.836,7.8398,7.8398,7.8437,7.8437,7.8437,7.8314,7.8232,7.8232,7.8182,7.8137,7.8137,7.8061,7.8067,7.8117,7.802,7.7623,7.7018,7.6965,7.6492,7.5708,7.498,7.4231,7.3577,7.3538,7.3538,7.3538,0.0,0.0,2.5405,2.4782,2.5171,2.5405,2.4744,2.5171,2.6611,2.9408,3.2518,3.5898,3.9623,4.2889,4.5106,4.5921,4.5805,4.5766,4.5999,4.2813,4.1568,4.3083,4.6582,4.9573,5.1904,5.3727,5.567,5.7764,5.8622,5.936,5.9982,6.0053,5.9733,5.9116,5.9184,5.8634,5.7693,5.7506,5.6668,5.5211,5.2578,4.9267,4.5714,0.0,0.0,0.0,0.0,0.0,0.0,0.0,0.0,0.0,0.0,0.0,0.0,0.0,0.0,0.0,0.0,0.0,0.0,0.0,0.0,0.0,0.0,0.0,0.0,0.0,0.0,0.0,0.0,0.0,0.0,0.0,5.8354,6.2042,6.2561,6.5376,6.8136,7.0224,7.2264,7.3676,7.4189,7.5063,7.6005,7.7011,7.7407,7.8028,7.9041,7.9753,8.0362,8.0975,8.1566,8.1837,8.1837,8.1707,8.1661,8.1661,8.105,8.0773,8.0697,7.9513,7.8958,7.8947,7.8261,7.7932,7.7816,7.779,7.7718,7.7371,7.5357,7.4758,7.5035,7.4451,7.4221,7.4221,0.0,2.5299,2.5016,2.486,2.4977,2.5016,2.486,2.5289,2.692,3.0574,3.3371,3.6634,4.0827,4.3704,4.5378,4.5494,4.5805,4.5688,4.4986,4.4093,4.4365,4.6113,4.9573,5.2311,5.4083,5.5324,5.6811,5.8578,5.9086,5.9589,6.0093,6.0146,5.9902,5.9436,5.9816,5.9467,5.8538,5.8563,5.8087,5.7227,5.5896,5.3231,4.9931,4.8681,4.6404,4.3687,4.2089,4.1016,4.0119,3.8432,0.0,0.0,0.0,0.0,0.0,0.0,0.0,0.0,0.0,0.0,0.0,0.0,0.0,0.0,0.0,0.0,0.0,0.0,0.0,0.0,0.0,0.0,0.0,0.0,6.3493,6.7538,6.9581,7.0501,7.1789,7.3942,7.4976,7.6002,7.7301,7.7416,7.7888,7.9021,7.918,7.9725,8.0857,8.1409,8.1943,8.2393,8.2883,8.3123,8.3123,8.3028,8.2999,8.2999,8.2531,8.2302,8.2264,8.128,8.0668,8.0315,7.9818,7.9205,7.8609,7.8609,7.8444,7.799,0.0,0.0,0.0,0.0,7.5002,7.5002,0.0,2.492,2.4626,2.5211,2.4821,2.4664,2.5367,2.5522,2.7464,3.2633,3.4651,3.7603,4.2808,4.4753,4.5455,4.4831,4.5533,4.5455,4.4168,4.6266,4.8361,5.0061,5.2585,5.4276,5.495,5.6583,5.776,5.8464,5.8464,5.8503,5.8585,5.8585,5.8546,5.8469,5.9326,5.9683,5.9673,5.9762,5.9296,5.8412,5.7773,5.6603,5.5063,5.3501,5.2251,5.1007,4.8751,4.6853,4.5064,4.2726,0.0,0.0,0.0,0.0,0.0,0.0,0.0,0.0,0.0,0.0,0.0,0.0,0.0,0.0,0.0,0.0,0.0,0.0,0.0,0.0,0.0,0.0,0.0,0.0,6.825,7.207,7.5209,7.4511,7.42,7.5697,7.6531,7.7338,7.8213,7.829,7.8978,8.0659,8.0773,8.1461,8.3076,8.3228,0.0,0.0,0.0,8.3381,8.3267,8.3267,8.3267,8.3267,8.319,8.3152,8.3152,8.3037,8.2607,8.1958,8.1958,8.1079,7.9713,7.9636,7.9025,7.8079,7.728,7.6963,7.6848,7.6013,7.5668,7.5668,0.0,2.4981,2.4978,2.3738,2.4513,2.5171,2.4626,2.5132,2.7464,3.2633,3.4148,3.6714,4.1881,4.3355,4.421,4.4753,4.5533,4.6465,4.755,4.8719,5.0118,5.1689,5.4204,5.5887,5.6633,5.7588,5.85,5.9367,5.9367,5.9714,6.038,6.038,6.0028,5.9367,5.9536,5.9624,5.9624,5.9679,5.9218,5.8462,5.9051,5.75,5.4764,5.4362,5.3249,5.1861,5.1379,5.097,5.0435,4.9142,4.7599,4.5851,4.4107,4.1532,0.0,0.0,0.0,0.0,0.0,0.0,0.0,0.0,0.0,0.0,0.0,0.0,0.0,0.0,0.0,0.0,0.0,0.0,0.0,6.7087,7.1501,7.4831,7.5778,7.6194,7.6702,7.744,7.7667,7.8384,7.9856,8.0009,8.0697,8.2388,8.2502,8.2961,8.3983,8.4671,8.5015,8.5015,8.5702,8.5731,8.5015,8.5015,8.5015,8.5015,8.4365,0.0,8.4021,8.3305,8.2923,8.277,8.277,8.2579,8.2235,8.1576,8.043,7.891,7.7379,7.6776,7.6662,7.5829,7.5523,7.5523,2.3929,2.4355,2.4821,2.4397,2.4667,2.4938,2.4938,2.5328,2.7309,3.2048,3.3371,3.5859,4.0987,4.1956,4.2384,4.2811,4.3629,4.5378,4.8405,4.9717,5.152,5.3972,5.569,5.7086,5.8237,5.8649,5.9225,5.9988,5.9988,6.0224,6.0653,6.0653,6.0422,6.0026,6.0404,6.0366,6.002,6.0453,6.0175,5.9379,5.8996,5.7818,5.6259,5.6007,5.5068,5.3859,5.346,5.3245,5.2998,5.1592,5.0606,4.9596,4.7864,4.5854,4.3656,0.0,0.0,0.0,0.0,0.0,0.0,0.0,0.0,0.0,0.0,0.0,0.0,0.0,0.0,5.8577,0.0,0.0,6.839,7.0784,7.4081,7.646,7.6801,7.7214,7.7657,7.8194,7.8383,7.9063,8.0604,8.1098,8.199,8.3515,8.4021,8.4632,8.5511,8.6352,8.681,8.681,8.7231,8.7231,8.681,8.681,8.681,8.681,8.639,8.597,8.555,8.5091,8.4441,8.3649,8.3649,8.3419,8.2923,8.2149,8.1308,8.0401,7.8681,7.7717,7.7258,7.6418,7.6121,7.6044,2.3542,2.3968,2.4705,2.525,2.4899,2.4782,2.5483,2.56,2.7076,3.1193,3.2361,3.4614,3.9392,3.9886,4.0153,4.0813,4.1818,4.43,4.8765,5.0329,5.2608,5.6025,5.6879,5.7923,5.9312,5.9498,5.985,6.0415,6.0415,6.0492,6.0644,6.0644,6.0721,6.0912,6.1402,6.1325,6.095,6.1593,6.1363,6.0492,5.9001,5.8192,5.7838,5.711,5.6357,5.5584,5.5083,5.4616,5.4058,5.2832,5.2181,5.1721,5.0522,4.9461,4.8018,4.5002,4.4211,0.0,0.0,0.0,0.0,0.0,0.0,0.0,0.0,0.0,5.7009,6.0517,6.2728,6.4926,6.7949,7.0322,7.2379,7.4193,7.6056,7.7421,7.7729,7.7767,7.7928,7.8353,7.8824,7.9627,8.0954,8.1797,8.2892,8.4348,8.5055,8.5816,8.6654,8.753,8.7922,8.777,8.7884,8.7922,8.7732,8.7732,8.7732,8.7732,8.7866,8.7555,8.6868,8.6836,8.6074,8.4785,8.4594,8.4069,8.319,8.2378,8.1958,8.1652,8.0133,7.9101,7.8366,7.7335,7.6838,7.6609,0.0,2.486,2.525,2.4548,2.5016,2.5483,2.56,2.56,2.6844,3.0381,3.0925,3.2363,3.5972,3.6311,3.7482,4.0555,4.2268,4.5309,5.0315,5.1438,5.3307,5.6549,5.7532,5.8353,5.9105,5.9869,6.0321,6.0415,6.0415,6.0759,6.1478,6.1478,6.1898,6.2579,6.1898,6.1975,6.2624,6.2732,6.228,6.1402,6.0492,5.923,5.7747,5.6174,5.5536,5.5504,5.6123,5.5415,5.4199,5.481,5.397,5.2791,5.3358,5.2473,5.0824,4.8962,4.686,4.5403,4.65,4.8754,5.1395,5.404,5.492,5.7019,0.0,0.0,6.3971,6.8125,6.9718,7.0923,7.2811,7.4009,7.5143,7.638,7.7179,7.7754,7.8031,7.8062,7.8089,7.8157,7.9212,8.0318,8.127,8.2084,8.3224,8.4906,8.5094,8.5508,8.6322,8.7125,8.7238,8.6523,8.7201,8.7201,8.6523,8.6486,8.6486,8.6523,8.7019,8.7245,8.7143,8.692,8.6686,8.6495,8.5702,8.49,8.4098,8.3228,8.2455,8.169,8.0735,8.0315,8.0047,7.8443,7.7373,7.6685,0.0,2.5016,2.5483,2.5132,2.5367,2.56,2.56,2.56,2.6454,2.8863,2.9641,3.1027,3.3904,3.4618,3.585,3.8242,4.0929,4.4436,4.9042,5.137,5.383,5.6679,5.7575,5.8317,5.9064,5.995,6.0415,6.0415,6.0415,6.0797,6.1593,6.1593,6.2089,6.2846,6.1975,6.1784,6.2166,6.2693,6.2693,6.2235,6.095,5.9995,5.9078,5.6396,5.4753,5.3913,5.4263,5.4256,0.0,5.3372,5.3034,5.2849,5.3225,5.2107,5.0418,4.9408,4.8726,4.8892,5.151,5.3702,5.5778,5.7931,5.9909,6.2455,6.6764,6.7637,6.8499,7.1704,7.3166,7.4125,7.4834,7.6003,7.6949,0.0,7.8406,7.9144,7.8485,7.8396,7.8027,7.7046,7.8298,7.9674,8.0831,8.1666,8.2961,8.4958,8.551,8.6148,8.6974,8.78,8.8114,8.7763,8.8077,8.8114,8.7763,8.7763,8.7763,8.7776,8.802,8.8029,8.7883,8.779,8.7389,8.6762,8.5883,8.5141,8.4502,8.3961,8.3338,8.2638,8.1633,8.127,8.1041,7.936,7.8528,7.807,0.0,2.5178,2.56,2.56,2.56,2.56,2.56,2.56,2.6215,2.7867,2.8604,2.9856,3.2099,3.2877,3.4002,3.5891,3.8965,4.2699,4.7165,5.0479,5.3497,5.6296,5.7353,5.8268,5.9064,5.995,6.0415,6.0415,6.0415,6.0797,6.1593,6.1593,6.2089,6.2846,6.1975,6.1593,6.1669,6.2541,6.2617,6.2089,6.0874,6.0109,5.9383,5.6243,5.3989,5.2461,5.2461,5.2422,5.2193,5.0965,5.1037,5.1669,5.1904,5.1273,5.0406,5.0233,5.1139,5.2678,5.4801,5.7444,5.9974,6.1443,6.4289,6.7117,6.867,7.0137,7.1801,7.4039,7.502,7.5551,7.5787,7.675,7.7583,7.7659,7.9009,7.9786,7.9034,7.8516,7.7708,7.6276,7.7157,7.8385,7.9563,8.083,8.2527,8.4809,8.551,8.6271,8.7301,8.7936,8.8287,8.8287,8.8287,8.8287,8.8287,8.8287,8.8287,8.8324,8.8463,8.8438,8.8277,8.8205,8.7492,8.6306,8.566,8.5026,8.4472,8.416,8.3806,8.3278,8.2212,8.1805,8.1614,8.0171,7.9484,7.9101,0.0,0.0,2.56,2.56,2.56,2.56,2.56,2.56,2.6162,2.7805,2.8027,2.8634,3.0219,3.0472,3.1491,3.3987,3.6523,4.0151,4.526,4.8575,5.1894,5.5295,5.7008,5.8268,5.9064,5.995,6.0415,6.0415,6.0415,6.0797,6.1593,6.1593,6.2089,6.2846,6.1975,6.1593,6.1669,6.2541,6.1975,6.0453,6.0415,5.9422,5.7695,5.5135,5.311,5.1652,5.1652,5.0086,4.7979,4.7941,4.8274,4.8856,4.9665,5.0725,0.0,5.266,5.4597,5.6326,5.5507,5.9506,6.4179,6.5336,6.8087,7.0865,7.2064,7.2994,7.4059,7.5712,7.5425,7.5153,7.5939,7.6123,7.6711,7.8295,7.8605,7.8914,7.9669,7.8369,7.7032,7.6203,7.613,7.6497,0.0,7.9596,8.1998,8.4439,8.4639,8.532,8.6936,8.7046,8.7046,8.7046,8.7046,8.7046,8.7046,8.7046,8.7046,8.7064,8.7635,8.7929,8.7886,8.7637,8.6677,8.5151,8.5113,8.4662,8.3888,8.354,8.3434,8.3278,8.2212,8.1805,8.169,8.0773,7.998,7.9292,0.0,0.0,0.0,2.5594,2.5615,2.5589,2.5552,2.5547,2.5926,2.6984,2.8512,0.0,0.0,0.0,0.0,0.0,3.716,4.0064,4.3474,4.733,5.0512,5.2798,5.5052,5.6625,5.7428,5.8307,5.8994,5.9529,5.9529,6.0255,6.1593,6.1593,6.2089,6.2846,6.1975,6.1593,6.1593,6.1325,6.1554,6.186,5.9644,5.9078,5.923,5.6129,5.3092,5.0323,0.0,4.7933,4.6557,4.5416,4.5407,4.6026,4.6811,4.6869,4.7183,4.9943,5.3366,5.667,5.8243,6.2108,6.6174,6.8173,7.027,7.2267,7.3773,7.428,7.4661,7.5212,7.4661,7.4184,7.4441,7.4955,7.5821,7.7472,7.8662,7.9669,8.0461,8.0571,7.9653,7.7179,7.7892,0.0,0.0,0.0,0.0,8.3564,8.3785,8.4739,8.6867,8.6978,8.6978,8.6978,8.6978,8.6978,8.6978,8.6978,8.6978,8.6995,8.7602,8.7883,8.7877,8.7608,8.6899,8.5862,8.5323,8.4407,8.3317,8.3599,8.3715,8.3652,8.3088,8.2741,8.2502,8.1652,8.0812,8.0018,0.0,0.0,0.0,0.0,0.0,0.0,0.0,0.0,0.0,0.0,0.0,0.0,0.0,0.0,0.0,0.0,0.0,3.8854,4.1719,4.501,4.7876,5.0124,5.2117,5.3531,5.4339,5.4906,5.5899,5.7307,5.7307,5.8338,6.0293,6.0293,6.0599,6.1096,6.0523,6.0293,6.0255,6.0026,6.0217,6.0446,5.8307,5.7351,5.6931,5.4218,5.0875,0.0,4.6101,4.4777,4.3567,4.2805,4.3144,4.4083,4.5484,4.6544,4.794,5.1213,5.4554,5.8065,6.1961,6.5154,6.8017,7.0697,7.2386,7.3634,7.4647,7.4903,7.472,7.4169,7.3156,7.2312,7.2018,7.2165,7.323,7.6004,7.7855,7.9507,8.1195,8.1636,8.0865,7.8463,7.914,7.9376,0.0,0.0,0.0,8.3197,8.3931,8.5049,8.6904,8.6978,8.6978,8.6978,8.6978,8.6978,8.6978,8.6978,8.6978,8.6995,8.7378,8.7591,8.757,8.7403,8.6892,8.6073,8.529,8.4235,8.3176,8.3438,8.359,8.357,8.325,8.3002,8.276,8.1814,8.1113,8.0562,0.0,0.0,0.0,0.0,0.0,0.0,0.0,0.0,0.0,0.0,0.0,0.0,0.0,0.0,0.0,0.0,0.0,0.0,3.9881,4.1757,4.4164,4.7412,4.8449,4.9333,5.0168,5.0168,5.1391,5.3913,5.3913,5.5174,5.7619,5.7619,5.7619,5.7619,5.7619,5.7619,5.7695,5.8453,5.7848,5.6403,5.6326,5.4365,5.1335,4.966,4.6774,4.3512,4.2704,4.1011,3.9363,4.0448,4.1796,4.347,4.5782,4.9657,5.3801,5.6223,5.8168,6.0774,6.6256,6.8458,6.9963,7.3046,7.4368,7.4903,7.494,7.483,7.4243,7.2642,7.0954,6.9522,0.0,0.0,6.9155,7.3876,7.6188,7.85,8.1782,8.1672,8.0938,0.0,0.0,0.0,0.0,0.0,0.0,8.3344,8.4829,8.604,8.6941,8.6978,8.6978,8.6978,8.6978,8.6978,8.6978,8.6978,8.6978,8.6978,8.6978,8.6978,8.6978,8.6978,8.6554,8.5747,8.4976,8.4168,8.3357,8.3124,8.3024,8.2964,8.2706,8.2631,8.2446,8.1403,8.093,8.0845,0.0,0.0,0.0,0.0,0.0,0.0,0.0,0.0,0.0,0.0,0.0,0.0,0.0,0.0,0.0,0.0,0.0,0.0,3.7398,4.0196,4.2488,4.4017,4.608,4.757,4.8405,4.8443,4.936,5.1276,5.1276,5.2231,5.411,5.411,5.411,5.411,5.411,5.411,5.411,5.4333,5.4142,5.3651,5.2422,5.1262,5.0158,4.8491,4.6239,4.3844,4.3014,4.1794,4.0764,4.1846,4.465,4.7997,4.9239,5.2122,5.5464,5.7875,6.1471,6.5228,6.7871,7.094,7.3692,7.5139,7.5212,7.505,7.5652,7.3949,7.1747,7.0132,6.7577,6.5007,0.0,0.0,0.0,7.0844,7.5249,0.0,8.2647,8.3948,0.0,8.2663,0.0,8.292,8.1725,8.2847,0.0,8.4278,8.4132,8.4903,8.6867,8.6978,8.6978,8.6978,8.6978,8.6978,8.6978,8.6978,8.6978,8.6978,8.6978,8.6978,8.6978,8.6978,8.6554,8.5783,8.5563,8.4682,8.3398,8.3321,8.317,8.2994,8.2931,8.277,8.2558,8.2272,8.1382,8.0338,0.0,0.0,0.0,0.0,0.0,0.0,0.0,0.0,0.0,0.0,0.0,0.0,0.0,0.0,0.0,0.0,0.0,0.0,0.0,3.8591,4.0387,4.1643,4.3056,4.4164,4.501,4.4699,4.5501,4.7526,4.7526,4.8596,5.0627,5.0627,5.0627,5.0627,5.0627,5.0627,5.0627,5.0627,5.0541,0.0,0.0,4.7877,4.6826,4.5533,4.371,4.1831,4.134,4.2493,4.4469,4.5794,0.0,5.2391,5.3592,5.6161,5.9318,6.2108,0.0,6.8054,7.0367,7.3156,7.5542,7.5983,7.5763,7.5102,7.378,7.1798,6.9178,6.5435,6.2915,6.0798,5.8694,6.1337,6.4971,0.0,0.0,0.0,8.283,8.4499,8.5086,0.0,8.4866,0.0,8.3891,8.4609,8.527,8.5637,8.5216,8.5546,8.6904,8.6978,8.6978,8.6978,8.6978,8.6978,8.6978,8.6978,8.6978,8.6978,8.6978,8.6978,8.6978,8.6978,8.6775,8.6297,8.593,8.527,8.4389,8.3675,8.3316,8.3149,8.2795,8.2564,8.2404,8.23,8.1797,8.1156,0.0,0.0,0.0,0.0,0.0,0.0,0.0,0.0,0.0,0.0,0.0,0.0,0.0,0.0,0.0,0.0,0.0,0.0,0.0,0.0,3.8438,4.0076,4.0229,4.0611,4.1347,4.0649,4.1414,4.3663,4.3663,4.4852,4.7144,4.7144,4.7144,4.7144,4.7226,4.7253,4.7247,4.7333,4.707,4.6594,4.5906,4.4424,4.2594,0.0,0.0,3.9101,3.9428,4.2959,4.7893,5.0435,5.3628,5.6833,5.8474,6.1104,6.4224,6.7407,6.8898,7.022,7.334,7.5212,7.6276,7.6276,7.5946,7.4625,7.0807,6.8825,6.6059,5.9967,5.7923,5.6723,5.5108,5.7593,6.1557,6.6562,0.0,7.7451,8.2684,8.4095,8.4939,8.5857,8.5967,8.5967,8.5967,8.5967,8.6261,8.6941,8.6978,8.6978,8.6978,8.6978,8.6978,8.6978,8.6978,8.6978,8.6978,8.6978,8.6978,8.6978,8.6978,8.6978,8.6978,8.6978,8.6978,8.6941,8.6261,8.5894,8.5673,8.4168,8.3491,8.3308,8.2517,8.2186,8.2157,8.1931,8.2066,8.2184,0.0,0.0,0.0,0.0,0.0,0.0,0.0,0.0,0.0,0.0,3.4006,3.378,0.0,0.0,0.0,0.0,0.0,0.0,0.0,0.0,0.0,3.9159,3.9924,4.0382,4.0497,4.0382,4.084,4.1915,4.1915,4.2526,4.3673,4.3673,4.3673,4.3701,4.4117,4.4335,4.4361,4.4808,4.4156,4.2867,4.2767,4.1552,3.9811,3.9656,0.0,0.0,4.1009,4.2438,4.4415,5.1426,5.7262,6.1838,6.349,6.5802,6.8334,7.0917,7.2239,7.3413,7.5968,7.6885,7.7105,7.7105,7.5087,7.2422,6.9743,6.5375,0.0,0.0,5.452,5.2538,5.0932,5.4363,5.9233,6.4811,6.9889,7.5542,8.2427,8.4095,8.5159,0.0,8.6811,8.6811,8.6811,8.6811,0.0,8.6978,8.6978,8.6978,8.6978,8.6978,8.6978,8.6978,8.6978,8.6978,8.6978,8.6978,8.6978,8.6978,8.6978,8.6978,8.6978,8.6978,8.6978,8.6978,8.6831,8.6407,8.571,8.4792,8.4005,8.3308,8.2517,8.2186,8.2203,8.2132,8.1766,8.12,0.0,0.0,0.0,0.0,0.0,0.0,0.0,0.0,3.4366,3.6914,3.7271,3.6757,3.5458,3.5224,0.0,0.0,0.0,0.0,0.0,0.0,0.0,0.0,3.9847,4.0306,4.0306,4.0306,0.0,0.0,0.0,4.1074,0.0,0.0,0.0,0.0,0.0,4.206,4.1713,4.2247,4.1675,4.0456,4.047,3.9844,0.0,0.0,0.0,0.0,0.0,0.0,4.5397,4.9287,5.5489,6.2059,6.5007,6.7857,7.0389,7.1527,7.3046,7.4588,7.5747,7.6665,7.7215,7.6775,7.4243,7.0793,6.6683,0.0,0.0,0.0,5.0545,4.9214,4.8453,5.227,5.6859,6.086,6.5582,7.1417,7.9124,8.0555,8.2353,8.65,8.6978,8.6978,8.6978,8.6978,8.6978,8.6978,8.6978,8.6978,8.6978,8.6978,8.6978,8.6978,8.6978,8.6978,8.6978,8.6978,8.6978,8.6978,8.6978,8.6978,8.6978,8.6978,8.6978,8.6978,8.6978,8.6775,8.6334,8.5086,8.4389,8.3911,8.2663,8.2186,8.2186,8.2186,8.2118,8.1862,0.0,0.0,0.0,0.0,0.0,0.0,0.0,3.3871,3.6564,3.9282,4.019,3.9809,3.7784,3.6638,3.5874,0.0,0.0,0.0,0.0,0.0,0.0,0.0,0.0,4.0306,4.0306,0.0,0.0,0.0,0.0,0.0,0.0,0.0,0.0,0.0,0.0,0.0,0.0,4.0364,4.0042,0.0,0.0,0.0,0.0,0.0,0.0,0.0,0.0,0.0,0.0,4.7562,5.2443,5.8572,6.3025,6.7247,7.061,7.094,7.2738,7.4757,7.527,7.6335,7.7105,7.6313,7.356,6.9545,6.382,5.9159,0.0,4.914,4.7269,4.6672,4.7039,5.0388,5.4179,5.7483,6.1667,6.738,7.5637,7.7399,8.0041,0.0,8.6904,0.0,8.6978,8.6978,8.6978,8.6978,8.6978,8.6978,8.6978,8.6978,8.6978,8.6978,8.6978,8.6978,8.6978,8.6978,8.6978,8.6978,8.6978,8.6978,8.6978,8.6978,8.6978,8.6978,8.6978,8.6978,8.6867,8.527,8.4609,8.4425,8.281,8.2186,8.2186,8.2186,8.245,8.2562,0.0,0.0,0.0,0.0,0.0,0.0,0.0,3.4364,3.7661,4.0958,4.1375,4.1308,4.1079,3.9623,3.8052,0.0,0.0,0.0,0.0,0.0,0.0,0.0,0.0,0.0,0.0,0.0,0.0,0.0,0.0,0.0,0.0,0.0,0.0,0.0,0.0,0.0,0.0,0.0,0.0,0.0,0.0,0.0,0.0,0.0,0.0,0.0,0.0,0.0,0.0,0.0,0.0,5.0388,5.593,6.2438,6.8325,6.9779,0.0,0.0,7.6481,7.7179,7.7105,7.6313,7.312,6.8715,6.2989,0.0,5.2333,4.8067,4.5984,4.536,4.6819,4.8076,5.0875,5.7005,6.0199,6.5044,7.3876,7.7671,8.1138,8.5433,0.0,0.0,8.6978,8.6978,8.6978,8.6978,8.6978,8.6978,8.6978,8.6978,8.6978,8.6978,8.6978,8.6978,8.6978,8.6978,8.6978,8.6978,8.6978,8.6978,8.6978,8.6978,8.6978,8.6978,8.6978,8.6978,8.6867,8.527,8.4609,8.4425,8.281,8.2186,8.2186,8.2186,8.2235,8.2121,0.0,0.0,0.0,0.0,0.0,0.0,0.0,3.4711,3.7428,4.1812,4.2331,4.2288,4.2264,4.1676,4.019,0.0,0.0,0.0,0.0,0.0,0.0,0.0,0.0,0.0,0.0,0.0,0.0,0.0,0.0,0.0,0.0,0.0,0.0,0.0,0.0,0.0,0.0,0.0,0.0,0.0,0.0,0.0,0.0,0.0,0.0,0.0,0.0,0.0,0.0,0.0,0.0,0.0,5.1132,5.5684,0.0,0.0,6.8531,7.1358,7.3766,7.5124,7.5674,7.4845,7.1615,6.7297,6.2071,5.6528,5.1316,4.7241,4.5112,4.4452,4.6094,4.7049,4.9067,5.3639,5.5181,5.8779,6.721,7.0367,7.4368,8.1358,8.3765,8.5399,8.6867,8.6978,8.6978,8.6978,8.6978,8.6978,8.6978,8.6978,8.6978,8.6978,8.6978,8.6978,8.6978,8.6978,8.6978,8.6978,8.6978,8.6978,8.6978,8.6978,8.6978,8.6978,8.6978,8.6978,8.6904,8.5783,8.5049,8.4499,8.3361,8.2627,8.2186,8.2186,8.2186,8.2076,0.0,0.0,0.0,0.0,0.0,2.9267,3.2916,3.477,3.7345,4.163,4.2339,4.2556,4.2785,4.2379,4.1244,3.9038,0.0,0.0,0.0,0.0,0.0,0.0,0.0,0.0,0.0,0.0,0.0,0.0,0.0,0.0,0.0,0.0,0.0,0.0,0.0,0.0,0.0,0.0,0.0,0.0,0.0,0.0,0.0,0.0,0.0,0.0,0.0,0.0,0.0,0.0,0.0,0.0,0.0,0.0,0.0,0.0,6.5118,6.8421,7.1064,7.3156,7.4368,7.356,7.0344,6.6072,6.1141,5.5684,5.0618,4.7021,4.4966,4.4342,4.5957,4.6718,4.8113,5.1132,5.2428,5.5732,6.3392,6.6439,7.077,7.8531,8.1158,8.3271,8.5693,8.6574,8.6978,8.6978,8.6978,8.6978,8.6978,8.6978,8.6978,8.6978,8.6978,8.6978,8.6978,8.6978,8.6978,8.6978,8.6978,8.6978,8.6978,8.6978,8.6978,8.6978,8.6978,8.6978,8.6904,8.5857,8.5123,8.4499,8.3454,8.27,8.2186,8.2186,8.2186,8.2113,0.0,0.0,0.0,0.0,0.0,0.0,0.0,3.4539,3.7625,4.0175,4.1161,4.1913,4.2723,4.1425,4.079,4.1494,0.0,0.0,0.0,0.0,0.0,0.0,0.0,0.0,0.0,0.0,4.15,4.15,4.2374,0.0,0.0,0.0,0.0,0.0,0.0,0.0,0.0,0.0,0.0,0.0,0.0,0.0,0.0,0.0,0.0,0.0,0.0,0.0,0.0,0.0,0.0,0.0,0.0,0.0,0.0,0.0,6.2132,6.6022,6.9265,7.1872,7.3523,7.2716,6.9486,6.5228,6.0334,5.4866,5.0095,4.759,4.5801,4.5177,4.6782,4.7076,4.792,5.0398,5.3482,5.7861,6.4371,6.8738,7.3068,7.8038,7.9339,8.0807,8.3197,8.5583,8.6978,8.6978,8.6978,8.6978,8.6978,8.6978,8.6978,8.6978,8.6978,8.6978,8.6978,8.6978,8.6978,8.6978,8.6978,8.6978,8.6978,8.6978,8.6978,8.6978,8.6978,8.6978,8.6867,8.527,8.4609,8.4425,8.2847,8.2186,8.2186,8.2186,8.2186,8.2186,0.0,0.0,0.0,0.0,0.0,0.0,0.0,3.2683,3.5014,3.7567,3.8577,3.9393,4.0193,4.0402,4.0573,4.0773,0.0,0.0,0.0,0.0,0.0,0.0,0.0,0.0,0.0,0.0,4.2068,4.3209,4.4093,4.4781,4.5316,4.4781,0.0,0.0,0.0,0.0,0.0,0.0,0.0,0.0,0.0,0.0,0.0,0.0,0.0,0.0,0.0,0.0,0.0,0.0,0.0,0.0,0.0,0.0,0.0,4.9618,5.4609,5.9245,6.1912,6.4016,6.5228,6.442,6.2866,6.0517,5.6785,5.3261,5.0105,4.759,4.5828,4.5177,4.6782,4.7113,4.8627,5.3309,5.4924,5.7678,6.3649,6.8408,7.2701,7.646,8.1525,8.5013,8.5766,8.6537,8.6978,8.6978,8.6978,8.6978,8.6978,8.6978,8.6978,8.6978,8.6978,8.6978,8.6978,8.6978,8.6978,8.6978,8.6978,8.6978,8.6978,8.6978,8.6978,8.6978,8.6978,8.6978,8.6904,8.5857,8.5086,8.4499,8.3434,8.27,8.2186,8.2186,8.2186,8.2186,0.0,0.0,0.0,0.0,0.0,0.0,0.0,3.1621,3.3728,3.5933,3.6695,3.7556,3.8975,3.9399,3.9795,4.0402,0.0,0.0,0.0,0.0,0.0,0.0,0.0,0.0,0.0,4.1074,4.2488,4.447,4.5354,4.6347,4.7455,4.6964,4.5932,4.4416,0.0,0.0,0.0,0.0,0.0,0.0,0.0,0.0,0.0,0.0,0.0,0.0,0.0,0.0,0.0,0.0,0.0,0.0,0.0,0.0,0.0,0.0,4.8453,5.2795,5.6785,5.9245,6.0566,6.0077,5.8902,5.7079,5.4142,5.1389,4.8884,4.7049,4.5838,4.5544,4.6856,4.7333,4.892,5.3115,5.4289,5.6785,6.2768,6.7527,7.2151,7.6937,8.2333,8.562,8.562,8.6464,8.6978,8.6978,8.6978,8.6978,8.6978,8.6978,8.6978,8.6978,8.6978,8.6978,8.6978,8.6978,8.6978,8.6978,8.6978,8.6978,8.6978,8.6978,8.6978,8.6978,8.6978,8.6978,0.0,8.5783,8.5049,8.4499,8.3398,8.2627,8.2186,8.2186,8.2186,8.2186,0.0,0.0,0.0,0.0,0.0,0.0,0.0,0.0,0.0,3.5115,3.5385,3.6332,3.8754,3.8404,3.8646,4.026,0.0,0.0,0.0,0.0,0.0,0.0,0.0,0.0,0.0,4.1151,4.2799,4.5283,4.6309,4.7646,4.9371,4.941,4.811,4.5654,4.5162,0.0,0.0,0.0,0.0,0.0,0.0,0.0,0.0,0.0,0.0,0.0,0.0,0.0,0.0,0.0,0.0,0.0,0.0,0.0,0.0,0.0,0.0,0.0,0.0,5.6528,5.8377,5.8279,5.6602,5.441,5.2097,4.9224,0.0,4.6067,4.5883,4.6214,4.7186,4.7929,4.903,5.1059,5.27,5.593,6.2242,6.6903,7.2312,7.9449,8.2296,8.3638,8.3638,8.5656,8.6978,8.6978,8.6978,8.6978,8.6978,8.6978,8.6978,8.6978,8.6978,8.6978,8.6978,8.6978,8.6978,8.6978,8.6978,8.6978,8.6978,8.6978,8.6978,8.6978,8.6978,8.6978,8.6794,8.5233,8.4572,8.4352,8.281,8.2186,8.2186,8.2186,8.2186,8.2186,0.0,0.0,0.0,0.0,0.0,0.0,0.0,0.0,0.0,0.0,3.4083,3.5234,3.7066,3.7692,3.8427,0.0,0.0,0.0,0.0,0.0,0.0,0.0,0.0,0.0,0.0,4.1724,4.3405,4.5283,4.8067,5.0283,5.197,5.2614,5.1582,4.9043,4.7256,4.4922,0.0,0.0,0.0,0.0,0.0,0.0,0.0,0.0,0.0,0.0,4.0194,4.0708,0.0,0.0,0.0,0.0,0.0,0.0,0.0,0.0,4.1801,4.2828,4.5599,0.0,5.0572,4.9324,4.9067,4.8773,0.0,4.6728,4.614,4.5957,4.5883,4.6728,4.9434,4.9591,5.1032,5.637,5.8058,6.0529,6.5815,7.273,7.925,8.4682,8.5803,8.6133,8.6133,8.6647,8.6978,8.6978,8.6978,8.6978,8.6978,8.6978,8.6978,8.6978,8.6978,8.6978,8.6978,8.6978,8.6978,8.6978,8.6978,8.6978,8.6978,8.6978,8.6978,8.6978,8.6978,8.6664,8.6004,8.5013,8.4242,8.3564,8.259,8.2186,8.2186,8.2186,8.2186,8.2186,0.0,0.0,0.0,0.0,0.0,0.0,0.0,0.0,0.0,0.0,0.0,0.0,0.0,0.0,0.0,0.0,0.0,0.0,0.0,0.0,0.0,0.0,0.0,0.0,4.0306,4.1533,4.3596,4.6462,4.8678,5.12,5.3989,5.3899,5.2551,5.0006,4.7212,4.4811,0.0,0.0,0.0,0.0,0.0,0.0,0.0,0.0,0.0,0.0,3.935,4.0112,0.0,4.1095,4.1874,4.2727,0.0,0.0,0.0,0.0,4.081,4.1287,4.2176,4.559,4.8673,4.7838,4.8196,4.848,4.7278,4.614,4.5259,4.4856,4.5369,4.6544,4.87,4.9994,5.2207,5.6785,5.9171,6.3025,7.0477,7.6607,8.2003,8.6464,8.6978,8.6978,8.6978,8.6978,8.6978,8.6978,8.6978,8.6978,8.6978,8.6978,8.6978,8.6978,8.6978,8.6978,8.6978,8.6978,8.6978,8.6978,8.6978,8.6978,8.6978,8.6978,8.6978,8.6978,8.6978,8.6554,8.5764,8.4939,8.4132,8.3308,8.2517,8.2186,8.2186,8.2186,8.2186,8.2186,0.0,0.0,0.0,0.0,0.0,0.0,0.0,0.0,0.0,0.0,0.0,0.0,0.0,0.0,0.0,0.0,0.0,0.0,0.0,0.0,0.0,0.0,0.0,4.0437,4.0688,4.1342,4.3634,4.7603,4.8984,5.1511,5.497,5.4572,5.2769,4.9804,4.6549,4.4517,0.0,0.0,0.0,0.0,0.0,0.0,0.0,0.0,0.0,0.0,0.0,0.0,0.0,4.0773,4.1882,4.3139,4.2213,0.0,0.0,0.0,0.0,0.0,4.1617,4.5736,4.9637,4.916,4.9931,5.0362,4.8663,4.6718,4.5067,4.4387,4.5415,4.6838,4.8003,5.0692,5.3602,5.6282,5.9722,6.5521,7.5469,7.936,8.2627,8.6537,8.6978,8.6978,8.6978,8.6978,8.6978,8.6978,8.6978,8.6978,8.6978,8.6978,8.6978,8.6978,8.6978,8.6978,8.6978,8.6978,8.6978,8.6978,8.6978,8.6978,8.6978,8.6978,8.6978,8.6978,8.6867,8.6371,8.5527,8.4756,8.3948,8.3161,8.248,8.2186,8.2186,8.2186,8.2186,8.2186,0.0,0.0,0.0,0.0,0.0,0.0,0.0,0.0,0.0,0.0,0.0,0.0,0.0,0.0,0.0,0.0,0.0,0.0,0.0,0.0,0.0,0.0,4.0325,4.0973,4.2374,4.2526,4.394,4.6686,5.0397,5.2543,5.3257,5.6366,5.5058,4.9965,4.7635,4.5424,4.3515,0.0,0.0,0.0,0.0,0.0,0.0,0.0,0.0,0.0,0.0,0.0,0.0,3.9313,4.0598,4.2213,4.0752,0.0,0.0,0.0,0.0,0.0,4.4048,4.7829,4.9958,4.7177,4.8636,5.0362,4.8663,4.8003,4.7709,4.7609,4.8352,4.9894,5.2747,5.4803,5.7288,6.1068,6.6169,7.2114,7.925,8.1269,8.3251,8.6611,8.6978,8.6978,8.6978,8.6978,8.6978,8.6978,8.6978,8.6978,8.6978,8.6978,8.6978,8.6978,8.6978,8.6978,8.6978,8.6978,8.6978,8.6978,8.6978,8.6978,8.6978,8.6978,8.6978,8.6941,8.6261,8.5527,8.4719,8.3911,8.3104,8.237,8.226,8.2186,8.2186,8.2186,8.2186,8.2186,0.0,0.0,0.0,0.0,0.0,0.0,0.0,0.0,0.0,0.0,0.0,0.0,0.0,0.0,0.0,0.0,0.0,0.0,0.0,0.0,0.0,4.171,4.1708,4.2006,4.2794,4.5048,4.7226,4.9245,5.2373,5.4444,5.5549,5.473,5.2597,4.9331,4.6565,4.4639,4.3523,4.3672,0.0,0.0,0.0,0.0,0.0,0.0,0.0,0.0,0.0,0.0,0.0,0.0,4.0671,4.2103,4.0928,0.0,0.0,0.0,0.0,0.0,4.2461,4.5984,4.8773,4.86,5.1646,5.4363,5.3177,5.1893,5.0829,5.0398,5.1316,5.2648,5.4142,5.7152,6.13,6.7086,7.2092,7.6754,8.1048,8.27,8.4389,8.6721,8.6978,8.6978,8.6978,8.6978,8.6978,8.6978,8.6978,8.6978,8.6978,8.6978,8.6978,8.6978,8.6978,8.6978,8.6978,8.6978,8.6978,8.6978,8.6978,8.6978,8.6978,8.6978,8.6978,8.6941,8.6151,8.5343,8.4535,8.3711,8.292,8.2186,8.2186,8.2186,8.2186,8.2186,8.2186,8.2186,0.0,0.0,0.0,0.0,0.0,0.0,0.0,0.0,0.0,0.0,0.0,0.0,0.0,0.0,0.0,0.0,0.0,0.0,0.0,0.0,4.1332,4.2558,4.3116,4.3751,4.4551,4.7341,4.9901,5.2187,5.4058,5.5864,5.757,5.3361,5.0448,4.8654,4.5836,4.4182,4.3523,4.3755,4.3714,0.0,0.0,0.0,0.0,0.0,0.0,0.0,0.0,0.0,0.0,0.0,0.0,0.0,0.0,0.0,0.0,4.0414,3.9606,3.9489,4.1874,4.4764,4.781,5.0865,5.4289,5.7005,5.7508,5.5783,5.4132,5.4473,5.55,5.6381,5.6381,6.0493,6.5999,7.2569,7.69,8.0204,8.2443,8.3985,8.5416,8.6831,8.6978,8.6978,8.6978,8.6978,8.6978,8.6978,8.6978,8.6978,8.6978,8.6978,8.6978,8.6978,8.6978,8.6978,8.6978,8.6978,8.6978,8.6978,8.6978,8.6978,8.6978,8.6978,8.6904,8.6664,8.5857,8.5049,8.4278,8.3454,8.2774,8.2186,8.2186,8.2186,8.2186,8.2186,8.2186,8.2186,0.0,0.0,0.0,0.0,0.0,0.0,0.0,0.0,0.0,0.0,0.0,0.0,0.0,0.0,0.0,0.0,0.0,0.0,0.0,0.0,4.1685,4.1796,4.3924,4.6582,4.971,4.852,4.9857,5.3913,5.488,5.5864,5.683,5.4534,5.1633,4.829,4.694,4.5268,4.3506,4.354,4.3532,0.0,0.0,0.0,0.0,0.0,0.0,0.0,0.0,0.0,0.0,0.0,0.0,0.0,0.0,0.0,4.2066,4.125,4.0451,4.0818,4.5434,4.6892,4.8213,5.2968,5.3849,5.4682,5.9123,5.8279,5.7581,6.1251,6.2095,6.2205,6.2205,6.6793,7.2004,7.6261,7.9764,8.2517,8.4205,8.5159,8.604,8.6904,8.6978,8.6978,8.6978,8.6978,8.6978,8.6978,8.6978,8.6978,8.6978,8.6978,8.6978,8.6978,8.6978,8.6978,8.6978,8.6978,8.6978,8.6978,8.6978,8.6978,8.6978,8.6978,8.6591,8.582,8.5049,8.4242,8.3418,8.2627,8.226,8.2186,8.2186,8.2186,8.2186,8.2186,8.2186,8.2186,0.0,0.0,0.0,0.0,0.0,0.0,0.0,0.0,0.0,0.0,0.0,0.0,0.0,0.0,0.0,0.0,0.0,0.0,0.0,0.0,4.183,4.3895,4.4335,4.6304,5.0206,5.1238,5.2766,5.49,5.5535,5.5905,5.5911,5.2356,4.9973,4.8557,4.5853,4.4507,4.4195,4.3726,4.38,4.4195,0.0,0.0,0.0,0.0,0.0,0.0,0.0,0.0,0.0,0.0,4.1434,4.1764,4.125,4.1654,4.2139,4.136,4.0524,4.0532,4.3351,4.5948,4.8773,5.2664,5.4535,5.6444,6.0272,6.2401,6.4163,6.6169,6.699,6.7357,6.7357,7.033,7.378,7.6812,8.0057,8.2774,8.4389,8.527,8.6077,8.6904,8.6978,8.6978,8.6978,8.6978,8.6978,8.6978,8.6978,8.6978,8.6978,8.6978,8.6978,8.6978,8.6978,8.6978,8.6978,8.6978,8.6978,8.6978,8.6978,8.6978,8.6978,8.6978,8.6554,8.5747,8.4939,8.4132,8.3344,8.2517,8.2186,8.2186,8.2186,8.2186,8.2186,8.2186,8.2186,8.2186,0.0,0.0,0.0,0.0,0.0,0.0,0.0,0.0,0.0,0.0,0.0,0.0,0.0,0.0,0.0,0.0,0.0,0.0,4.1373,4.1276,4.2107,4.4102,4.4345,4.5905,4.9022,5.1888,5.4104,5.5785,5.6525,5.6223,5.49,5.1596,4.9847,4.9361,4.6092,4.5076,4.5764,4.4709,4.4562,4.4993,4.4195,4.3534,0.0,0.0,0.0,0.0,0.0,0.0,0.0,0.0,4.2057,4.2249,4.1956,4.2249,4.2506,4.169,4.1434,4.1662,4.2763,4.5617,4.9104,5.237,5.5416,5.8535,6.2291,6.5314,6.7994,7.033,7.1027,7.1321,7.1578,7.3156,7.5065,7.6995,8.0262,8.2957,8.4058,8.5123,8.6004,8.6554,8.6831,8.6978,8.6978,8.6978,8.6978,8.6978,8.6978,8.6978,8.6978,8.6978,8.6978,8.6978,8.6978,8.6978,8.6978,8.6978,8.6978,8.6978,8.6738,8.6628,8.6628,8.6628,8.604,8.5013,8.4462,8.3765,8.2994,8.2443,8.2186,8.2186,8.2186,8.2186,8.2186,8.2186,8.2186,8.2186,0.0,0.0,0.0,0.0,0.0,0.0,0.0,0.0,0.0,0.0,0.0,0.0,0.0,0.0,0.0,0.0,0.0,0.0,4.0563,4.2066,4.2598,4.1647,4.402,4.5722,4.6462,4.9818,5.3219,5.6549,5.7893,5.6916,5.3739,5.294,5.1926,5.0655,4.8213,4.7562,4.815,4.6581,4.5883,4.5847,4.503,4.47,0.0,0.0,0.0,0.0,0.0,0.0,0.0,0.0,4.2955,4.2433,4.3249,4.3506,4.3359,4.2543,4.3452,4.47,4.47,4.6461,4.914,5.2407,5.6297,6.0554,6.5448,6.6549,6.8164,7.3802,7.4294,7.4001,7.4793,7.5579,7.6387,7.7179,8.0739,8.3381,8.3381,8.4756,8.58,8.5783,8.6518,8.6978,8.6978,8.6978,8.6978,8.6978,8.6978,8.6978,8.6978,8.6978,8.6978,8.6978,8.6978,8.6978,8.6978,8.6978,8.6978,8.6978,8.6151,8.5783,8.58,8.5783,8.4903,8.3381,8.3381,8.2957,8.2186,8.2186,8.2186,8.2186,8.2186,8.2186,8.2186,8.2186,8.2186,8.2186,0.0,0.0,0.0,0.0,0.0,0.0,0.0,0.0,0.0,0.0,0.0,0.0,0.0,0.0,0.0,0.0,0.0,0.0,4.1407,4.1857,4.2193,4.2506,4.3771,4.4564,4.4737,4.7861,5.083,5.3664,5.466,5.3504,5.0383,5.1017,4.9921,4.7352,4.7783,4.7452,4.6581,4.6104,4.625,4.6608,4.525,4.503,0.0,0.0,0.0,0.0,0.0,0.0,0.0,0.0,0.0,0.0,4.3433,4.4277,4.4819,4.2873,4.3452,4.47,4.47,4.7755,5.183,5.5647,6.004,6.4591,6.8885,7.1197,7.356,7.7524,7.8164,7.7708,7.6775,7.7304,7.8112,7.8919,8.0571,8.2096,8.3234,8.3821,8.4315,8.4903,8.5673,8.6151,8.6151,8.6664,8.6978,8.6978,8.6978,8.6978,8.6978,8.6978,8.6978,8.6978,8.6978,8.6978,8.6978,8.6444,8.6151,8.6151,8.5343,8.5233,8.58,8.5196,8.4389,8.3381,8.3381,8.2957,8.2186,8.2186,8.2186,8.2186,8.2186,8.2186,8.2186,8.2186,8.2186,8.2186,0.0,0.0,0.0,0.0,0.0,0.0,0.0,0.0,0.0,0.0,0.0,0.0,0.0,0.0,0.0,0.0,0.0,0.0,0.0,4.1852,4.2423,4.2847,4.4001,4.5015,4.5805,4.7928,4.9542,5.0538,5.172,5.0879,4.8243,5.0306,5.0215,4.8379,4.9994,4.9848,4.8306,4.7976,4.7562,4.7003,4.6049,4.6131,4.6507,0.0,0.0,0.0,0.0,0.0,0.0,0.0,0.0,0.0,4.3029,4.391,4.4782,4.3975,4.5112,4.6828,4.7819,5.1169,5.5365,5.9391,6.3135,6.7086,7.2078,7.483,7.7194,8.0147,8.0257,7.9486,7.8479,7.8736,7.9229,7.9706,8.0718,8.1819,8.281,8.3197,8.3564,8.4058,8.4829,8.5306,8.5306,8.5747,8.6187,8.6518,8.6518,8.6664,8.6978,8.6978,8.6831,8.6518,8.6518,8.6371,8.604,8.5563,8.5306,8.5306,8.4499,8.4389,8.4829,8.4352,8.3691,8.292,8.292,8.2663,8.2186,8.2186,8.2186,8.2186,8.2186,8.2186,8.2186,8.2186,8.2186,8.2186,0.0,0.0,0.0,0.0,0.0,0.0,0.0,0.0,0.0,0.0,4.0516,0.0,0.0,0.0,0.0,0.0,0.0,0.0,0.0,0.0,4.2892,4.2915,4.4594,4.6446,4.8465,4.9047,4.8769,4.7616,4.9265,4.9,4.6966,5.0472,5.195,5.173,5.3482,5.3298,5.162,5.0802,4.9104,4.7003,4.7003,4.7416,4.7672,4.3938,0.0,0.0,0.0,0.0,0.0,0.0,0.0,0.0,4.2359,4.2919,4.38,4.5259,4.7425,4.9884,5.2223,5.539,5.8988,6.3185,6.5705,6.8715,7.4735,7.7341,7.9176,8.1599,8.0991,8.0036,8.0036,8.0036,8.0036,8.0036,8.1248,8.2186,8.2186,8.2847,8.3271,8.3271,8.4005,8.4499,8.4499,8.4572,8.4903,8.5637,8.569,8.6004,8.6721,8.6757,8.6444,8.571,8.569,8.5343,8.4609,8.4535,8.4499,8.4499,8.3675,8.3271,8.3271,8.3271,8.2884,8.2186,8.2186,8.2186,8.2186,8.2186,8.2186,8.2186,8.2186,8.2186,8.2186,8.2186,8.2186,8.2186,0.0,0.0,0.0,0.0,0.0,0.0,0.0,0.0,0.0,0.0,0.0,0.0,0.0,0.0,0.0,0.0,0.0,0.0,0.0,0.0,4.2511,4.3752,4.539,4.6789,4.7938,4.7046,4.6717,4.708,4.9039,4.8382,4.5324,5.0535,5.1563,4.9214,5.215,5.182,4.904,4.8223,4.7232,4.6177,4.6177,4.625,4.625,4.4737,4.4011,0.0,0.0,0.0,0.0,0.0,0.0,0.0,4.2837,4.3359,4.3579,4.391,4.6177,4.882,5.0041,5.4116,5.9134,6.387,6.8641,7.2826,7.5506,7.6864,7.828,8.0755,8.1489,8.1672,8.1672,8.1672,8.1672,8.1672,8.1966,8.2186,8.2186,8.2333,8.2443,8.2443,8.3177,8.3638,8.3638,8.4242,8.4682,8.4866,8.4866,8.4939,8.5123,8.5123,8.5049,8.4866,8.4866,8.4756,8.4609,8.3968,8.3638,8.3638,8.2847,8.2443,8.2443,8.2443,8.237,8.2186,8.2186,8.2186,8.2186,8.2186,8.2186,8.2186,8.2186,8.2186,8.2186,8.2186,8.2186,8.2186,0.0,0.0,0.0,0.0,0.0,0.0,0.0,0.0,0.0,0.0,0.0,0.0,0.0,0.0,0.0,0.0,0.0,0.0,0.0,4.2026,4.2962,4.4597,4.6631,4.7318,4.6385,4.6606,4.6485,4.6044,4.7676,4.7568,4.5938,5.0498,5.194,5.0755,5.3261,5.2527,4.9434,4.8636,4.7168,4.5369,4.5736,4.5883,4.5773,4.4562,4.3873,4.3322,4.2139,0.0,0.0,0.0,0.0,0.0,0.0,0.0,4.2727,4.4672,4.6425,4.8517,5.2087,5.6014,6.0529,6.6182,7.066,7.3942,7.4771,7.5873,7.7215,7.8867,8.0498,8.1636,8.1636,8.1929,8.2186,8.2186,8.2186,8.2186,8.2186,8.2186,8.2186,8.2186,8.2553,8.2847,8.2847,8.3214,8.3618,8.4005,8.4022,8.4205,8.4572,8.4609,8.4425,8.4058,8.4022,8.3838,8.3434,8.303,8.2847,8.281,8.2406,8.2186,8.2186,8.2186,8.2186,8.2186,8.2186,8.2186,8.2186,8.2186,8.2186,8.2186,8.2186,8.2186,8.2186,8.2186,8.2186,8.2186,0.0,0.0,0.0,0.0,0.0,0.0,0.0,0.0,0.0,0.0,0.0,0.0,0.0,0.0,0.0,0.0,0.0,0.0,0.0,4.2689,4.3842,4.525,4.7461,4.7627,4.5362,4.6569,4.6687,4.5608,4.6162,4.7107,4.8434,5.0986,5.2711,5.3654,5.4557,5.3408,5.0729,4.9344,4.7104,4.4553,4.5369,4.5626,4.5333,4.402,4.3396,4.3065,4.147,4.0993,4.0993,4.0157,0.0,0.0,0.0,0.0,4.1617,4.5205,4.6388,4.7709,5.3361,5.7691,6.2144,6.8495,7.1798,7.3538,7.3685,7.4735,7.5909,7.6738,7.8867,8.0681,8.0938,8.1525,8.2039,8.2186,8.2186,8.2186,8.2186,8.2186,8.2186,8.2186,8.2186,8.2186,8.2186,8.2186,8.248,8.3124,8.3197,8.3471,8.4168,8.4205,8.3875,8.3197,8.3197,8.2884,8.2186,8.2186,8.2186,8.2186,8.2186,8.2186,8.2186,8.2186,8.2186,8.2186,8.2186,8.2186,8.2186,8.2186,8.2186,8.2186,8.2186,8.2186,8.2186,8.2186,8.2186,8.2186,0.0,0.0,0.0,0.0,0.0,0.0,0.0,0.0,0.0,0.0,0.0,4.0516,4.0516,4.0516,0.0,0.0,0.0,0.0,4.1656,0.0,0.0,4.5283,4.6271,4.7013,4.74,4.5723,4.5792,4.7709,4.5869,4.7886,5.3408,5.3141,5.3849,5.5218,5.3309,5.183,5.0545,4.6902,4.4709,4.3726,4.4525,4.4452,4.38,4.3579,4.3065,4.2249,4.0634,4.0524,4.0993,4.0157,4.0414,0.0,0.0,0.0,4.0451,4.2359,4.3424,4.4461,4.6728,5.4252,6.2842,6.8641,7.1394,7.2826,7.3523,7.3868,7.4258,7.505,7.7194,7.936,8.0755,8.1085,8.1379,8.2076,8.2186,8.2186,8.2186,8.2186,8.2186,8.2186,8.2186,8.2186,8.2186,8.2186,8.2223,8.2333,8.237,8.2406,8.2517,8.2517,8.248,8.237,8.237,8.2296,8.2186,8.2186,8.2186,8.2186,8.2186,8.2186,8.2186,8.2186,8.2186,8.2186,8.2186,8.2186,8.2186,8.2186,8.2186,8.2186,8.2186,8.2186,8.2186,8.2186,8.2186,8.2186,0.0,0.0,0.0,0.0,0.0,0.0,0.0,0.0,0.0,0.0,0.0,4.0516,4.0516,4.0492,0.0,0.0,0.0,0.0,4.1602,4.3498,0.0,0.0,4.5807,4.6227,4.5687,4.5026,4.5118,4.5954,4.4841,4.7546,5.3728,5.4289,5.6124,5.8852,5.5978,5.3995,5.2527,4.7966,4.5324,4.4158,4.4085,4.5195,4.6627,4.3873,4.4011,4.5214,4.1801,4.1103,4.1654,4.0846,4.1103,4.1764,4.1654,0.0,0.0,0.0,4.1874,4.3387,4.9114,5.5354,6.1728,6.7907,7.0293,7.1468,7.2753,7.3046,7.3266,7.4074,7.5102,7.646,7.8537,7.9323,7.991,8.0734,8.1232,8.1525,8.1525,8.1929,8.2186,8.2186,8.2186,8.2186,8.2186,8.2186,8.2186,8.2186,8.2186,8.2186,8.2186,8.2186,8.2186,8.2186,8.2186,8.2186,8.2186,8.2186,8.2186,8.2186,8.2186,8.2186,8.2186,8.2186,8.2186,8.2186,8.2186,8.2186,8.2186,8.2186,8.2186,8.2186,8.2186,8.2186,8.2186,8.2186,8.2186,8.2186,0.0,0.0,0.0,0.0,0.0,0.0,0.0,0.0,0.0,0.0,0.0,0.0,4.05,0.0,0.0,0.0,0.0,0.0,4.1513,0.0,0.0,0.0,0.0,4.5131,4.4228,4.4171,4.4277,4.4527,4.3898,4.7203,5.4132,5.5133,5.8302,6.3001,5.9123,5.6187,5.3812,4.9324,4.6718,4.5581,4.5195,4.6884,4.927,4.6434,4.7131,4.8957,4.4296,4.3012,4.3305,4.1874,4.1947,4.247,4.1654,4.0855,0.0,0.0,0.0,4.2168,4.9838,5.4462,5.8572,6.4884,6.7834,6.9669,7.1468,7.2055,7.2422,7.323,7.3377,7.4001,7.6004,7.7268,7.8295,7.9339,7.9984,8.0461,8.0681,8.1195,8.1615,8.1615,8.1615,8.1615,8.1615,8.1782,8.1819,8.1599,8.1782,8.1893,8.1893,8.1893,8.2003,8.2186,8.2186,8.2186,8.2186,8.2186,8.2186,8.2186,8.2186,8.2186,8.2186,8.2186,8.2186,8.2186,8.2186,8.2186,8.2186,8.2186,8.2186,8.2186,8.2186,8.2186,8.2186,8.2186,8.2186,8.2186,0.0,0.0,0.0,0.0,0.0,0.0,0.0,0.0,0.0,0.0,0.0,0.0,0.0,0.0,0.0,0.0,0.0,0.0,0.0,0.0,0.0,0.0,0.0,0.0,4.4743,4.2976,4.3058,4.5154,4.3303,4.726,5.659,5.5904,5.9807,6.715,6.1545,5.6921,5.3031,4.9654,4.8186,4.8196,4.8976,4.938,4.9821,5.2674,5.3445,5.2407,4.825,4.6819,4.6379,4.3269,4.2763,4.3286,4.2506,4.169,4.0883,0.0,0.0,0.0,4.4039,4.815,5.2601,5.8279,6.3196,6.732,6.9669,7.0807,7.16,7.2422,7.2569,7.2826,7.3707,7.5175,7.6754,7.8405,7.8699,7.8993,7.9779,7.989,7.9926,7.9926,7.9926,7.9926,7.9926,8.0608,8.0755,8.0,8.0645,8.1048,8.1048,8.1048,8.1415,8.2186,8.2186,8.2186,8.2186,8.2186,8.2186,8.2186,8.2186,8.2186,8.2186,8.2186,8.2186,8.2186,8.2186,8.2186,8.2186,8.2186,8.2186,8.2186,8.2186,8.2186,8.2186,8.2186,8.2186,8.2186,0.0,0.0,0.0,0.0,0.0,0.0,0.0,0.0,0.0,0.0,0.0,0.0,0.0,4.039,4.0368,4.0334,4.0336,0.0,0.0,0.0,0.0,0.0,0.0,0.0,0.0,4.3014,4.2827,4.4706,4.309,4.57,5.2207,5.3995,5.6381,5.9171,5.971,5.9159,5.7471,5.216,5.0215,5.0692,5.0996,5.2968,5.5563,5.4168,5.5379,5.7152,5.2087,0.0,0.0,0.0,4.6113,4.4718,4.2873,4.1764,4.0846,3.9533,3.9276,4.023,4.3746,4.614,4.915,5.5354,5.9391,6.2585,6.5558,6.8458,7.0624,7.0881,7.1798,7.2606,7.2899,7.3817,7.4918,7.6041,7.668,7.7268,7.8075,7.8662,7.9213,7.9743,7.9816,7.9816,7.9816,8.0073,8.011,7.9816,8.0073,8.0461,8.0975,8.1012,8.1379,8.215,8.2186,8.2186,8.2186,8.2186,8.2186,8.2186,8.2186,8.2186,8.2186,8.2186,8.2186,8.2186,8.2186,8.2186,8.2186,8.2186,8.2186,8.2186,8.2186,8.2186,8.2186,8.2186,8.2186,8.2186,0.0,0.0,0.0,0.0,0.0,0.0,0.0,0.0,0.0,4.0863,0.0,0.0,0.0,0.0,4.1163,4.1149,4.1141,4.1122,4.116,0.0,0.0,0.0,0.0,0.0,0.0,4.324,4.2905,4.408,4.2893,4.4791,4.9647,5.205,5.3922,5.528,5.7141,5.8425,5.8877,5.4326,5.2721,5.3272,5.4106,5.6334,5.9196,5.8976,6.0346,6.1924,5.7886,0.0,0.0,0.0,0.0,4.7425,4.4452,4.2213,4.0443,3.9085,3.9276,4.0304,4.2168,4.3864,4.6517,5.2501,5.5207,5.7802,6.3246,6.5925,6.7797,6.9706,7.0954,7.1872,7.2386,7.2936,7.356,7.4368,7.4955,7.5579,7.6371,7.6995,7.7561,7.8075,7.8148,7.8274,7.8531,7.8809,7.8956,7.8956,7.9229,7.9743,8.0534,8.0608,8.1085,8.215,8.2186,8.2186,8.2186,8.2186,8.2186,8.2186,8.2186,8.2186,8.2186,8.2186,8.2186,8.2186,8.2186,8.2186,8.2186,8.2186,8.2186,8.2186,8.2186,8.2186,8.2186,8.2186,8.2186,8.2186,0.0,0.0,0.0,0.0,0.0,0.0,0.0,0.0,4.1701,4.1647,0.0,0.0,0.0,0.0,0.0,4.2833,4.2823,4.2832,4.2794,4.2832,0.0,0.0,0.0,0.0,4.4441,4.3601,4.3304,4.356,4.2735,4.4791,4.9454,5.0288,5.2784,5.6444,5.4132,5.4425,5.6554,5.5732,5.5511,5.5952,5.8205,5.9269,6.026,6.732,6.8605,6.6586,6.5765,6.338,0.0,5.6088,0.0,0.0,4.7241,4.3176,3.9798,3.9019,3.935,3.9798,0.0,0.0,0.0,4.937,5.0582,5.3115,6.2646,6.3062,6.3038,6.8678,6.9889,7.044,7.2092,7.2422,7.2716,7.3487,7.3648,7.3927,7.4757,7.4867,7.4867,7.4903,7.4903,7.5197,7.6019,7.6812,7.7289,7.7289,7.8075,7.8919,7.9706,7.9816,8.055,8.2113,8.2186,8.2186,8.2186,8.2186,8.2186,8.2186,8.2186,8.2186,8.2186,8.2186,8.2186,8.2186,8.2186,8.2186,8.2186,8.2186,8.2186,8.2186,8.2186,8.2186,8.2186,8.2186,8.2186,8.2186,0.0,0.0,0.0,0.0,0.0,0.0,4.2512,4.2535,4.254,0.0,0.0,0.0,4.2857,4.3359,4.3703,4.365,4.3673,4.3438,4.2832,4.3324,4.3672,4.373,4.3719,4.4203,4.5233,4.3661,4.346,4.4741,4.3671,4.4158,4.6104,4.7489,4.903,5.0682,5.1232,5.183,5.238,5.0949,5.3702,5.8914,5.7262,6.0456,6.6316,6.7173,6.8898,7.0734,6.9912,6.8298,6.6219,0.0,6.0126,5.5133,0.0,0.0,4.0736,4.0516,4.0993,4.1442,4.0663,0.0,0.0,0.0,0.0,0.0,5.2795,5.5658,5.8522,6.3038,6.5375,6.732,6.9486,7.083,7.1711,7.1931,7.2459,7.312,7.3927,7.4037,7.4258,7.483,7.4903,7.5197,7.6019,7.6313,7.6665,7.7252,7.7509,7.8023,7.8883,8.0021,8.0865,8.1342,8.1893,8.2186,8.2186,8.2186,8.2186,8.2186,8.2186,8.2186,8.2186,8.2186,8.2186,8.2186,8.2186,8.2186,8.2186,8.2186,8.2186,8.2186,8.2186,8.2186,8.2186,8.2186,8.2186,8.2186,0.0,0.0,0.0,0.0,0.0,4.4898,4.4898,4.4924,4.4814,0.0,0.0,0.0,4.4895,4.6533,4.7106,4.5725,4.5573,4.5081,4.3902,4.4284,4.445,4.4319,4.4507,4.477,4.5082,4.4534,4.4337,4.4482,4.4161,4.4085,4.4232,4.5507,4.6351,4.6828,4.7819,4.882,4.9618,4.7636,5.1086,5.7997,5.9171,6.2768,6.76,6.9339,7.1027,7.2569,7.312,7.2041,7.022,6.8921,6.4053,0.0,5.0582,4.6691,4.4195,4.1801,4.2865,0.0,0.0,0.0,0.0,0.0,0.0,0.0,5.0886,5.2611,5.4594,5.9979,6.2756,6.4811,6.6586,6.8495,6.9926,7.0243,7.0991,7.1908,7.3046,7.3193,7.3377,7.3839,7.3891,7.4221,7.5028,7.5395,7.5931,7.6738,7.7105,7.7693,7.8552,7.98,8.0498,8.0498,8.1269,8.1709,8.1709,8.2039,8.2186,8.2186,8.2186,8.2186,8.2186,8.2186,8.2186,8.2186,8.2186,8.2186,8.2186,8.2186,8.2186,8.2186,8.2186,8.2186,8.2186,8.2186,8.2186,8.2186,0.0,0.0,4.6533,4.6609,4.7373,4.8023,4.8176,4.8138,4.787,0.0,4.7188,4.7603,4.8672,5.1162,5.1697,4.8902,4.829,4.7417,4.5818,4.555,4.5387,4.5246,4.5782,4.5595,4.4498,4.5645,4.5394,4.3616,4.4268,4.4195,4.3506,4.4232,4.4553,4.4553,4.4553,4.5801,4.7783,4.6094,4.8957,5.5244,6.1728,6.4995,6.6609,7.2518,7.4059,7.334,7.5579,7.4955,7.2863,7.1784,6.6352,5.9159,5.4326,5.162,4.9197,4.3782,4.5324,0.0,4.5268,4.5993,0.0,0.0,4.692,0.0,5.2978,5.1914,5.1389,5.8107,6.0591,6.1949,6.3062,6.5277,6.71,6.7834,6.8935,7.0367,7.2239,7.2496,7.2496,7.2496,7.2496,7.2826,7.3611,7.4368,7.5087,7.5909,7.6702,7.7546,7.8405,7.9229,7.9669,7.9669,8.0534,8.1012,8.1012,8.1782,8.2186,8.2186,8.2186,8.2186,8.2186,8.2186,8.2186,8.2186,8.2186,8.2186,8.2186,8.2186,8.2186,8.2186,8.2186,8.2186,8.2186,8.2186,8.2186,8.2186,0.0,0.0,4.6724,4.7412,4.8258,4.9289,5.0659,5.0277,5.0245,5.1429,5.1582,5.2422,5.4639,5.3651,5.311,5.383,5.1385,4.9404,4.8416,4.7035,4.5846,4.4954,4.5671,4.5786,4.5062,4.5289,4.5123,4.448,4.3975,4.3653,4.3506,4.3653,4.3726,4.3726,4.3726,4.4342,4.5581,4.8406,5.2223,5.6444,5.7875,6.316,7.0426,7.2973,7.4955,7.6518,7.7708,7.7378,7.5931,7.3179,6.9082,6.4237,5.9343,5.6235,5.3712,4.9994,5.0498,5.1966,5.0702,5.0702,5.0655,4.8967,4.9444,0.0,4.8169,4.8719,5.0335,5.3088,5.3885,5.495,5.774,6.0199,6.1887,6.2034,6.4934,6.8458,7.2018,7.2496,7.2496,7.2496,7.2496,7.2826,7.3611,7.3817,7.4258,7.505,7.5873,7.6665,7.7509,7.8369,7.8809,7.8809,8.0241,8.1012,8.1012,8.1782,8.2186,8.2186,8.2186,8.2186,8.2186,8.2186,8.2186,8.2186,8.2186,8.2186,8.2186,8.2186,8.2186,8.2186,8.2186,8.2186,8.2186,8.2186,8.2186,8.2186,0.0,4.6233,4.703,4.8749,5.0092,5.1511,5.3219,5.3454,5.3919,5.518,5.6434,5.7199,5.7243,5.7199,5.6702,5.5511,5.3454,5.1314,4.9257,4.7735,4.6502,4.5495,4.5563,4.5522,4.5212,4.581,4.5666,4.47,4.4709,4.4277,4.3506,4.3506,4.435,4.5847,4.4635,4.592,4.8994,4.9848,5.2527,5.6565,6.0603,6.6366,7.2753,7.5212,7.7121,7.8589,7.9029,7.8662,7.7414,7.3744,7.0367,0.0,6.2426,6.015,5.84,0.0,5.4913,5.626,5.3849,5.3775,5.4106,5.2847,0.0,0.0,0.0,4.9517,4.9774,5.2611,5.2574,5.2601,5.4645,5.6638,5.8143,5.8547,6.2022,6.5362,6.738,6.9779,7.1284,7.1284,7.1651,7.2041,7.2459,7.323,7.4037,7.483,7.5652,7.6276,7.6665,7.7509,7.7949,7.7949,7.9543,8.0388,8.0388,8.1599,8.2186,8.2186,8.2186,8.2186,8.2186,8.2186,8.2186,8.2186,8.2186,8.2186,8.2186,8.2186,8.2186,8.2186,8.2186,8.2186,8.2186,8.2186,8.2186,8.226,0.0,0.0,4.7685,4.9901,5.1811,5.3569,5.5174,5.6243,5.7313,5.8689,6.1019,6.2013,6.0485,6.1822,6.1745,5.9033,5.6816,5.4409,5.1664,4.9524,4.7966,4.7081,4.6225,4.5722,4.565,4.6502,4.6131,4.448,4.5112,4.4791,4.3506,4.3506,4.5112,4.8003,4.6205,4.8406,5.3324,5.151,5.3529,5.8522,6.5241,6.9426,7.2055,7.6276,7.8185,7.8715,7.9522,7.9376,7.8222,7.4294,7.1578,6.9082,6.4664,6.349,0.0,0.0,0.0,6.0517,5.6785,5.7079,5.8168,5.7068,0.0,5.4226,0.0,0.0,0.0,5.3115,5.2538,5.1767,5.259,5.3665,5.4704,5.55,5.8756,6.1251,6.1398,6.5228,6.8238,6.8862,6.9926,7.061,7.061,7.1651,7.2973,7.4536,7.4698,7.5139,7.6056,7.6702,7.7142,7.7289,7.8919,7.9816,7.9816,8.1395,8.2186,8.2186,8.2186,8.2186,8.2186,8.2186,8.2186,8.2186,8.2186,8.2186,8.2186,8.2186,8.2186,8.2186,8.2186,8.2186,8.2186,8.2186,8.2186,8.2333,4.7335,4.8258,4.9104,5.013,5.2346,5.4295,5.5244,5.674,5.8842,6.1929,6.4527,6.6858,6.8768,6.7897,6.8203,7.0763,6.4726,6.0599,6.0217,5.4888,5.135,5.0468,4.8731,4.7623,4.7333,4.6768,4.5534,4.3653,4.3726,4.369,4.3506,4.3506,4.4856,4.7259,4.7709,5.0241,5.4289,5.474,5.933,6.6489,6.8128,6.6866,6.4848,7.2445,7.4918,7.486,7.8494,7.9743,7.9155,7.5763,7.3964,7.2202,6.6733,6.5999,6.6195,6.13,0.0,0.0,0.0,0.0,0.0,0.0,5.9795,6.0688,5.2968,0.0,5.3225,5.1536,0.0,5.0115,5.0912,0.0,0.0,5.1353,5.3665,5.5611,5.6319,5.8731,6.1508,6.4433,6.6746,6.8104,6.8104,6.7614,6.9119,7.3487,7.1284,7.1578,7.5873,7.6203,7.6555,7.7289,7.8919,7.9816,7.9816,8.1395,8.2186,8.2186,8.2186,8.2186,8.2186,8.2186,8.2186,8.2186,8.2186,8.2186,8.2186,8.2186,8.2186,8.2186,8.2186,8.2186,8.2186,8.2186,8.2186,8.2333,4.7679,4.7302,0.0,4.9901,5.12,5.269,5.5052,6.0561,6.4611,6.5062,6.8577,7.1251,7.1833,7.0839,7.0694,0.0,0.0,6.4871,6.2191,0.0,0.0,5.3337,5.0484,4.9066,4.9454,4.7739,4.6192,4.4901,4.4415,4.3975,4.3506,4.3975,4.625,4.9994,5.0792,5.4436,5.9942,5.8841,6.0896,6.4971,6.6279,6.5521,6.464,7.4647,7.8516,7.8846,8.0587,8.0865,7.9984,7.6717,7.4147,7.2055,7.0624,6.8385,0.0,6.5508,0.0,0.0,0.0,0.0,0.0,6.0529,6.1117,6.119,5.5563,5.3628,5.2968,5.2894,0.0,0.0,0.0,0.0,0.0,0.0,5.2123,5.3335,5.2281,5.4583,5.7813,6.152,6.2842,6.42,6.6109,6.5999,6.7026,7.0013,6.9412,7.0169,7.3142,7.5102,7.624,7.6592,7.8222,7.9339,7.9816,8.0938,8.1746,8.2186,8.2186,8.2186,8.2186,8.2186,8.2186,8.2186,8.2186,8.2186,8.2186,8.2186,8.2186,8.226,8.27,8.2627,8.226,8.2737,8.292,8.3067,4.8367,0.0,0.0,4.9824,5.0665,5.2461,5.6772,6.3541,6.8203,6.8394,7.1884,7.4613,7.5339,7.4725,7.4584,0.0,7.3331,7.0277,6.63,6.2304,5.945,5.7957,5.3554,5.1573,5.2407,4.9618,4.7489,4.625,4.5434,4.4856,4.4488,4.4856,4.7388,5.172,5.3434,5.7728,6.3686,6.3025,6.415,6.6536,6.7747,6.8568,6.983,7.6937,8.0718,8.2186,8.2186,8.1819,8.0828,7.7561,7.4867,7.2958,7.301,7.055,6.7747,0.0,0.0,0.0,6.3282,6.4567,6.5668,6.163,6.1129,6.0566,5.6701,5.4693,5.3859,5.4583,5.3566,0.0,0.0,0.0,0.0,0.0,0.0,5.2123,4.9894,5.14,5.4069,5.7666,5.9061,6.086,6.3673,6.3343,6.409,6.6843,6.6769,6.7931,7.1123,7.3744,7.5432,7.6093,7.7745,7.8993,7.9779,8.0608,8.1415,8.2186,8.2186,8.2186,8.2186,8.2186,8.2186,8.2186,8.2186,8.2186,8.2186,8.2186,8.2186,8.226,8.3087,8.3014,8.259,8.3161,8.3381,8.3601,4.9748,4.9557,0.0,0.0,5.162,5.4982,6.1624,6.4305,6.7286,7.2138,7.3887,7.6422,8.1032,8.1029,8.1858,8.4784,8.1318,7.797,7.5604,6.9079,6.5334,6.5454,5.9008,5.5794,5.659,5.2711,4.9471,4.7076,4.625,4.6241,4.6966,4.6214,4.7645,5.1022,5.4939,5.8976,6.3086,6.6976,7.1358,7.5689,7.5726,7.8112,8.1232,7.7635,7.8736,8.2186,8.2186,8.2186,8.1672,7.8353,7.7179,7.6445,7.2591,7.2312,7.2826,6.9779,7.0477,7.1211,6.6463,6.7504,6.8017,6.0089,5.9869,6.0162,5.4572,5.5647,5.7373,5.5879,5.796,5.9612,5.807,0.0,0.0,0.0,0.0,0.0,0.0,4.8967,4.9444,5.1987,5.5721,5.8731,6.0419,5.8425,5.938,6.4958,6.2475,6.3783,7.0903,7.2151,7.3707,7.6019,7.7745,7.8993,7.9779,8.0608,8.1415,8.2186,8.2186,8.2186,8.2186,8.2186,8.2186,8.2186,8.2186,8.2186,8.2186,8.2186,8.2186,8.226,8.3087,8.3381,8.3344,8.3381,8.3381,8.3528,0.0,0.0,0.0,0.0,5.1238,5.4358,6.1389,6.6698,7.1132,7.4533,7.7738,8.0959,8.4171,8.4363,8.472,8.5851,8.3711,8.0865,7.7579,7.313,7.0512,7.0246,6.4436,6.1349,6.163,5.7116,5.3581,5.1159,4.926,4.8756,4.9507,4.8113,4.9251,5.2553,5.6051,6.0456,6.5448,6.8421,7.1541,7.4588,7.5652,7.8552,8.2039,8.0645,8.1012,8.2186,8.2186,8.2186,8.2039,8.0901,7.9087,7.7252,7.7011,7.4698,7.2129,7.2092,7.1505,7.055,6.8935,7.044,7.0917,6.4457,6.3417,6.2536,5.6884,5.7251,5.8168,5.6025,5.8595,6.0529,5.84,0.0,0.0,0.0,0.0,0.0,0.0,4.7241,4.7425,4.9334,5.2664,0.0,5.5563,5.5868,5.7483,6.0994,6.1227,6.3466,6.8641,7.1211,7.3377,7.5249,7.6387,7.7855,7.9779,8.0073,8.0865,8.2186,8.2186,8.2186,8.2186,8.2186,8.2186,8.2186,8.2186,8.2186,8.2223,8.2774,8.2994,8.3141,8.4462,8.4646,8.4278,8.4792,8.4976,8.5086,5.39,5.334,5.2501,5.2175,5.4059,5.7554,6.3331,6.9755,7.4884,7.7541,8.0825,8.3941,8.6606,8.6742,8.686,8.7482,8.6606,8.4264,8.0125,7.7608,7.5838,7.4728,7.0073,6.737,6.71,6.2585,5.8646,5.5343,5.3188,5.2123,5.205,5.0398,5.0912,0.0,5.6847,6.1117,6.5888,7.0036,7.3377,7.6035,7.7598,7.969,8.1782,8.2076,8.2186,8.2186,8.2186,8.2186,8.2186,8.2186,8.0791,7.9124,7.9633,7.7268,7.4368,7.4515,7.3634,7.2422,7.1248,7.2496,7.2826,6.7504,6.6366,6.5068,5.938,5.9783,6.0774,5.8584,6.0468,6.2365,6.1961,0.0,0.0,0.0,0.0,0.0,0.0,4.625,4.6287,4.7315,0.0,0.0,0.0,5.3628,5.5133,5.8132,5.9024,6.1643,6.6586,6.9633,7.2239,7.4404,7.5542,7.7304,7.9779,7.9816,8.0624,8.2186,8.2186,8.2186,8.2186,8.2186,8.2186,8.2186,8.2186,8.237,8.2663,8.3197,8.3564,8.3968,8.527,8.549,8.5086,8.56,8.58,8.593,5.6247,5.4607,5.3523,5.5538,5.9765,6.4,6.7459,7.3091,7.8043,8.0992,8.3092,8.5455,8.8518,8.8369,8.8598,8.9904,8.9984,8.8045,8.3574,8.2467,8.1104,7.9061,7.5763,7.3634,7.2826,6.8752,6.4273,5.949,5.7728,5.6051,5.4473,5.2858,0.0,0.0,5.7398,6.0958,6.453,7.1674,7.6717,8.0,8.1578,8.1746,8.1158,8.1856,8.215,8.215,8.2186,8.2186,8.2186,8.2186,8.2186,8.1929,8.0367,7.9853,7.9376,7.6937,7.6775,7.6702,7.3597,7.3839,7.3891,6.9242,6.8531,6.7564,6.2071,6.3306,6.5105,6.3417,6.3833,6.5375,6.8201,6.4261,0.0,0.0,0.0,0.0,0.0,0.0,4.6067,0.0,0.0,0.0,0.0,5.1709,5.248,5.6334,5.6051,5.851,6.4958,6.749,7.0293,7.3611,7.5249,7.7304,7.9779,7.9853,8.0661,8.2186,8.2186,8.2186,8.2186,8.2186,8.2186,8.2186,8.2186,8.2627,8.3344,8.3418,8.3895,8.4682,8.5527,8.5874,8.5874,8.5874,8.5874,8.5967,5.7074,5.918,6.1457,6.2874,6.2492,6.3968,6.9916,7.3255,7.6911,8.1988,8.518,8.7945,9.0487,9.069,9.0576,9.0469,8.9901,8.88,8.6973,8.5537,8.4514,8.3965,8.0293,7.787,7.7047,7.1284,6.6806,6.3747,5.9685,5.7189,5.615,5.4546,0.0,0.0,0.0,6.0786,6.5288,7.0169,7.5491,8.0791,8.1782,8.2076,8.1856,8.1452,8.1305,8.1379,8.2003,8.2186,8.2186,8.2186,8.2186,8.2003,8.1012,8.0681,8.0314,7.8516,7.8112,7.7965,7.6481,7.6371,7.6114,7.3656,7.1857,6.9986,6.7307,6.8298,6.9142,6.688,6.8531,6.9486,6.6719,6.453,0.0,0.0,0.0,0.0,0.0,0.0,0.0,5.1049,0.0,0.0,4.88,5.1049,5.2994,5.4058,5.6161,5.9685,6.5031,6.6439,6.9155,7.3575,7.5249,7.7304,7.9779,8.0388,8.1195,8.2186,8.2186,8.2186,8.2186,8.2186,8.2186,8.2186,8.2186,8.2333,8.259,8.3801,8.4425,8.4756,8.6151,8.6701,8.6701,8.6701,8.6701,8.6738,6.0102,6.4104,6.7768,6.8804,6.8705,6.9767,7.367,7.6171,7.9101,8.3226,8.6581,8.9115,9.0449,9.1574,9.2083,9.173,9.0922,8.9821,8.8316,8.8023,8.7435,8.6371,8.4168,8.2406,8.1232,7.5909,0.0,6.7393,0.0,0.0,5.7299,0.0,0.0,0.0,0.0,6.0126,6.4127,7.061,7.6335,8.1085,8.1893,8.2406,0.0,8.2627,8.215,8.1562,8.2039,8.1966,8.1672,8.1672,8.1893,8.2039,8.1269,8.1012,8.0755,7.947,7.8883,7.8479,7.7986,7.7582,7.7069,7.6188,7.494,7.3325,7.0977,7.116,7.1431,7.0073,7.0403,7.061,6.9655,6.6219,6.1704,0.0,0.0,0.0,0.0,0.0,0.0,0.0,5.1206,5.0215,4.7369,4.9838,5.1646,5.1646,5.462,5.8107,6.1924,6.5228,6.8568,7.2033,7.4368,7.6754,7.9265,8.0057,8.1048,8.2186,8.2186,8.2186,8.2186,8.2186,8.2186,8.2186,8.2186,8.2406,8.281,8.4095,8.4792,8.5233,8.6518,8.6978,8.6978,8.6978,8.6978,8.6978,6.4449,6.8938,7.2664,7.3381,7.603,7.8206,7.8537,8.0782,8.3189,8.5117,8.8078,9.0024,9.0024,9.1987,9.3272,9.3272,9.2464,9.1069,8.8977,9.0041,8.9784,8.7565,8.7381,8.6537,8.4939,8.0755,7.5873,0.0,0.0,0.0,5.7483,0.0,0.0,0.0,0.0,0.0,6.3135,7.2239,7.8002,8.1085,8.1893,8.2737,8.3601,8.4242,8.3581,8.2333,8.2113,8.1525,8.0865,8.0975,8.1452,8.1929,8.1342,8.1158,8.1012,8.0183,7.947,7.8883,7.8772,7.8148,7.7472,7.7472,7.7399,7.6592,7.378,7.3105,7.3105,7.3105,7.1394,7.0793,7.3986,6.8298,6.1104,0.0,0.0,0.0,0.0,0.0,0.0,0.0,0.0,0.0,4.7883,4.9077,4.9941,4.961,5.2391,5.528,5.7997,6.3625,6.7774,7.0036,7.323,7.6078,7.8589,7.9522,8.0734,8.2186,8.2186,8.2186,8.2186,8.2186,8.2186,8.2186,8.2186,8.2663,8.3454,8.4278,8.5123,8.604,8.6738,8.6978,8.6978,8.6978,8.6978,8.6978,6.8778,7.246,7.5419,7.5566,7.9333,8.3014,8.4996,8.5758,8.6931,8.9234,9.1803,9.3418,9.3418,9.3822,9.4079,9.4079,9.3345,9.2684,9.2281,9.184,9.1106,9.0041,8.9326,8.8225,8.6611,8.1342,7.613,0.0,6.5692,6.026,5.5023,5.5291,0.0,0.0,0.0,0.0,6.7981,7.3707,7.8002,8.1085,8.1893,8.3067,8.4352,8.3821,8.3418,8.3014,8.1709,8.0681,8.011,8.0791,8.1085,8.1305,8.1819,8.2003,8.1819,8.1012,8.0681,8.0424,7.9764,7.8993,7.8369,7.8369,7.7839,7.7142,7.6592,7.6445,7.6445,7.6445,7.5601,7.4441,7.3156,6.8481,6.338,5.8866,0.0,0.0,0.0,0.0,0.0,0.0,0.0,5.2968,5.0388,5.1599,5.1756,4.9757,5.1363,5.4326,5.8756,6.0713,6.4273,6.9926,7.323,7.6078,7.8589,8.0057,8.1269,8.2186,8.2186,8.2186,8.2186,8.2186,8.2186,8.2186,8.2186,8.2663,8.3454,8.4278,8.549,8.6794,8.6941,8.6978,8.6978,8.6978,8.6978,8.6978,7.4757,7.7341,7.9543,8.0351,8.3821,8.7198,8.9197,9.0959,9.1693,9.0739,9.1987,9.2978,9.2978,9.4153,9.4923,9.4923,9.4189,9.3712,9.3712,9.2941,9.2317,9.1913,9.0684,8.9473,8.8262,8.3528,7.8699,7.378,6.7724,6.2022,5.6884,5.5978,5.473,5.3398,0.0,6.4077,7.0426,7.483,7.8867,8.2317,8.3104,8.4425,8.582,8.5399,8.4739,8.3911,8.3141,8.2076,8.1064,8.1012,8.1012,8.1158,8.1929,8.2186,8.2113,8.1746,8.1342,8.0938,8.0534,7.9837,7.9119,7.8699,7.8295,7.7839,7.7399,7.7289,7.7289,7.7289,7.6995,7.5711,7.2481,6.8591,6.5007,6.2218,6.0664,0.0,0.0,0.0,0.0,0.0,0.0,0.0,0.0,5.1646,5.1206,4.7948,5.0372,5.3371,5.6554,5.9465,6.3429,6.8692,7.1982,7.5014,7.7876,7.9543,8.0975,8.2186,8.2186,8.2186,8.2186,8.2186,8.2186,8.2186,8.2186,8.2663,8.3491,8.4719,8.593,8.6978,8.6978,8.6978,8.6978,8.6978,8.6978,8.6978,8.0367,8.2113,8.3654,8.5123,8.8059,9.0611,9.1877,9.4703,9.5547,9.2317,9.2464,9.2831,9.2831,9.4593,9.5749,9.5749,9.5034,9.4556,9.4556,9.3786,9.3272,9.3125,9.184,9.0647,8.9693,8.606,8.1693,7.6644,7.0513,6.4738,5.9416,5.7336,5.5978,5.5489,6.1435,6.705,7.2298,7.6004,7.9931,8.3711,8.4352,8.5563,8.6978,8.6978,8.6224,8.5086,8.4903,8.3911,8.259,8.1966,8.1415,8.1085,8.1525,8.1819,8.1929,8.1929,8.1636,8.1269,8.1269,8.0681,7.991,7.925,7.8846,7.8405,7.7729,7.7436,7.7289,7.7289,7.7289,7.6078,7.2041,6.9669,6.743,6.4787,6.3135,6.1961,0.0,0.0,0.0,0.0,0.0,0.0,5.0922,5.0849,4.9848,4.7131,4.9784,5.2501,5.4803,5.8694,6.2891,6.7297,7.0587,7.3692,7.6775,7.8772,8.0624,8.2186,8.2186,8.2186,8.2186,8.2186,8.2186,8.2186,8.237,8.2994,8.4005,8.5453,8.6444,8.6978,8.6978,8.6978,8.6978,8.6978,8.6978,8.6978,8.3838,8.5453,8.6848,8.7729,9.0592,9.2794,9.2978,9.5107,9.6575,9.6171,9.6208,9.6245,9.6245,9.6465,9.6575,9.6575,9.5841,9.5382,9.5382,9.463,9.3859,9.3125,9.2941,9.2134,9.0501,8.7968,8.3948,7.8369,7.3325,6.7233,6.026,5.9306,5.9967,6.2095,6.6389,7.0646,7.472,7.7378,8.0791,8.4499,8.4572,8.5563,8.6978,8.6978,8.6904,8.6684,8.593,8.5123,8.4352,8.4278,8.281,8.0901,8.022,8.0534,8.1122,8.1122,8.1562,8.2076,8.2076,8.1489,8.0865,8.0791,7.969,7.8589,7.8516,7.7876,7.7289,7.7289,7.7289,7.6078,7.2041,7.2848,7.2151,6.6169,6.683,6.71,6.4176,0.0,6.1545,5.9049,0.0,0.0,5.3995,5.0058,4.8333,5.0215,5.0004,5.1803,5.6334,5.7703,6.086,6.6439,6.9729,7.2591,7.5087,7.8222,8.0624,8.2186,8.2186,8.2186,8.2186,8.2186,8.2186,8.2223,8.2994,8.4168,8.5637,8.6518,8.6904,8.6978,8.6978,8.6978,8.6978,8.6978,8.6978,8.6978,8.8683,8.8666,8.9143,9.1473,9.2134,9.2978,9.496,9.6098,9.6685,9.6685,9.6685,9.6685,9.6685,9.6685,9.6685,9.6685,9.6428,9.6208,9.6208,9.5474,9.4887,9.4556,9.4079,9.3272,9.2134,9.0188,8.6885,8.2186,7.7289,7.2188,6.6903,6.5118,6.5595,6.8077,7.1651,7.4955,7.8038,8.0975,8.3398,8.5343,8.5857,8.6444,8.6978,8.6978,8.6978,8.6941,8.6628,8.6297,8.5894,8.4939,8.3324,8.1672,8.1358,8.1122,8.1012,8.1012,8.1232,8.1599,8.2076,8.1966,8.1599,8.1122,8.0534,7.98,7.8809,7.8332,7.7913,7.7399,7.7289,7.6665,7.4573,7.3399,7.2224,7.0587,6.9119,6.7907,6.71,0.0,0.0,6.0224,0.0,0.0,0.0,5.1756,5.0655,5.2113,4.9654,5.0021,5.4425,5.6334,5.9416,6.4114,6.9288,7.2958,7.4867,7.8626,8.1085,8.2186,8.2186,8.2186,8.2186,8.2186,8.2443,8.2994,8.4278,8.5196,8.5857,8.6664,8.6978,8.6978,8.6978,8.6978,8.6978,8.6978,8.6978,8.6978,9.2317,9.162,9.173,9.452,9.4226,9.4373,9.6685,9.7236,9.7419,9.7419,9.7199,9.6942,9.6722,9.6685,9.6685,9.6685,9.6685,9.6685,9.6685,9.6171,9.5749,9.5492,9.496,9.4189,9.3125,9.173,8.9234,8.5673,8.1473,7.7399,7.3399,7.0954,7.1101,7.3582,7.6313,7.9029,8.1725,8.4242,8.593,8.6921,8.7455,8.7711,8.7711,8.7711,8.7565,8.7344,8.7344,8.7198,8.6848,8.571,8.4389,8.3141,8.2406,8.1966,8.1619,8.1158,8.1342,8.1746,8.1819,8.2003,8.2039,8.1489,8.1195,8.0645,7.925,7.8772,7.8369,7.7472,7.7289,7.7069,7.624,7.4258,7.2775,7.2973,7.0807,6.8898,6.8274,6.6035,0.0,6.1361,5.8364,5.6271,5.5868,5.3298,5.2454,5.4462,5.1489,5.1159,5.4755,5.6811,5.9832,6.4127,6.9853,7.3634,7.5234,7.9066,8.1415,8.2186,8.2186,8.2186,8.2186,8.2443,8.3104,8.4168,8.5306,8.593,8.6187,8.6775,8.6978,8.6978,8.6978,8.6978,8.6978,8.6978,8.6978,8.6978,9.3932,9.4226,9.474,9.6392,9.7309,9.7843,9.7879,9.8557,9.9052,9.9052,9.8374,9.7566,9.6795,9.6685,9.6685,9.6685,9.6685,9.6685,9.6685,9.6685,9.6318,9.5528,9.5492,9.474,9.3125,9.2281,9.0683,8.8169,8.571,8.2443,7.8442,7.5968,7.613,7.8589,8.0204,8.2737,8.5783,8.6628,8.7895,8.9363,8.9363,8.9363,8.9363,8.9363,8.8886,8.8206,8.8206,8.7655,8.6978,8.6978,8.6444,8.536,8.2957,8.2737,8.3051,8.1489,8.2133,8.3014,8.1436,8.1599,8.2186,8.2186,8.1599,8.0791,7.9963,7.9192,7.8369,7.7472,7.7289,7.7069,7.624,7.6056,7.5028,7.1857,7.1967,7.1064,6.71,6.5815,0.0,6.2976,5.8547,5.6528,5.8902,5.4095,5.2784,5.7593,5.6429,5.6565,5.9013,5.9893,6.2585,6.748,7.1592,7.4441,7.6056,7.936,8.1415,8.2186,8.2186,8.2186,8.2223,8.303,8.4278,8.5764,8.5783,8.6261,8.6978,8.6978,8.6978,8.6978,8.6978,8.6978,8.6978,8.6978,8.6978,8.6978,9.5841,9.5951,9.6282,9.7309,9.7733,9.808,9.8631,9.8961,9.9108,9.9108,9.8888,9.8411,9.7603,9.7016,9.6685,9.6685,9.6685,9.6685,9.6685,9.6685,9.6575,9.6318,9.6318,9.5841,9.4758,9.3932,9.2574,9.0665,8.8243,8.5563,8.27,8.2443,8.303,8.4389,8.5453,8.6775,8.8262,8.8519,8.8923,8.94,8.94,8.94,8.94,8.94,8.9253,8.8959,8.839,8.8059,8.7729,8.7161,8.6848,8.6481,8.571,8.4519,8.3308,8.2794,8.2627,8.248,8.1966,8.2003,8.2076,8.1525,8.1599,8.1599,8.0791,7.958,7.8369,7.7472,7.7289,7.7215,7.6959,7.646,7.5579,7.4023,7.3046,7.1468,6.8568,6.6499,6.4664,6.3013,6.0493,5.9171,5.993,5.7912,5.6921,5.7923,5.7531,5.7813,5.9123,6.2095,6.4714,6.6806,7.2386,7.5836,7.6922,8.0167,8.1929,8.2186,8.2186,8.248,8.3051,8.4425,8.5306,8.5837,8.6371,8.6775,8.6978,8.6978,8.6978,8.6978,8.6978,8.6978,8.6978,8.6978,8.6978,8.6978,9.7163,9.7383,9.775,9.8264,9.8594,9.8961,9.9475,9.9805,9.9989,9.9989,9.9732,9.9365,9.8851,9.808,9.7346,9.6759,9.6685,9.6685,9.6685,9.6685,9.6685,9.6685,9.6685,9.6318,9.5528,9.4997,9.4079,9.2721,9.0629,8.8647,8.6848,8.7068,8.7435,8.7932,8.8426,8.9106,8.984,8.984,9.0024,9.028,9.028,9.028,9.028,9.028,9.0097,8.9767,8.9271,8.8904,8.8536,8.7729,8.7472,8.7399,8.7088,8.595,8.4629,8.4042,8.3728,8.3398,8.281,8.2663,8.248,8.1636,8.1819,8.2003,8.1195,7.9764,7.8442,7.7876,7.7546,7.7289,7.7289,7.6885,7.6188,7.5087,7.356,7.1651,6.9229,6.6549,6.4457,6.3417,6.2095,6.1288,6.1288,6.1692,6.1728,6.1227,6.2034,6.2915,6.371,6.5031,6.6806,6.9119,7.4294,7.7561,7.8683,8.1012,8.2186,8.2186,8.2517,8.3067,8.3911,8.5196,8.5967,8.6261,8.6775,8.6978,8.6978,8.6978,8.6978,8.6978,8.6978,8.6978,8.6978,8.6978,8.6978,8.6978,9.799,9.8594,9.9125,9.9181,9.9805,10.0319,10.0393,10.098,10.1514,10.1514,10.0796,10.0393,10.0283,9.9622,9.8557,9.7016,9.6832,9.6795,9.6795,9.6722,9.6685,9.6685,9.6685,9.6355,9.5602,9.5528,9.5107,9.4299,9.2739,9.1546,9.0776,8.995,8.9583,8.9583,8.9583,8.9987,9.0702,9.0702,9.1106,9.1803,9.1803,9.1803,9.1803,9.1803,9.1326,9.0702,9.0629,9.0097,8.9363,8.8573,8.828,8.8169,8.7381,8.7124,8.6775,8.5233,8.527,8.5453,8.3895,8.3491,8.3271,8.2406,8.2186,8.2003,8.1195,7.9837,7.8736,7.8626,7.7949,7.7362,7.7326,7.7252,7.6702,7.5087,7.3413,7.1505,6.9082,6.6145,6.4249,6.4213,6.3613,6.3233,6.3233,6.5375,6.6696,6.6586,6.8752,7.044,7.1197,6.8605,6.9192,7.378,7.7011,7.947,8.1085,8.1819,8.2223,8.2296,8.3104,8.3895,8.4719,8.5527,8.6297,8.6978,8.6978,8.6978,8.6978,8.6978,8.6978,8.6978,8.6978,8.6978,8.6978,8.6978,8.6978,8.6978,9.8814,9.8961,9.9292,9.9916,10.0209,10.0503,10.109,10.1404,10.1514,10.1514,10.1274,10.098,10.0393,10.0099,9.9622,9.8631,9.797,9.7603,9.7603,9.7052,9.6685,9.6685,9.6685,9.6612,9.6428,9.5804,9.5107,9.4299,9.3308,9.2721,9.2501,9.162,9.1216,9.1216,9.1216,9.1326,9.151,9.151,9.162,9.1803,9.1803,9.1803,9.1803,9.1803,9.1693,9.1436,9.0812,9.0464,9.017,8.94,8.9106,8.9069,8.8886,8.8409,8.7729,8.6738,8.6114,8.5563,8.4609,8.4315,8.3985,8.2553,8.2186,8.2003,8.1195,8.0718,8.0094,7.8846,7.8442,7.8112,7.7436,7.6812,7.5873,7.4258,7.2129,6.9816,6.7393,6.6402,6.5705,6.5081,6.6463,6.7453,6.7453,6.8531,6.8752,6.7517,6.9096,7.0183,7.0367,7.1982,7.3986,7.6371,7.8442,8.0277,8.1893,8.2113,8.2517,8.3124,8.3948,8.4756,8.5527,8.6371,8.6811,8.6978,8.6978,8.6978,8.6978,8.6978,8.6978,8.6978,8.6978,8.6978,8.6978,8.6978,8.6978,8.6978,9.9659,9.9952,10.0319,10.0796,10.0796,10.098,10.1384,10.1514,10.1514,10.1514,10.1514,10.1274,10.0907,10.0796,10.0706,10.0209,9.8778,9.8043,9.8411,9.7346,9.6869,9.7236,9.6906,9.6685,9.6685,9.6282,9.5658,9.485,9.441,9.3822,9.3088,9.2611,9.217,9.1803,9.1803,9.1803,9.1803,9.1803,9.1803,9.1803,9.1803,9.1803,9.1803,9.1803,9.1803,9.173,9.1326,9.1143,9.1033,9.0207,8.995,8.9877,8.951,8.9106,8.8666,8.8225,8.7288,8.6261,8.582,8.5416,8.4829,8.3618,8.2737,8.2186,8.2113,8.1509,8.0755,7.9874,7.9396,7.8883,7.8075,7.7215,7.5873,7.3523,7.2055,7.022,6.743,6.7357,6.7577,6.7504,6.8958,7.0132,7.0513,7.1945,7.2165,7.0564,7.1908,7.301,7.3362,7.5432,7.7011,7.7876,7.9507,8.0938,8.2186,8.2553,8.2994,8.3418,8.4609,8.538,8.5837,8.6628,8.6978,8.6978,8.6978,8.6978,8.6978,8.6978,8.6978,8.6978,8.6978,8.6978,8.6978,8.6978,8.6978,8.6978,10.0503,10.098,10.1514,10.1514,10.1514,10.1514,10.1514,10.1514,10.1514,10.1514,10.1514,10.1514,10.1514,10.1514,10.1514,10.1514,9.9531,9.8557,9.9255,9.7787,9.7199,9.7879,9.7126,9.6685,9.6685,9.6685,9.6392,9.5675,9.5565,9.4794,9.3455,9.3345,9.2831,9.1987,9.1987,9.1913,9.1803,9.1803,9.1803,9.1803,9.1803,9.1803,9.1803,9.1803,9.1803,9.1803,9.1803,9.1803,9.1693,9.1033,9.0776,9.0665,8.9987,8.9693,8.9583,8.9583,8.8519,8.7344,8.7198,8.6518,8.5637,8.4939,8.3654,8.27,8.3271,8.2317,8.1305,8.1048,8.0461,7.9743,7.8919,7.7949,7.6298,7.3193,7.2496,7.1248,6.8141,6.8605,6.9545,7.0367,7.149,7.2518,7.334,7.5285,7.5946,7.4698,7.5763,7.6827,7.7619,7.8479,7.8956,7.8956,8.0424,8.1562,8.237,8.3051,8.3528,8.3785,8.5159,8.5857,8.6004,8.6701,8.6978,8.6978,8.6978,8.6978,8.6978,8.6978,8.6978,8.6978,8.6978,8.6978,8.7014,8.7124,8.7088,8.7014,10.1274,10.1404,10.1514,10.1514,10.1514,10.1514,10.1514,10.1514,10.1514,10.1514,10.1514,10.1514,10.1514,10.1514,10.1514,10.1514,10.0503,9.9989,10.0099,9.8594,9.775,9.7897,9.7126,9.6685,9.6685,9.6685,9.6649,9.6502,9.5822,9.5345,9.5088,9.4446,9.3675,9.2905,9.2905,9.2501,9.1803,9.1803,9.1803,9.1803,9.1803,9.1803,9.1803,9.1803,9.1803,9.1803,9.1803,9.1803,9.1767,9.1657,9.162,9.1583,9.1473,9.0959,9.0391,9.0391,8.9767,8.8886,8.8206,8.6921,8.5764,8.5637,8.4903,8.4095,8.3528,8.3197,8.2647,8.1289,8.0901,8.0571,7.9779,7.8369,7.6481,7.3927,7.2386,7.061,6.8068,6.9559,7.1233,7.2018,7.4647,7.6702,7.7561,7.8002,7.8369,7.8825,7.8442,7.8552,7.9376,8.0167,8.0645,8.0645,8.1525,8.2406,8.3197,8.3344,8.4078,8.5416,8.5673,8.6151,8.6811,8.6941,8.6978,8.6978,8.6978,8.6978,8.6978,8.6978,8.6978,8.6978,8.6978,8.6978,8.7088,8.7766,8.7582,8.7198,10.1514,10.1514,10.1514,10.1514,10.1514,10.1514,10.1514,10.1514,10.1514,10.1514,10.1514,10.1514,10.1514,10.1514,10.1514,10.1514,10.122,10.0907,10.0907,9.9035,9.808,9.8521,9.7346,9.6685,9.6685,9.6685,9.6685,9.6685,9.6318,9.5914,9.5492,9.5144,9.452,9.3712,9.3308,9.2868,9.2464,9.1987,9.1803,9.1803,9.1803,9.1803,9.1803,9.1803,9.1803,9.1803,9.1803,9.1803,9.1803,9.1803,9.1803,9.1803,9.1803,9.1546,9.1253,9.1253,9.0354,8.9216,8.8426,8.7655,8.6995,8.6554,8.5857,8.5159,8.4792,8.4352,8.3711,8.2537,8.228,8.1913,8.0681,7.9103,7.7341,7.5322,7.3634,7.2202,7.1078,7.2275,7.3692,7.494,7.6812,7.8332,7.9192,7.9265,7.9412,7.9779,7.9449,7.958,8.0388,8.0791,8.1415,8.228,8.2663,8.303,8.3381,8.4278,8.5086,8.58,8.6224,8.6628,8.6978,8.6978,8.6978,8.6978,8.6978,8.6978,8.6978,8.6978,8.7234,8.7655,8.7655,8.7895,8.8335,8.8702,8.8592,8.8409,10.1514,10.1514,10.1514,10.1514,10.1514,10.1514,10.1514,10.1514,10.1514,10.1514,10.1514,10.1514,10.1514,10.1514,10.1514,10.1514,10.1514,10.1514,10.1514,9.9585,9.8741,9.9365,9.8007,9.7273,9.7273,9.7273,9.7163,9.6979,9.6979,9.6575,9.5804,9.5804,9.5364,9.4556,9.3932,9.3455,9.3051,9.2391,9.1987,9.1803,9.1803,9.1803,9.1803,9.1803,9.1803,9.1803,9.1803,9.1803,9.1803,9.1803,9.1803,9.1803,9.1803,9.1803,9.1803,9.1803,9.0922,8.9767,8.8977,8.861,8.828,8.7472,8.6811,8.6261,8.5911,8.5306,8.4646,8.3821,8.3675,8.3234,8.1803,8.0388,7.8772,7.6717,7.5506,7.4625,7.4037,7.5028,7.6225,7.7472,7.8516,7.9396,8.0036,8.0257,8.0367,8.0367,8.0367,8.0624,8.1269,8.1452,8.2207,8.3638,8.3675,8.3748,8.3968,8.5159,8.5894,8.6077,8.6701,8.6978,8.6978,8.6978,8.7088,8.7288,8.7288,8.7381,8.7565,8.7565,8.7895,8.85,8.85,8.8849,8.9436,8.962,8.9546,8.9436,10.1514,10.1514,10.1514,10.1514,10.1514,10.1514,10.1514,10.1514,10.1514,10.1514,10.1514,10.1514,10.1514,10.1514,10.1514,10.1514,10.1514,10.1514,10.1514,10.0613,10.0099,10.0209,9.9402,9.8924,9.8924,9.8924,9.8557,9.7787,9.7787,9.7383,9.6612,9.6612,9.6171,9.5418,9.5345,9.452,9.3088,9.3015,9.2537,9.1803,9.1803,9.1803,9.1803,9.1803,9.1803,9.1803,9.1803,9.1803,9.1803,9.1803,9.1803,9.1803,9.1803,9.1803,9.1803,9.1803,9.173,9.1436,9.0629,8.9877,8.9106,8.8316,8.8059,8.7619,8.6151,8.5764,8.549,8.4682,8.4499,8.4242,8.3381,8.2517,8.0901,7.7729,7.7781,7.7451,7.5124,7.6827,7.8369,7.8479,7.9874,8.0865,8.0901,8.1599,8.2003,8.2003,8.2003,8.2039,8.2113,8.281,8.3601,8.4499,8.4499,8.4866,8.56,8.5764,8.6151,8.6904,8.6978,8.6978,8.6978,8.6978,8.7435,8.8096,8.8096,8.8519,8.9216,8.9216,8.9253,8.9326,8.9326,8.9363,8.9473,9.0244,9.0024,8.962,10.1514,10.1514,10.1514,10.1514,10.1514,10.1514,10.1514,10.1514,10.1514,10.1514,10.1514,10.1514,10.1514,10.1514,10.1514,10.1514,10.1514,10.1514,10.1514,10.122,10.0613,9.9622,9.9255,9.9108,9.9108,9.9108,9.8704,9.7916,9.7916,9.7493,9.6685,9.6685,9.6539,9.6208,9.5712,9.5161,9.4556,9.4079,9.3382,9.2611,9.2611,9.2281,9.1803,9.1803,9.1803,9.1803,9.1803,9.1803,9.1803,9.1803,9.1803,9.1803,9.1803,9.1803,9.1803,9.1803,9.1803,9.173,9.1436,9.0776,8.995,8.9143,8.8923,8.8776,8.8152,8.7655,8.7068,8.6261,8.5673,8.5086,8.4278,8.3508,8.2537,8.1289,8.0094,7.9176,7.8772,7.9066,7.9507,8.0021,8.1085,8.1746,8.1746,8.248,8.2957,8.2957,8.3398,8.3691,8.3691,8.4462,8.5013,8.5306,8.582,8.6004,8.58,8.6297,8.6701,8.7014,8.7509,8.7729,8.7766,8.8262,8.8666,8.8923,8.8923,8.9106,8.94,8.94,8.9693,9.0134,9.0134,9.0427,9.0922,9.1216,9.1143,9.0996,10.1514,10.1514,10.1514,10.1514,10.1514,10.1514,10.1514,10.1514,10.1514,10.1514,10.1514,10.1514,10.1514,10.1514,10.1514,10.1514,10.1514,10.1514,10.1514,10.1514,10.098,9.9916,9.9842,9.9842,9.9842,9.9842,9.9475,9.8631,9.8411,9.786,9.7052,9.6832,9.6685,9.6685,9.6135,9.5749,9.5455,9.4923,9.4226,9.3492,9.3492,9.2978,9.2207,9.2207,9.2024,9.1803,9.1803,9.1803,9.1803,9.1803,9.1803,9.1803,9.1803,9.1803,9.1803,9.1803,9.1803,9.1803,9.1803,9.14,9.0776,8.9987,8.9767,8.9693,8.9473,8.8959,8.8426,8.7858,8.7105,8.6297,8.549,8.4719,8.3968,8.3491,8.2223,8.1415,8.1709,8.1489,8.1415,8.1729,8.248,8.2847,8.259,8.3324,8.3785,8.3785,8.4278,8.4719,8.4976,8.549,8.604,8.6518,8.7105,8.7252,8.6921,8.7215,8.7399,8.7399,8.8206,8.8573,8.861,8.9143,8.9546,8.9767,8.9767,8.9913,9.0134,9.0134,9.0464,9.0996,9.0996,9.1326,9.1803,9.1803,9.1803,9.1803,10.1514,10.1514,10.1514,10.1514,10.1514,10.1514,10.1514,10.1514,10.1514,10.1514,10.1514,10.1514,10.1514,10.1514,10.1514,10.1514,10.1514,10.1514,10.1514,10.1514,10.1514,10.1514,10.1514,10.1514,10.1514,10.1514,10.109,10.0283,9.9512,9.8704,9.7879,9.7089,9.6722,9.6685,9.6685,9.6282,9.5492,9.5492,9.507,9.4299,9.4299,9.3822,9.3125,9.3125,9.2574,9.1803,9.1803,9.1803,9.1803,9.1803,9.1803,9.1803,9.1803,9.1803,9.1803,9.1803,9.1803,9.1803,9.1803,9.1803,9.162,9.0812,9.0629,9.0408,8.9583,8.94,8.94,8.94,8.8776,8.7986,8.7161,8.6371,8.5306,8.3675,8.4095,8.4352,8.3528,8.4095,8.4315,8.3491,8.4115,8.4278,8.3491,8.4132,8.4609,8.4609,8.4609,8.4976,8.58,8.582,8.6554,8.8169,8.8206,8.861,8.94,8.861,8.8206,8.8206,8.9033,8.94,8.94,8.9436,8.984,9.0629,9.0629,9.1069,9.1803,9.1803,9.1803,9.1803,9.1803,9.1803,9.1803,9.1803,9.1803,9.1803,10.1514,10.1514,10.1514,10.1514,10.1514,10.1514,10.1514,10.1514,10.1514,10.1514,10.1514,10.1514,10.1514,10.1514,10.1514,10.1514,10.1514,10.1514,10.1514,10.1514,10.1514,10.1514,10.1514,10.1514,10.1514,10.1514,10.109,10.0283,10.0099,9.9218,9.7897,9.764,9.7236,9.6685,9.6685,9.6575,9.6355,9.6355,9.5878,9.5144,9.5144,9.4666,9.3932,9.3932,9.3786,9.3529,9.3529,9.3529,9.3455,9.2905,9.2721,9.2611,9.1987,9.1803,9.1803,9.1803,9.1803,9.1803,9.1803,9.1803,9.173,9.151,9.1436,9.1363,9.1143,9.0665,9.0244,9.0244,8.9583,8.8959,8.8739,8.8482,8.7785,8.617,8.6133,8.5803,8.4425,8.4462,8.4499,8.4278,8.4462,8.4499,8.4278,8.4976,8.5416,8.5416,8.6481,8.7215,8.7472,8.8023,8.8556,8.9033,8.9033,8.9143,8.94,8.9143,8.9033,8.9033,8.984,9.0244,9.0244,9.0849,9.1216,9.1436,9.1436,9.1583,9.1767,9.1179,9.1289,9.173,9.1179,9.1289,9.1803,9.1803,9.1803,9.1803,10.1514,10.1514,10.1514,10.1514,10.1514,10.1514,10.1514,10.1514,10.1514,10.1514,10.1514,10.1514,10.1514,10.1514,10.1514,10.1514,10.1514,10.1514,10.1514,10.1514,10.1514,10.1514,10.1514,10.1514,10.1514,10.1514,10.1294,10.0796,10.0503,9.9622,9.8374,9.8043,9.7456,9.6685,9.6685,9.6685,9.6685,9.6685,9.6428,9.5969,9.5969,9.5511,9.4777,9.4777,9.4593,9.4299,9.4299,9.4299,9.4226,9.3749,9.3565,9.3492,9.2941,9.2574,9.2317,9.2317,9.206,9.1803,9.1803,9.1803,9.1803,9.1803,9.1803,9.1803,9.1803,9.1436,9.1069,9.1069,9.0445,8.9877,8.9877,8.962,8.9069,8.8115,8.7932,8.7601,8.6664,8.6518,8.6518,8.6518,8.6518,8.6518,8.6518,8.6958,8.7215,8.7215,8.8133,8.8683,8.8683,8.9143,8.9546,8.984,8.9877,9.0024,9.0354,9.0354,9.017,8.9877,9.0702,9.1069,9.1106,9.1583,9.1803,9.1803,9.1803,9.1803,9.173,9.0922,9.0886,9.1289,9.0812,9.0922,9.1363,9.1693,9.1803,9.1803,10.1514,10.1514,10.1514,10.1514,10.1514,10.1514,10.1514,10.1514,10.1514,10.1514,10.1514,10.1514,10.1514,10.1514,10.1514,10.1514,10.1514,10.1514,10.1514,10.1514,10.1514,10.1514,10.1514,10.1514,10.1514,10.1514,10.1514,10.1514,10.0796,9.9989,9.9181,9.8374,9.7566,9.6795,9.6722,9.6685,9.6685,9.6685,9.6685,9.6685,9.6685,9.6282,9.5602,9.5602,9.5144,9.452,9.452,9.452,9.4483,9.441,9.4336,9.4299,9.4299,9.3786,9.3198,9.3198,9.2648,9.2024,9.195,9.1913,9.1913,9.1803,9.1803,9.1803,9.1803,9.1803,9.1803,9.1803,9.1216,9.0702,9.0702,9.0097,8.9583,8.951,8.951,8.9473,8.94,8.94,8.94,8.94,8.94,8.94,8.94,8.94,8.94,8.94,8.9473,8.951,8.951,8.9583,8.995,9.0702,9.0702,9.1069,9.1803,9.1803,9.14,9.0629,9.1326,9.1657,9.1583,9.1583,9.1583,9.1583,9.1657,9.1657,9.1546,9.0812,9.0482,9.0482,9.0408,9.0445,9.0592,9.14,9.1693,9.1693,10.1514,10.1514,10.1514,10.1514,10.1514,10.1514,10.1514,10.1514,10.1514,10.1514,10.1514,10.1514,10.1514,10.1514,10.1514,10.1514,10.1514,10.1514,10.1514,10.1514,10.1514,10.1514,10.1514,10.1514,10.1514,10.1514,10.1514,10.1514,10.1274,10.0796,9.9989,9.9218,9.8411,9.7603,9.6979,9.6685,9.6685,9.6685,9.6685,9.6685,9.6685,9.6612,9.6428,9.6428,9.6318,9.6171,9.6171,9.6171,9.6098,9.5474,9.4813,9.4299,9.4299,9.4189,9.4042,9.4042,9.3896,9.3602,9.2978,9.2831,9.2648,9.195,9.1803,9.1803,9.1803,9.1803,9.1803,9.1803,9.1657,9.1546,9.1546,9.14,9.1069,9.0427,9.0317,9.0097,8.9473,8.94,8.94,8.94,8.94,8.94,8.94,8.94,8.94,8.94,8.9987,9.0317,9.0317,9.0959,9.1363,9.1546,9.1546,9.162,9.1803,9.1803,9.14,9.0592,9.0776,9.0537,8.9913,8.9913,8.9913,8.995,9.0592,9.0501,8.9913,8.973,8.9657,8.9583,8.8977,8.9124,8.9767,9.0537,9.0849,9.0959,10.1514,10.1514,10.1514,10.1514,10.1514,10.1514,10.1514,10.1514,10.1514,10.1514,10.1514,10.1514,10.1514,10.1514,10.1514,10.1514,10.1514,10.1514,10.1514,10.1514,10.1514,10.1514,10.1514,10.1514,10.1514,10.1514,10.1514,10.1514,10.1514,10.111,10.0283,9.9879,9.9255,9.8447,9.764,9.7273,9.7236,9.6869,9.6685,9.6685,9.6685,9.6685,9.6685,9.6685,9.6685,9.6685,9.6685,9.6685,9.6649,9.6208,9.5804,9.5437,9.5437,9.518,9.4887,9.4887,9.4593,9.4189,9.3786,9.3675,9.3565,9.3088,9.2978,9.2758,9.1987,9.1803,9.1803,9.1803,9.1803,9.1803,9.1803,9.1803,9.1657,9.1253,9.1179,9.1033,9.0592,9.0555,9.0555,9.0555,9.0555,9.0555,9.0555,9.0555,9.0555,9.0555,9.0922,9.1179,9.1179,9.1583,9.1803,9.1803,9.1803,9.1987,9.2427,9.2427,9.2207,9.1803,9.1803,9.1767,9.173,9.173,9.173,9.173,9.1767,9.1528,9.1051,8.9877,8.962,8.984,8.8647,8.894,8.9987,8.9987,9.028,9.0739,10.1514,10.1514,10.1514,10.1514,10.1514,10.1514,10.1514,10.1514,10.1514,10.1514,10.1514,10.1514,10.1514,10.1514,10.1514,10.1514,10.1514,10.1514,10.1514,10.1514,10.1514,10.1514,10.1514,10.1514,10.1514,10.1514,10.1514,10.1514,10.1514,10.122,10.0503,10.0393,9.9952,9.9292,9.8447,9.8117,9.8043,9.7383,9.7016,9.6906,9.6906,9.6832,9.6685,9.6685,9.6685,9.6685,9.6685,9.6685,9.6685,9.6685,9.6685,9.6685,9.6685,9.6245,9.5712,9.5712,9.5217,9.4666,9.452,9.452,9.4483,9.4336,9.4299,9.3932,9.2537,9.2134,9.1987,9.184,9.1803,9.1803,9.1803,9.1803,9.1803,9.1803,9.1803,9.1803,9.1803,9.1803,9.1803,9.1803,9.1803,9.1803,9.1803,9.1803,9.1803,9.1803,9.1803,9.1803,9.1803,9.1803,9.1877,9.2024,9.2024,9.2427,9.3308,9.3308,9.3382,9.3529,9.3529,9.3639,9.3859,9.3859,9.3859,9.3822,9.3308,9.3015,9.2721,9.0831,9.0244,9.0482,8.9124,8.9344,9.0317,8.9803,9.0097,9.0922,10.1514,10.1514,10.1514,10.1514,10.1514,10.1514,10.1514,10.1514,10.1514,10.1514,10.1514,10.1514,10.1514,10.1514,10.1514,10.1514,10.1514,10.1514,10.1514,10.1514,10.1514,10.1514,10.1514,10.1514,10.1514,10.1514,10.1514,10.1514,10.1514,10.1384,10.1274,10.0613,10.0209,10.0099,9.9292,9.8961,9.8924,9.8814,9.8374,9.775,9.775,9.7309,9.6685,9.6685,9.6685,9.6685,9.6685,9.6685,9.6685,9.6685,9.6685,9.6685,9.6685,9.6649,9.6539,9.6539,9.6465,9.6208,9.5528,9.5364,9.518,9.4483,9.4299,9.4226,9.4006,9.3418,9.2721,9.195,9.1803,9.1803,9.1803,9.1803,9.1803,9.1803,9.1803,9.1803,9.1803,9.1803,9.1803,9.1803,9.1803,9.1803,9.1803,9.1803,9.1803,9.1803,9.1803,9.1803,9.1803,9.1803,9.2134,9.2905,9.2941,9.3308,9.4116,9.4153,9.4483,9.5161,9.5161,9.4116,9.2134,9.2189,9.2189,9.217,9.2831,9.2684,9.2024,9.2427,9.1803,9.0592,9.0372,8.9987,8.962,9.0207,9.0959,9.1657,10.1514,10.1514,10.1514,10.1514,10.1514,10.1514,10.1514,10.1514,10.1514,10.1514,10.1514,10.1514,10.1514,10.1514,10.1514,10.1514,10.1514,10.1514,10.1514,10.1514,10.1514,10.1514,10.1514,10.1514,10.1514,10.1514,10.1514,10.1514,10.1514,10.1514,10.1514,10.109,10.1,10.0907,10.0099,9.9769,9.9732,9.9292,9.8888,9.8557,9.8557,9.8374,9.8043,9.8043,9.8043,9.8043,9.8043,9.8043,9.797,9.753,9.7346,9.7273,9.6832,9.6685,9.6685,9.6685,9.6685,9.6612,9.6282,9.6171,9.6098,9.5731,9.5621,9.5511,9.507,9.4703,9.4189,9.3382,9.3198,9.3051,9.2611,9.2537,9.2354,9.1877,9.1803,9.1803,9.1803,9.1803,9.1803,9.1803,9.1803,9.1803,9.1803,9.1803,9.1803,9.1803,9.1803,9.2024,9.2501,9.2537,9.2905,9.3749,9.3749,9.4153,9.496,9.496,9.5364,9.6171,9.6171,9.5621,9.4556,9.4556,9.4556,9.452,9.4483,9.4226,9.3822,9.3308,9.2941,9.2574,9.1657,9.1069,9.0849,9.1693,9.2207,9.2537]}]]